     2              OBSERVATION DATA    GPS                 RINEX VERSION / TYPE
TRRINEXO V2.8.4 LH                                          PGM / RUN BY / DATE
                                                            COMMENT
BIT 2 OF LLI (+4) FLAGS DATA COLLECTED UNDER "AS" CONDITION COMMENT
Original Marker Name: 0179                                  COMMENT
Campaign Name: coachelle valley 1990                        COMMENT
4-Character Station Name: 0179                              COMMENT
6-Character Antenna Code: TRMSST                            COMMENT
Vertical Measurement Point: TGP                             COMMENT
Vertical Offset to Rinex Ref. Point: 0.0629                 COMMENT
Radial Measurement Point: NGP                               COMMENT
Radial Offset to Rinex Ref. Point: 0.2334                   COMMENT
Antenna Height from Field Measurement: 1.0920 m             COMMENT
Original XYZ: -2368045.3919 -4731929.2525 3550602.6714      COMMENT
New XYZ position is based on association with SCEC monument COMMENT
E1D0W6J0+0011. Position of that monument is believed to be  COMMENT
valid to within 1 m horizontally; vertical accuracy         COMMENT
should be no worse than 3-times this value.                 COMMENT
                                                            COMMENT
Revised Rinex header created by UCSD GPS archive for        COMMENT
GSAC on 19-Apr-1999 (1999:109) 07:59:28 GMT                 COMMENT
For assistance contact dagnew@ucsd.edu or hjohnson@ucsd.edu COMMENT
                                                            COMMENT
INAV 06 1990                                                MARKER NAME
UNKNOWN OBSERVER RIVERSIDE COUNTY FCWCD                     OBSERVER / AGENCY
432 TRIMBLE 4000 SST 4.11 / 4.10                            REC # / TYPE / VERS
97 TR 4000SST L1/L2 GEO                                     ANT # / TYPE
 -2368049.0000 -4731930.0000  3550603.0000                  APPROX POSITION XYZ
        1.0039        0.0000        0.0000                  ANTENNA: DELTA H/E/N
     1     2     0                                          WAVELENGTH FACT L1/2
     3    C1    L1    L2                                    # / TYPES OF OBSERV
     0                                                      INTERVAL
  1990    10    10    12     0   30.000000                  TIME OF FIRST OBS
  1990    10    10    18    29   60.000000                  TIME OF LAST OBS
     0                                                      # OF SATELLITES
                                                            END OF HEADER
 90 10 10 12  0 30.0000000  0  5 02 06 11 13 18
  20875425.141          -0.008 7
  21531774.695          -0.38416
  24465202.828          -0.30015
  23681650.164          -0.09415
  22373120.625          -0.07016
 90 10 10 12  0 45.0000000  0  6 02 06 11 13 09 18
  20876660.930        6489.587 7
  21526312.992      -28700.527 6
  24474020.719       46331.275 5
  23670387.820      -59198.008 5
  24502639.750      -45191.112 3
  22381799.563       45609.212 6
 90 10 10 12  1  0.0000000  0  6 02 06 11 13 09 18
  20877903.602       13020.999 7        -0.17113
  21520856.375      -57374.612 7        -0.05912
  24482845.477       92718.489 5
  23659125.023     -118363.668 5
  24494035.484      -90405.274 3
  22390490.641       91275.907 6
 90 10 10 12  1 15.0000000  0  6 02 06 11 13 09 18
  20879152.719       19591.104 7      5119.393 3
  21515405.461      -86025.395 7    -22325.343 2
  24491687.992      139158.249 5        -0.24111
  23647873.461     -177499.439 5        -0.02511
  24485427.930     -135645.201 4
  22399188.258      136996.823 6        -0.23611
 90 10 10 12  1 30.0000000  0  6 02 06 11 13 09 18
  20880411.711       26209.805 7     10276.828 3
  21509959.719     -114642.819 6    -44624.628 2
  24500532.648      185660.086 5     36234.957 1
  23636627.297     -236595.129 5    -46048.594 1
  24476815.297     -180901.052 4        -0.11211
  22407903.141      182781.493 6     35676.106 1
 90 10 10 12  1 45.0000000  0  6 02 06 11 13 09 18
  20881680.047       32871.678 7     15467.890 3
  21504519.961     -143231.882 6    -66901.807 2
  24509392.930      232218.321 5     72514.107 1
  23625387.273     -295655.647 5    -92069.727 1
  24468200.461     -226177.995 4    -35280.831 1
  22416625.297      228624.197 6     71397.668 1
 90 10 10 12  2  0.0000000  0  6 02 06 11 13 09 18
  20882957.602       39582.132 7     20696.816 3
  21499087.008     -171786.995 7    -89152.535 2
  24518265.938      278837.997 5    108841.135 1
  23614157.539     -354675.192 5   -138058.913 1
  24459583.625     -271470.367 4    -70573.573 1
  22425360.852      274529.948 6    107168.355 1
 90 10 10 12  2 15.0000000  0  6 02 06 11 13 09 18
  20884242.352       46330.679 7     25955.424 3
  21493657.609     -200318.329 7   -111384.729 2
  24527144.898      325508.200 5    145207.511 1
  23602933.313     -413664.046 5   -184024.221 1
  24450953.602     -316788.542 3   -105886.449 1
  22434104.508      320488.013 6    142979.805 1
 90 10 10 12  2 30.0000000  0  6 02 06 11 13 09 18
  20885534.586       53127.005 7     31251.266 3
  21488232.961     -228815.782 7   -133590.525 2
  24536034.320      372238.495 5    181620.695 1
  23591719.102     -472611.762 5   -229957.461 1
  24442329.969     -362122.512 3   -141211.562 1
  22442862.930      366508.003 6    178839.522 1
 90 10 10 12  2 45.0000000  0  6 02 06 11 13 09 18
  20886836.828       59968.846 7     36582.574 3
  21482814.766     -257281.207 7   -155771.374 2
  24544939.586      419026.629 5    218078.972 1
  23580508.086     -531519.884 5   -275859.838 1
  24433702.188     -407474.287 3   -176550.670 1
  22451631.602      412587.378 6    214745.506 1
 90 10 10 12  3  0.0000000  0  6 02 06 11 13 09 18
  20888148.000       66862.659 7     41954.377 3
  21477406.758     -285707.998 7   -177922.101 2
  24553855.164      465878.469 5    254586.899 1
  23569303.125     -590381.866 6   -321726.298 1
  24425065.266     -452837.494 3   -211898.587 1
  22460411.781      458732.392 6    250702.632 1
 90 10 10 12  3 15.0000000  0  6 02 06 11 13 09 18
  20889470.281       73808.248 7     47366.520 3
  21472003.945     -314096.258 7   -200042.811 2
  24562783.734      512793.471 5    291144.005 1
  23558111.680     -649197.602 5   -367556.692 1
  24416433.352     -498211.931 3   -247255.287 1
  22469206.539      504942.017 6    286710.115 1
 90 10 10 12  3 30.0000000  0  6 02 06 11 13 09 18
  20890799.039       80798.712 7     52813.631 3
  21466606.133     -342452.318 7   -222138.433 2
  24571716.906      559764.604 5    327744.871 1
  23546925.078     -707973.382 5   -413355.949 1
  24407792.125     -543604.487 3   -282626.112 1
  22478012.852      551209.743 6    322762.864 1
 90 10 10 12  3 45.0000000  0  6 02 06 11 13 09 18
  20892139.992       87833.099 7     58294.974 3
  21461218.547     -370776.749 7   -244209.414 2
  24580667.664      606790.629 5    364388.545 1
  23535751.984     -766709.856 5   -459124.586 1
  24399156.938     -589015.841 4   -318011.591 1
  22486827.500      597534.037 6    358859.688 1
 90 10 10 12  4  0.0000000  0  6 02 06 11 13 09 18
  20893487.219       94912.729 7     63811.563 3
  21455835.406     -399068.067 7   -266254.590 2
  24589632.109      653872.709 5    401075.877 1
  23524582.984     -825404.838 5   -504860.884 1
  24390508.188     -634444.288 4   -353410.354 1
  22495652.883      643915.809 6    395001.312 1
 90 10 10 12  4 15.0000000  0  6 02 06 11 13 09 18
  20894842.086      102034.429 7     69360.937 3
  21450457.211     -427329.149 7   -288276.199 2
  24598597.336      701007.173 5    437804.020 1
  23513420.719     -884061.347 5   -550567.254 1
  24381859.891     -679892.978 4   -388824.917 1
  22504487.672      690351.696 6    431185.092 1
 90 10 10 12  4 30.0000000  0  6 02 06 11 13 09 18
  20896207.727      109210.367 7     74952.583 3
  21445087.523     -455547.466 7   -310264.481 2
  24607583.188      748205.917 5    474582.266 1
  23502269.617     -942666.772 6   -596233.765 1
  24373211.000     -725349.580 4   -424245.609 1
  22513336.562      736853.773 6    467420.458 1
 90 10 10 12  4 45.0000000  0  6 02 06 11 13 09 18
  20897581.664      116425.878 7     80575.062 3
  21439722.148     -483737.417 7   -332230.671 2
  24616569.313      795453.892 5    511398.851 1
  23491118.219    -1001235.427 5   -641871.650 1
  24364557.953     -770828.508 4   -459683.730 1
  22522196.953      783406.903 6    503695.589 1
 90 10 10 12  5  0.0000000  0  6 02 06 11 13 09 18
  20898961.797      123684.273 7     86230.949 3
  21434364.375     -511895.236 7   -354171.816 2
  24625569.383      842754.437 5    548256.411 1
  23479981.461    -1059763.105 5   -687477.578 1
  24355899.078     -816326.159 4   -495136.451 1
  22531067.477      830014.377 6    540013.080 1
 90 10 10 12  5 15.0000000  0  6 02 06 11 13 09 18
  20900352.805      131001.008 7     91932.300 3
  21429015.445     -540005.232 7   -376075.698 2
  24634585.047      890122.542 5    585166.633 1
  23468855.391    -1118234.102 5   -733039.378 1
  24347240.906     -861826.867 4   -530591.516 1
  22539948.906      876691.168 6    576384.587 1
 90 10 10 12  5 30.0000000  0  6 02 06 11 13 09 18
  20901756.078      138368.943 7     97673.551 3
  21423676.297     -568074.399 7   -397947.764 2
  24643607.328      937550.712 5    622123.636 1
  23457741.242    -1176655.142 6   -778562.220 1
  24338585.922     -907337.632 5   -566054.432 1
  22548842.969      923429.913 6    612804.364 1
 90 10 10 12  5 45.0000000  0  6 02 06 11 13 09 18
  20903163.727      145774.398 7    103444.034 3
  21418337.297     -596116.009 7   -419798.366 2
  24652640.867      985024.943 5    659116.516 1
  23446631.180    -1235039.634 6   -824056.595 1
  24329914.602     -952872.126 4   -601535.850 1
  22557747.305      970216.538 6    649261.452 1
 90 10 10 12  6  0.0000000  0  6 02 06 11 13 09 18
  20904581.359      153217.654 7    109243.974 3
  21413007.313     -624129.288 7   -441626.887 2
  24661690.094     1032545.394 5    696145.411 1
  23435527.445    -1293386.583 6   -869521.707 1
  24321246.172     -998429.688 5   -637035.238 1
  22566659.531     1017051.169 6    685755.948 1
 90 10 10 12  6 15.0000000  0  6 02 06 11 13 09 18
  20906006.570      160707.051 7    115079.862 3
  21407683.773     -652105.504 7   -463426.522 2
  24670741.781     1080120.229 5    733216.699 1
  23424432.836    -1351687.052 5   -914950.600 1
  24312573.734    -1044001.515 4   -672545.783 1
  22575585.617     1063942.043 6    722294.266 1
 90 10 10 12  6 30.0000000  0  6 02 06 11 13 09 18
  20907440.258      168238.394 7    120948.439 3
  21402365.656     -680048.845 7   -485200.543 2
  24679802.648     1127744.801 5    770326.723 1
  23413345.398    -1409945.114 5   -960346.478 1
  24303901.648    -1089591.939 4   -708070.761 1
  22584516.781     1110884.453 6    758872.746 1
 90 10 10 12  6 45.0000000  0  6 02 06 11 13 09 18
  20908879.625      175803.962 7    126843.687 3
  21397055.422     -707966.658 7   -506954.671 2
  24688873.922     1175411.048 5    807469.183 1
  23402267.617    -1468168.164 6  -1005715.025 1
  24295219.664    -1135208.208 4   -743615.914 1
  22593455.055     1157870.534 6    795485.249 1
 90 10 10 12  7  0.0000000  0  6 02 06 11 13 09 18
  20910329.211      183424.647 7    132781.881 3
  21391748.266     -735837.362 7   -528672.085 2
  24697956.922     1223139.819 5    844660.434 1
  23391199.359    -1526334.352 6  -1051039.295 1
  24286531.664    -1180829.492 4   -779164.989 1
  22602408.844     1204921.011 6    832147.926 1
 90 10 10 12  7 15.0000000  0  6 02 06 11 13 09 18
  20911788.961      191089.470 7    138754.471 3
  21386451.484     -763672.110 7   -550361.488 2
  24707051.172     1270919.665 4    881891.479 1
  23380140.148    -1584454.712 6  -1096327.875 1
  24277854.375    -1226466.502 4   -814726.231 1
  22611371.539     1252024.415 6    868851.861 1
 90 10 10 12  7 30.0000000  0  6 02 06 11 13 09 18
  20913255.578      198798.863 7    144761.787 3
  21381162.063     -791469.903 7   -572022.101 2
  24716148.969     1318750.749 4    919162.419 1
  23369089.141    -1642528.175 6  -1141579.877 1
  24269164.938    -1272118.483 4   -850299.244 1
  22620345.680     1299180.898 6    905597.151 1
 90 10 10 12  7 45.0000000  0  6 02 06 11 13 09 18
  20914730.070      206553.354 7    150804.250 3
  21375882.383     -819229.935 7   -593653.279 2
  24725265.500     1366633.250 4    956473.459 1
  23358044.594    -1700553.633 6  -1186794.507 1
  24260474.047    -1317784.645 4   -885883.237 1
  22629331.141     1346390.553 6    942383.863 1
 90 10 10 12  8  0.0000000  0  6 02 06 11 13 09 18
  20916215.523      214356.028 7    156884.253 3
  21370607.688     -846948.958 7   -615252.511 2
  24734384.273     1414569.944 4    993826.683 1
  23347012.203    -1758527.582 6  -1231968.978 1
  24251787.109    -1363461.915 5   -921475.903 1
  22638324.398     1393656.348 6    979214.331 1
 90 10 10 12  8 15.0000000  0  6 02 06 11 13 09 18
  20917708.234      222202.084 7    162998.061 3
  21365338.836     -874631.296 7   -636823.151 2
  24743512.875     1462555.894 5   1031218.283 1
  23335992.461    -1816454.469 6  -1277106.768 1
  24243087.758    -1409154.780 4   -957080.736 1
  22647327.914     1440973.334 6   1016084.700 1
 90 10 10 12  8 30.0000000  0  6 02 06 11 13 09 18
  20919209.469      230097.525 7    169150.350 3
  21360078.242     -902270.746 7   -658360.374 2
  24752656.359     1510596.793 4   1068652.702 1
  23324977.195    -1874327.935 6  -1322202.951 1
  24234385.227    -1454857.227 4   -992693.077 1
  22656345.195     1488346.945 6   1052999.179 1
 90 10 10 12  8 45.0000000  0  6 02 06 11 13 09 18
  20920722.055      238034.285 7    175334.835 3
  21354825.094     -929874.737 7   -679869.974 2
  24761809.430     1558684.392 5   1106123.533 1
  23313972.805    -1932155.348 6  -1367263.248 1
  24225689.766    -1500576.757 4  -1028318.634 1
  22665369.172     1535769.222 6   1089951.584 1
 90 10 10 12  9  0.0000000  0  6 02 06 11 13 09 18
  20922239.500      246017.674 7    181555.659 3
  21349581.953     -957437.987 7   -701347.818 2
  24770970.930     1606823.784 5   1143634.772 1
  23302979.781    -1989931.055 6  -1412283.265 1
  24216982.656    -1546307.962 4  -1063953.325 1
  22674402.344     1583245.107 6   1126945.749 1
 90 10 10 12  9 15.0000000  0  6 02 06 11 13 09 18
  20923767.234      254042.529 7    187808.792 3
  21344341.547     -984965.405 7   -722797.742 2
  24780135.727     1655009.028 5   1181181.706 1
  23291995.695    -2047660.112 6  -1457266.911 1
  24208283.383    -1592056.165 4  -1099601.263 1
  22683447.000     1630768.641 6   1163977.045 1
 90 10 10 12  9 30.0000000  0  6 02 06 11 13 09 18
  20925304.414      262115.007 7    194099.033 3
  21339111.539    -1012450.583 7   -744214.755 2
  24789322.367     1703245.959 5   1218768.898 1
  23281018.188    -2105335.765 6  -1502208.942 1
  24199575.773    -1637814.833 5  -1135257.377 1
  22692497.008     1678345.820 6   1201050.146 1
 90 10 10 12  9 45.0000000  0  6 02 06 11 13 09 18
  20926847.945      270229.622 7    200422.109 3
  21333888.695    -1039898.422 7   -765602.674 2
  24798504.414     1751529.137 5   1256392.161 1
  23270050.586    -2162962.835 6  -1547113.148 1
  24190865.438    -1683589.109 4  -1170925.645 1
  22701559.711     1725971.120 6   1238160.746 1
 90 10 10 12 10  0.0000000  0  6 02 06 11 13 09 18
  20928399.836      278384.636 7    206776.662 3
  21328672.813    -1067310.164 7   -786962.460 2
  24807703.727     1799856.760 5   1294050.024 1
  23259094.703    -2220542.408 6  -1591980.305 1
  24182149.305    -1729380.334 3  -1206607.054 1
  22710634.578     1773642.662 6   1275307.375 1
 90 10 10 12 10 15.0000000  0  6 02 06 11 13 09 18
  20929959.734      286582.851 7    213164.881 3
  21323464.781    -1094682.814 7   -808291.788 2
  24816913.953     1848231.094 5   1331744.326 1
  23248149.859    -2278071.446 6  -1636808.107 1
  24173434.563    -1775185.473 3  -1242299.414 1
  22719715.977     1821362.991 6   1312492.029 1
 90 10 10 12 10 30.0000000  0  6 02 06 11 13 09 18
  20931529.133      294827.216 7    219589.065 3
  21318263.016    -1122013.204 7   -829588.185 2
  24826124.648     1896654.722 5   1369476.986 1
  23237213.164    -2335546.583 6  -1681593.917 1
  24164713.234    -1821001.868 3
  22728803.453     1869134.603 6   1349716.629 1
 90 10 10 12 10 45.0000000  0  6 02 06 11 13 09 18
  20933105.164      303116.402 7    226048.162 3
  21313070.336    -1149302.408 7   -850852.494 2
  24835347.914     1945126.107 5   1407246.841 1
  23226286.055    -2392968.655 6  -1726338.359 1
  24155990.508    -1866830.299 3
  22737906.078     1916955.604 6   1386979.726 1
 90 10 10 12 11  0.0000000  0  6 02 06 11 13 09 18
  20934692.531      311450.380 7    232542.168 3
  21307885.867    -1176550.091 7   -872084.446 2
  24844582.188     1993644.978 5   1445053.751 1
  23215366.953    -2450337.306 6  -1771041.187 1
  24147274.188    -1912670.561 4        -0.04011
  22747016.367     1964826.011 6   1424281.316 1
 90 10 10 12 11 15.0000000  0  6 02 06 11 13 09 18
  20936285.883      319824.365 7    239067.348 3
  21302707.727    -1203760.696 7   -893287.511 2
  24853820.852     2042206.341 5   1482893.769 1
  23204458.141    -2507656.968 6  -1815705.853 1
  24138546.945    -1958527.256 4    -35732.536 1
  22756132.656     2012740.595 6   1461617.341 1
 90 10 10 12 11 30.0000000  0  6 02 06 11 13 09 18
  20937888.844      328244.950 7    245628.839 3
  21297536.430    -1230927.076 7   -914456.101 2
  24863072.813     2090816.596 5   1520771.879 1
  23193564.188    -2564920.356 6  -1860326.624 1
  24129813.781    -2004393.494 3    -71472.474 1
  22765260.789     2060705.903 6   1498992.872 1
 90 10 10 12 11 45.0000000  0  6 02 06 11 13 09 18
  20939498.609      336707.972 7    252223.396 3
  21292375.281    -1258053.363 7   -935593.464 2
  24872329.133     2139471.085 5   1558684.396 1
  23182675.492    -2622131.293 6  -1904906.553 1
  24121090.109    -2050273.353 4   -107222.998 1
  22774393.977     2108717.464 6   1536404.461 1
 90 10 10 12 12  0.0000000  0  6 02 06 11 13 09 18
  20941116.430      345213.579 7    258851.141 3
  21287222.398    -1285138.876 7   -956699.049 2
  24881598.813     2188170.047 5   1596631.688 1
  23171798.828    -2679289.362 6  -1949445.292 1
  24112354.094    -2096166.310 4   -142983.700 1
  22783542.813     2156775.086 6   1573851.909 1
 90 10 10 12 12 15.0000000  0  6 02 06 11 13 09 18
  20942745.203      353767.842 7    265516.801 3
  21282075.961    -1312177.448 7   -977768.052 2
  24890872.625     2236918.680 5   1634617.628 1
  23160933.727    -2736387.888 6  -1993937.611 1
  24103625.305    -2142066.205 5   -178749.846 1
  22792696.961     2204884.516 6   1611339.763 1
 90 10 10 12 12 30.0000000  0  6 02 06 11 13 09 18
  20944381.016      362363.005 7    272214.332 3
  21276938.125    -1339176.459 7   -998806.236 2
  24900161.484     2285709.017 5   1672636.040 1
  23150076.938    -2793434.181 6  -2038389.274 1
  24094883.227    -2187980.754 4   -214527.406 1
  22801859.406     2253037.556 6   1648861.581 1
 90 10 10 12 12 45.0000000  0  6 02 06 11 13 09 18
  20946025.508      371003.449 7    278947.143 3
  21271809.680    -1366131.306 7  -1019810.003 2
  24909448.508     2334545.151 5   1710690.131 1
  23139230.969    -2850423.758 6  -2082796.698 1
  24086141.852    -2233905.432 4   -250312.880 1
  22811029.703     2301238.291 6   1686420.566 1
 90 10 10 12 13  0.0000000  0  6 02 06 11 13 09 18
  20947678.758      379687.997 7    285714.314 3
  21266688.266    -1393042.827 7  -1040780.012 2
  24918754.719     2383425.560 5   1748778.650 1
  23128397.328    -2907357.174 6  -2127160.378 1
  24077400.195    -2279840.837 4   -286106.720 1
  22820213.789     2349485.348 6   1724015.646 1
 90 10 10 12 13 15.0000000  0  6 02 06 11 13 09 18
  20949337.125      388415.663 7    292515.095 3
  21261575.578    -1419911.303 7  -1061716.477 2
  24928063.500     2432349.470 5   1786901.108 1
  23117575.109    -2964234.651 6  -2171480.473 1
  24068658.453    -2325787.650 4   -321909.422 1
  22829403.016     2397777.632 6   1761645.975 1
 90 10 10 12 13 30.0000000  0  6 02 06 11 13 09 18
  20951006.578      397186.320 7    299349.373 3
  21256469.773    -1446736.841 7  -1082619.485 2
  24937380.891     2481316.091 5   1825056.866 1
  23106763.445    -3021056.034 6  -2215756.876 1
  24059907.320    -2371746.169 4   -357721.253 1
  22838599.344     2446114.640 6   1799311.156 1
 90 10 10 12 13 45.0000000  0  6 02 06 11 13 09 18
  20952685.313      406002.963 7    306219.477 3
  21251376.453    -1473515.973 7  -1103486.330 2
  24946704.867     2530328.400 4   1863248.260 1
  23095960.117    -3077817.727 6  -2259986.729 1
  24051167.586    -2417712.686 5   -393539.287 1
  22847808.000     2494499.179 6   1837013.350 1
 90 10 10 12 14  0.0000000  0  6 02 06 11 13 09 18
  20954372.352      414865.196 7    313125.110 3
  21246286.828    -1500248.908 7  -1124317.187 2
  24956045.969     2579385.460 5   1901474.530 1
  23085167.469    -3134520.000 6  -2304170.323 1
  24042414.477    -2463687.844 4   -429364.072 1
  22857023.664     2542930.361 6   1874751.917 1
 90 10 10 12 14 15.0000000  0  6 02 06 11 13 09 18
  20956066.125      423769.388 7    320063.439 3
  21241208.625    -1526939.147 7  -1145114.767 2
  24965382.961     2628483.208 4   1939732.413 1
  23074393.367    -3191165.873 6  -2348309.938 1
  24033659.641    -2509674.967 4   -465198.155 1
  22866246.406     2591404.232 6   1912523.730 1
 90 10 10 12 14 30.0000000  0  6 02 06 11 13 09 18
  20957768.594      432714.414 7    327033.584 3
  21236137.234    -1553587.243 7  -1165879.508 2
  24974734.750     2677620.650 3   1978021.341 1
  23063622.633    -3247756.373 6  -2392406.409 1
  24024909.297    -2555674.934 4   -501042.324 1
  22875481.852     2639919.438 6   1950327.765 1
 90 10 10 12 14 45.0000000  0  6 02 06 11 13 09 18
  20959477.734      441705.333 7    334039.500 3
  21231075.938    -1580187.764 7  -1186607.180 2
  24984086.633     2726802.406 3   2016344.721 1
  23052865.656    -3304285.766 6  -2436455.269 1
  24016157.367    -2601682.374 5   -536892.252 1
  22884721.664     2688480.794 6   1988167.753 1
 90 10 10 12 15  0.0000000  0  6 02 06 11 13 09 18
  20961198.828      450741.303 7    341080.509 3
  21226021.570    -1606741.341 7  -1207298.273 2
  24993454.227     2776027.182 3   2054701.623 1
  23042119.164    -3360754.617 6  -2480456.968 1
  24007400.828    -2647697.952 5   -572748.520 1
  22893972.617     2737087.254 6   2026042.884 1
 90 10 10 12 15 15.0000000  0  6 02 06 11 13 09 18
  20962925.305      459817.655 7    348152.988 3
  21220977.859    -1633252.100 7  -1227956.001 2
  25002839.063     2825290.219 3   2093088.346 1
  23031382.883    -3417166.770 6  -2524414.453 1
  23998638.602    -2693725.960 5   -608614.507 1
  22903230.016     2785733.859 6   2063949.316 1
 90 10 10 12 15 30.0000000  0  6 02 06 11 13 09 18
  20964662.344      468943.256 7    355263.841 3
  21215943.016    -1659711.070 7  -1248573.380 2
  25012221.719     2874600.000 3   2131511.521 1
  23020660.305    -3473512.971 6  -2568320.569 1
  23989881.570    -2739757.536 5   -644483.226 1
  22912495.344     2834428.830 6   2101893.422 1
 90 10 10 12 15 45.0000000  0  6 02 06 11 13 09 18
  20966407.281      478112.304 7    362408.550 3
  21210916.977    -1686123.875 7  -1269154.775 2
  25021616.539     2923950.232 4   2169966.176 1
  23009952.344    -3529798.758 6  -2612179.625 1
  23981117.063    -2785798.169 4   -680359.054 1
  22921770.938     2883166.293 6   2139870.641 1
 90 10 10 12 16  0.0000000  0  6 02 06 11 13 09 18
  20968159.148      487329.184 7    369590.530 3
  21205900.188    -1712485.543 7  -1289696.328 2
  25031012.242     2973345.308 4   2208455.750 1
  22999256.313    -3586019.384 6  -2655987.875 1
  23972356.977    -2831843.240 5   -716238.303 1
  22931050.844     2931950.379 6   2177884.183 1
 90 10 10 12 16 15.0000000  0  6 02 06 11 13 09 18
  20969922.516      496586.081 7    376803.689 3
  21200892.656    -1738803.493 7  -1310203.814 2
  25040418.305     3022777.290 3   2246974.131 1
  22988568.148    -3642182.020 6  -2699750.952 1
  23963594.273    -2877900.284 5   -752126.888 1
  22940341.945     2980773.229 6   2215927.929 1
 90 10 10 12 16 30.0000000  0  6 02 06 11 13 09 18
  20971691.984      505885.589 7    384050.055 3
  21195892.773    -1765075.058 7  -1330675.163 2
  25049829.297     3072248.086 4   2285522.696 1
  22977888.492    -3698283.838 6  -2743466.655 1
  23954823.219    -2923966.660 4   -788022.779 1
  22949643.586     3029636.668 6   2254003.306 1
 90 10 10 12 16 45.0000000  0  6 02 06 11 13 09 18
  20973469.719      515227.442 7    391329.423 3
  21190902.000    -1791300.266 7  -1351110.376 2
  25059251.102     3121757.131 3   2324101.113 1
  22967224.820    -3754324.869 6  -2787134.938 1
  23946058.391    -2970042.480 5   -823925.998 1
  22958949.000     3078539.959 6   2292109.740 1
 90 10 10 12 17  0.0000000  0  6 02 06 11 13 09 18
  20975255.367      524611.065 7    398641.334 3
  21185919.148    -1817479.274 7  -1371509.598 2
  25068676.758     3171303.731 4   2362708.827 1
  22956573.305    -3810305.094 6  -2830755.876 1
  23937292.734    -3016128.070 5   -859836.840 1
  22968260.680     3127482.606 6   2330246.848 1
 90 10 10 12 17 15.0000000  0  6 02 06 11 13 09 18
  20977049.484      534037.175 7    405986.351 3
  21180948.531    -1843610.939 7  -1391871.927 2
  25078120.094     3220888.429 4   2401346.196 1
  22945931.813    -3866223.183 6  -2874328.415 1
  23928521.336    -3062222.166 5   -895754.280 1
  22977582.055     3176465.095 6   2368414.999 1
 90 10 10 12 17 30.0000000  0  6 02 06 11 13 09 18
  20978850.922      543508.198 7    413366.365 3
  21175983.266    -1869692.546 7  -1412195.249 2
  25087565.672     3270513.258 4   2440014.857 1
  22935302.344    -3922076.540 6  -2917850.488 1
  23919746.109    -3108322.555 5   -931676.660 1
  22986910.141     3225489.530 6   2406615.832 1
 90 10 10 12 17 45.0000000  0  6 02 06 11 13 09 18
  20980663.547      553027.246 7    420783.798 3
  21171030.883    -1895720.648 7  -1432476.882 2
  25097018.703     3320181.172 4   2478717.147 1
  22924688.539    -3977861.376 6  -2961319.166 1
  23910973.273    -3154425.564 5   -967601.082 1
  22996251.555     3274558.919 6   2444851.683 1
 90 10 10 12 18  0.0000000  0  6 02 06 11 13 09 18
  20982483.063      562591.914 7    428236.783 3
  21166089.359    -1921697.323 7  -1452718.447 2
  25106466.789     3369889.336 3   2517450.717 1
  22914086.180    -4033579.781 6  -3004736.098 1
  23902200.164    -3200533.391 5  -1003529.255 1
  23005593.617     3323670.375 6   2483120.318 1
 90 10 10 12 18 15.0000000  0  6 02 06 11 13 09 18
  20984311.414      572200.978 7    435724.366 3
  21161156.195    -1947623.427 7  -1472920.594 2
  25115937.383     3419636.277 3   2556214.568 1
  22903494.641    -4089232.733 6  -3048102.024 1
  23893422.586    -3246647.231 5  -1039462.101 1
  23014948.031     3372822.430 6   2521420.590 1
 90 10 10 12 18 30.0000000  0  5 02 06 13 09 18
  20986148.156      581851.571 7    443244.309 3
  21156230.727    -1973501.711 7  -1493085.490 2
  22892918.898    -4144822.695 6  -3091418.839 1
  23884646.117    -3292769.583 5  -1075401.602 1
  23024310.781     3422011.393 6   2559749.613 1
 90 10 10 12 18 45.0000000  0  5 02 06 13 09 18
  20987991.344      591540.507 7    450794.121 3
  21151314.133    -1999334.882 7  -1513215.227 2
  22882352.203    -4200352.125 6  -3134688.522 1
  23875869.547    -3338903.263 5  -1111349.907 1
  23033672.648     3471234.464 6   2598105.238 1
 90 10 10 12 19  0.0000000  0  5 02 06 13 09 18
  20989843.344      601271.976 7    458377.082 3
  21146407.102    -2025118.215 7  -1533306.133 2
  22871793.742    -4255816.407 6  -3177907.442 1
  23867084.352    -3385044.097 5  -1147303.796 1
  23043049.602     3520495.372 6   2636490.317 1
 90 10 10 12 19 15.0000000  0  5 02 06 13 09 18
  20991711.094      611088.021 7    466025.947 3
  21141519.758    -2050809.727 7  -1553325.486 3
  22861262.422    -4311173.428 6  -3221042.752 1
  23858316.977    -3431149.874 5  -1183230.343 1
  23052438.359     3569835.745 6   2674937.344 1
 90 10 10 12 19 30.0000000  0  5 02 06 13 09 18
  20993589.695      620958.118 7    473716.926 3
  21136643.000    -2076439.490 7  -1573296.727 2
  22850743.680    -4366452.818 6  -3264117.589 1
  23849540.523    -3477250.701 5  -1219153.035 1
  23061836.633     3619224.757 6   2713422.253 1
 90 10 10 12 19 45.0000000  0  5 02 06 13 09 18
  20995473.992      630861.419 7    481433.779 3
  21131772.484    -2102027.973 7  -1593235.796 2
  22840233.813    -4421675.269 6  -3307148.036 1
  23840771.680    -3523367.301 5  -1255088.066 1
  23071240.930     3668641.165 6   2751928.525 1
 90 10 10 12 20  0.0000000  0  5 02 06 13 09 18
  20997365.047      640799.726 7    489177.909 3
  21126911.430    -2127572.930 7  -1613140.954 2
  22829733.906    -4476838.330 6  -3350132.245 1
  23831986.336    -3569497.545 5  -1291033.724 1
  23080653.063     3718086.647 6   2790457.441 1
 90 10 10 12 20 15.0000000  0  5 02 06 13 09 18
  20999263.828      650780.230 7    496954.918 3
  21122060.352    -2153067.128 7  -1633006.562 2
  22819249.625    -4531934.603 6  -3393064.378 1
  23823211.750    -3615634.001 5  -1326984.169 1
  23090065.234     3767568.061 6   2829014.353 1
 90 10 10 12 20 30.0000000  0  5 02 06 13 09 18
  21001170.391      660798.780 7    504761.580 3
  21117217.875    -2178514.048 7  -1652835.327 2
  22808778.016    -4586967.693 6  -3435947.287 1
  23814426.914    -3661780.568 5  -1362942.542 1
  23099489.727     3817081.055 6   2867595.887 1
 90 10 10 12 20 45.0000000  0  5 02 06 13 09 18
  21003085.016      670858.964 7    512600.680 3
  21112383.664    -2203909.981 7  -1672624.355 2
  22798319.039    -4641933.569 6  -3478777.832 1
  23805642.180    -3707933.567 5  -1398905.909 1
  23108917.344     3866628.777 6   2906204.470 1
 90 10 10 12 21  0.0000000  0  5 02 06 13 09 18
  21005007.680      680964.021 7    520474.745 3
  21107564.039    -2229251.488 7  -1692370.979 2
  22787873.078    -4696828.784 6  -3521553.300 1
  23796863.859    -3754089.613 5  -1434871.660 1
  23118350.555     3916214.064 6   2944842.332 1
 90 10 10 12 21 15.0000000  0  5 02 06 13 09 18
  21006940.062      691111.922 7    528382.197 3
  21102750.203    -2254540.175 7  -1712076.448 2
  22777439.836    -4751654.951 6  -3564274.967 1
  23788077.953    -3800250.432 5  -1470841.114 1
  23127792.828     3965834.592 6   2983507.651 1
 90 10 10 12 21 30.0000000  0  5 02 06 13 09 18
  21008878.828      701299.602 7    536320.642 3
  21097949.281    -2279778.656 7  -1731742.788 2
  22767019.758    -4806414.489 6  -3606944.727 1
  23779295.594    -3846418.602 5  -1506816.317 1
  23137243.508     4015487.313 6   3022198.053 1
 90 10 10 12 21 45.0000000  0  5 02 06 13 09 18
  21010824.266      711526.852 7    544289.931 3
  21093155.008    -2304967.001 7  -1751370.058 3
  22756612.727    -4861107.406 6  -3649562.562 1
  23770504.617    -3892594.244 5  -1542797.318 1
  23146697.883     4065171.697 6   3060913.138 1
 90 10 10 12 22  0.0000000  0  5 02 06 13 09 18
  21012779.586      721799.675 7    552294.730 3
  21088372.148    -2330098.554 7  -1770953.080 2
  22746219.664    -4915727.043 6  -3692123.295 1
  23761721.258    -3938771.184 5  -1578779.351 1
  23156159.609     4114893.178 6   3099657.127 1
 90 10 10 12 22 15.0000000  0  5 02 06 13 09 18
  21014742.891      732118.510 7    560335.378 3
  21083600.695    -2355172.795 7  -1790491.440 3
  22735839.422    -4970272.692 6  -3734626.401 1
  23752924.430    -3984948.624 5  -1614761.754 1
  23165629.547     4164652.096 6   3138430.265 1
 90 10 10 12 22 30.0000000  0  5 02 06 13 09 18
  21016713.617      742474.749 7    568405.167 3
  21078838.609    -2380197.914 7  -1809991.530 3
  22725470.688    -5024752.464 6  -3777078.131 1
  23744137.359    -4031134.926 5  -1650751.068 1
  23175102.797     4214439.703 6   3177225.774 1
 90 10 10 12 22 45.0000000  0  5 02 06 13 09 18
  21018693.273      752875.324 7    576509.503 3
  21074086.797    -2405166.774 7  -1829447.780 3
  22715118.945    -5079159.162 6  -3819472.952 1
  23735345.156    -4077323.066 5  -1686741.819 1
  23184583.219     4264262.092 6   3216048.377 1
 90 10 10 12 23  0.0000000  0  5 02 06 13 09 18
  21020679.984      763316.128 7    584645.189 3
  21069345.555    -2430083.049 7  -1848863.055 3
  22704777.242    -5133496.278 6  -3861813.549 1
  23726556.961    -4123516.789 5  -1722736.905 1
  23194068.320     4314115.187 6   3254894.911 1
 90 10 10 12 23 15.0000000  0  5 02 06 13 09 18
  21022673.023      773798.046 7    592812.908 3
  21064615.461    -2454945.445 7  -1868236.349 2
  22694450.039    -5187762.596 6  -3904098.978 1
  23717767.203    -4169715.033 5  -1758735.551 1
  23203564.883     4363999.660 6   3293765.894 1
 90 10 10 12 23 30.0000000  0  5 02 06 13 09 18
  21024676.844      784323.361 7    601014.451 3
  21059894.477    -2479751.595 7  -1887565.811 3
  22684137.492    -5241955.476 6  -3946327.179 1
  23708978.828    -4215915.206 5  -1794735.684 1
  23213060.219     4413917.294 6   3332662.731 1
 90 10 10 12 23 45.0000000  0  5 02 06 13 09 18
  21026687.359      794890.838 7    609248.846 3
  21055184.492    -2504502.417 7  -1906852.156 2
  22673840.508    -5296075.727 6  -3988498.775 1
  23700184.070    -4262118.614 5  -1830738.316 1
  23222564.898     4463866.419 5   3371584.091 1
 90 10 10 12 24  0.0000000  0  5 02 06 13 09 18
  21028708.219      805503.346 7    617518.332 3
  21050486.516    -2529194.638 7  -1926092.843 2
  22663559.195    -5350120.168 6  -4030611.315 1
  23691399.781    -4308321.875 5  -1866740.829 1
  23232076.641     4513850.062 5   3410532.357 1
 90 10 10 12 24 15.0000000  0  5 02 06 13 09 18
  21030735.680      816158.812 7    625821.291 3
  21045797.484    -2553829.806 7  -1945289.072 3
  22653286.453    -5404090.586 6  -4072666.173 1
  23682605.344    -4354526.972 5  -1902744.794 1
  23241597.055     4563865.444 6   3449505.336 1
 90 10 10 12 24 30.0000000  0  5 02 06 13 09 18
  21032771.359      826858.475 7    634158.684 3
  21041121.680    -2578406.423 7  -1964439.681 2
  22643029.820    -5457985.032 6  -4114661.820 1
  23673810.664    -4400732.112 5  -1938748.782 1
  23251121.844     4613913.626 6   3488503.884 1
 90 10 10 12 24 45.0000000  0  5 02 06 13 09 18
  21034815.617      837599.231 7    642528.105 3
  21036454.836    -2602927.610 7  -1983547.096 3
  22632789.156    -5511806.437 6  -4156600.571 1
  23665014.930    -4446940.606 5  -1974755.384 1
  23260650.250     4663991.171 6   3527525.311 1
 90 10 10 12 25  0.0000000  0  5 02 06 13 09 18
  21036867.438      848379.598 7    650928.387 3
  21031798.117    -2627394.245 7  -2002611.998 2
  22622558.180    -5565555.820 6  -4198483.202 1
  23656217.039    -4493153.282 5  -2010765.250 1
  23270184.352     4714096.455 6   3566568.359 1
 90 10 10 12 25 15.0000000  0  5 02 06 13 09 18
  21038926.148      859200.319 7    659360.111 3
  21027152.602    -2651805.186 7  -2021633.506 2
  22612343.680    -5619231.941 6  -4240308.715 1
  23647426.750    -4539369.552 5  -2046777.926 1
  23279724.313     4764229.850 6   3605633.316 1
 90 10 10 12 25 30.0000000  0  5 02 06 13 09 18
  21040993.484      870065.367 7    667826.380 3
  21022519.063    -2676156.193 7  -2040608.311 3
  22602148.367    -5672830.285 6  -4282073.638 1
  23638630.484    -4585584.788 5  -2082789.800 1
  23289270.258     4814395.119 6   3644723.111 1
 90 10 10 12 25 45.0000000  0  5 02 06 13 09 18
  21043067.867      880971.599 7    676324.741 3
  21017895.453    -2700450.058 7  -2059538.586 3
  22591963.289    -5726353.698 6  -4323780.178 1
  23629840.469    -4631802.140 5  -2118803.294 1
  23298820.086     4864588.875 6   3683835.083 1
 90 10 10 12 26  0.0000000  0  5 02 06 13 09 18
  21045153.063      891920.005 7    684855.960 3
  21013285.742    -2724685.547 7  -2078423.382 3
  22581791.828    -5779800.824 6  -4365427.265 1
  23621044.398    -4678020.229 5  -2154817.393 1
  23308377.055     4914811.529 6   3722969.591 1
 90 10 10 12 26 15.0000000  0  5 02 06 13 09 18
  21047241.695      902903.512 7    693414.531 3
  21008682.422    -2748869.376 7  -2097267.918 3
  22571634.258    -5833178.512 6  -4407020.262 1
  23612246.953    -4724246.106 5  -2190837.535 1
  23317941.852     4965055.471 6   3762120.671 1
 90 10 10 12 26 30.0000000  0  5 02 06 13 09 18
  21049340.805      913929.296 7    702006.049 3
  21004091.555    -2772994.216 7  -2116066.487 3
  22561491.695    -5886478.904 6  -4448553.017 1
  23603448.625    -4770472.354 5  -2226857.989 1
  23327507.180     5015327.853 6   3801293.921 1
 90 10 10 12 26 45.0000000  0  5 02 06 13 09 18
  21051447.195      925001.528 7    710633.759 3
  20999512.805    -2797055.459 7  -2134815.505 3
  22551363.867    -5939697.644 6  -4490022.142 1
  23594651.539    -4816694.428 5  -2262875.190 1
  23337079.828     5065632.711 6   3840492.478 1
 90 10 10 12 27  0.0000000  0  5 02 06 13 09 18
  21053560.961      936112.876 7    719291.948 3
  20994945.453    -2821060.051 7  -2153520.375 3
  22541249.375    -5992841.524 6  -4531432.950 1
  23585857.242    -4862919.411 5  -2298894.623 1
  23346654.891     5115962.239 5   3879710.288 1
 90 10 10 12 27 15.0000000  0  5 02 06 13 09 18
  21055682.828      947263.672 7    727980.879 3
  20990388.563    -2845007.195 7  -2172180.480 3
  22531151.859    -6045909.685 6  -4572784.746 1
  23577059.836    -4909146.743 5  -2334915.944 1
  23356239.734     5166316.400 6   3918947.235 1
 90 10 10 12 27 30.0000000  0  5 02 06 13 09 18
  21057812.563      958453.163 7    736699.956 3
  20985842.984    -2868897.415 7  -2190796.225 3
  22521066.867    -6098902.641 6  -4614077.930 1
  23568267.117    -4955376.928 5  -2370939.449 1
  23365824.938     5216694.315 6   3958202.728 1
 90 10 10 12 27 45.0000000  0  5 02 06 13 09 18
  21059951.656      969686.129 7    745452.914 3
  20981307.500    -2892725.900 7  -2209363.871 3
  22510999.320    -6151815.382 6  -4655308.622 1
  23559464.047    -5001605.081 5  -2406961.378 1
  23375419.203     5267100.335 6   3997480.122 1
 90 10 10 12 28  0.0000000  0  5 02 06 13 09 18
  21062095.438      980959.529 7    754237.381 3
  20976784.383    -2916494.989 7  -2227885.228 3
  22500942.953    -6204650.396 6  -4696478.738 1
  23550670.828    -5047833.813 5  -2442983.755 1
  23385018.617     5317531.384 6   4036777.003 1
 90 10 10 12 28 15.0000000  0  5 02 06 13 09 18
  21064249.008      992274.251 7    763054.043 3
  20972273.422    -2940203.654 7  -2246359.499 3
  22490903.258    -6257406.454 6  -4737587.349 1
  23541873.984    -5094062.006 5  -2479005.711 1
  23394619.039     5367987.705 6   4076093.583 1
 90 10 10 12 28 30.0000000  0  5 02 06 13 09 18
  21066409.938     1003629.615 7    771902.377 3
  20967772.531    -2963852.216 7  -2264786.943 3
  22480881.891    -6310083.709 6  -4778634.535 1
  23533073.695    -5140290.091 5  -2515027.588 1
  23404224.484     5418468.312 6   4115429.084 1
 90 10 10 12 28 45.0000000  0  5 02 06 13 09 18
  21068578.773     1015024.209 7    780781.280 3
  20963284.539    -2987441.818 7  -2283168.442 3
  22470872.047    -6362683.379 6  -4819621.275 1
  23524280.773    -5186519.359 5  -2551050.381 1
  23413835.023     5468971.229 6   4154781.953 1
 90 10 10 12 29  0.0000000  0  5 02 06 13 09 18
  21070754.727     1026460.450 7    789692.635 3
  20958805.320    -3010969.642 7  -2301501.804 3
  22460876.828    -6415202.553 6  -4860545.286 1
  23515478.172    -5232747.088 5  -2587071.953 1
  23423448.820     5519499.044 6   4194154.266 1
 90 10 10 12 29 15.0000000  0  5 02 06 13 09 18
  21072939.055     1037942.299 7    798639.529 3
  20954344.414    -3034431.446 7  -2319783.725 3
  22450900.727    -6467636.774 7  -4901403.108 1
  23506684.672    -5278969.119 5  -2623089.125 1
  23433068.805     5570055.409 5   4233548.793 1
 90 10 10 12 29 30.0000000  0  5 02 06 13 09 18
  21075132.734     1049465.471 7    807618.621 3
  20949888.391    -3057830.988 7  -2338017.130 3
  22440938.516    -6519989.987 6  -4942197.801 1
  23497889.109    -5325189.343 5  -2659104.863 1
  23442694.852     5620635.788 5   4272962.056 1
 90 10 10 12 29 45.0000000  0  5 02 06 13 09 18
  21077334.188     1061036.371 7    816634.901 3
  20945449.344    -3081161.723 7  -2356196.916 3
  22430989.609    -6572255.554 6  -4982924.203 1
  23489099.484    -5371401.201 5  -2695114.110 1
  23452324.461     5671246.073 6   4312398.588 1
 90 10 10 12 30  0.0000000  0  5 02 06 13 09 18
  21079542.531     1072648.021 7    825682.936 3
  20941022.039    -3104430.317 7  -2374328.281 3
  22421059.711    -6624440.096 6  -5023587.464 1
  23480301.711    -5417611.442 5  -2731122.072 1
  23461959.508     5721878.821 6   4351852.641 1
 90 10 10 12 30 15.0000000  0  5 02 06 13 09 18
  21081760.063     1084295.873 7    834759.181 3
  20936605.031    -3127641.079 7  -2392414.581 3
  22411145.266    -6676547.639 6  -5064190.717 1
  23471509.391    -5463824.505 5  -2767132.235 1
  23471598.422     5772529.446 6   4391320.630 1
 90 10 10 12 30 30.0000000  0  5 02 06 13 09 18
  21083983.906     1095982.699 7    843865.796 3
  20932199.609    -3150790.873 7  -2410453.374 3
  22401244.727    -6728575.021 6  -5104731.519 1
  23462713.922    -5510037.064 5  -2803142.009 1
  23481241.516     5823200.277 6   4430804.384 1
 90 10 10 12 30 45.0000000  0  5 02 06 13 09 18
  21086216.898     1107713.574 7    853006.738 3
  20927808.109    -3173874.246 7  -2428440.408 3
  22391361.594    -6780516.602 7  -5145205.437 1
  23453920.281    -5556243.972 5  -2839147.378 1
  23490890.172     5873896.059 6   4470307.528 1
 90 10 10 12 31  0.0000000  0  5 02 06 13 09 18
  21088457.891     1119493.976 7    862186.264 3
  20923427.773    -3196885.101 7  -2446370.936 3
  22381493.305    -6832366.716 6  -5185608.116 1
  23445132.914    -5602439.383 5  -2875143.811 1
  23500540.758     5924622.109 6   4509834.310 1
 90 10 10 12 31 15.0000000  0  5 02 06 13 09 18
  21090707.117     1131310.420 7    871393.884 3
  20919062.148    -3219836.738 7  -2464255.318 3
  22371641.352    -6884138.300 6  -5225949.594 1
  23436340.141    -5648636.505 5  -2911141.559 1
  23510196.625     5975364.809 5   4549374.021 1
 90 10 10 12 31 30.0000000  0  5 02 06 13 09 18
  21092963.508     1143165.193 7    880631.368 3
  20914704.453    -3242726.786 7  -2482091.715 3
  22361807.898    -6935828.943 7  -5266227.992 1
  23427551.391    -5694832.830 5  -2947138.669 1
  23519856.242     6026125.713 5   4588927.963 1
 90 10 10 12 31 45.0000000  0  5 02 06 13 09 18
  21095225.898     1155061.013 7    889900.832 3
  20910361.133    -3265552.131 7  -2499877.693 3
  22351985.805    -6987435.551 7  -5306440.915 1
  23418764.000    -5741025.651 5  -2983133.073 1
  23529520.852     6076907.390 6   4628498.071 1
 90 10 10 12 32  0.0000000  0  5 02 06 13 09 18
  21097498.070     1166999.796 7    899203.779 3
  20906030.219    -3288310.271 7  -2517611.301 3
  22342181.195    -7038955.668 7  -5346586.441 1
  23409971.570    -5787212.402 5  -3019122.717 1
  23539188.031     6127711.494 6   4668085.620 1
 90 10 10 12 32 15.0000000  0  5 02 06 13 09 18
  21099778.508     1178981.024 7    908539.796 3
  20901712.109    -3311001.748 7  -2535292.961 3
  22332393.375    -7090389.428 7  -5386664.681 1
  23401185.750    -5833393.674 5  -3055108.106 1
  23548859.586     6178537.293 5   4707690.108 1
 90 10 10 12 32 30.0000000  0  5 02 06 13 09 18
  21102065.094     1190998.598 7    917904.136 3
  20897405.984    -3333632.273 7  -2552927.130 3
  22322623.094    -7141742.645 7  -5426680.138 1
  23392393.984    -5879575.181 5  -3091093.671 1
  23558532.313     6229378.125 6   4747306.307 1
 90 10 10 12 32 45.0000000  0  5 02 06 13 09 18
  21104359.289     1203058.429 7    927301.403 3
  20893113.953    -3356195.504 7  -2570508.864 3
  22312864.625    -7193008.841 7  -5466627.809 1
  23383603.609    -5925750.763 5  -3127074.629 1
  23568212.273     6280239.669 5   4786938.630 1
 90 10 10 12 33  0.0000000  0  5 02 06 13 09 18
  21106662.359     1215158.365 7    936729.918 3
  20888831.664    -3378693.428 7  -2588039.708 3
  22303126.523    -7244190.002 6  -5506509.216 1
  23374818.539    -5971922.490 5  -3163052.572 1
  23577895.242     6331119.453 6   4826585.179 1
 90 10 10 12 33 15.0000000  0  5 02 06 13 09 18
  21108973.602     1227300.318 7    946191.178 3
  20884561.734    -3401123.699 7  -2605517.835 3
  22293401.742    -7295283.787 6  -5546322.521 1
  23366035.508    -6018088.041 5  -3199025.698 1
  23587580.344     6382019.266 6   4866247.348 1
 90 10 10 12 33 30.0000000  0  5 02 06 13 09 18
  21111291.734     1239487.068 7    955687.344 3
  20880308.453    -3423483.384 7  -2622940.961 3
  22283698.789    -7346287.043 7  -5586065.287 1
  23357252.313    -6064244.442 5  -3234991.728 1
  23597271.680     6432941.248 6   4905926.774 1
 90 10 10 12 33 45.0000000  0  5 02 06 13 09 18
  21113618.969     1251713.678 7    965214.569 3
  20876066.688    -3445776.878 7  -2640312.506 3
  22274010.648    -7397204.280 7  -5625741.043 1
  23348468.688    -6110396.356 5  -3270954.242 1
  23606965.859     6483880.627 6   4945619.771 1
 90 10 10 12 34  0.0000000  0  5 02 06 13 09 18
  21115952.320     1263979.431 7    974772.298 3
  20871836.578    -3468004.769 7  -2657632.928 3
  22264334.734    -7448035.953 7  -5665350.132 1
  23339689.461    -6156544.226 5  -3306913.602 1
  23616661.133     6534836.017 5   4985325.252 1
 90 10 10 12 34 15.0000000  0  5 02 06 13 09 18
  21118295.117     1276284.679 7    984360.800 3
  20867618.086    -3490166.033 7  -2674901.443 3
  22254678.133    -7498781.274 7  -5704891.911 1
  23330906.367    -6202687.331 5  -3342869.242 1
  23626361.875     6585807.652 5   5025043.356 1
 90 10 10 12 34 30.0000000  0  5 02 06 13 09 18
  21120643.250     1288627.776 7    993978.794 3
  20863414.336    -3512262.312 7  -2692119.314 3
  22245037.383    -7549441.523 7  -5744367.417 1
  23322126.031    -6248827.205 5  -3378822.390 1
  23636063.609     6636793.250 5   5064772.356 1
 90 10 10 12 34 45.0000000  0  5 02 06 13 09 18
  21123000.141     1301009.402 7   1003626.811 3
  20859222.328    -3534292.525 7  -2709285.709 3
  22235416.844    -7600015.533 7  -5783775.702 1
  23313346.305    -6294962.868 5  -3414772.226 1
  23645768.766     6687793.335 5   5104512.665 1
 90 10 10 12 35  0.0000000  0  5 02 06 13 09 18
  21125363.180     1313430.296 7   1013305.425 3
  20855041.773    -3556255.524 7  -2726399.725 3
  22225808.219    -7650502.292 7  -5823116.011 1
  23304567.625    -6341093.392 5  -3450718.093 1
  23655474.008     6738808.398 5   5144264.606 1
 90 10 10 12 35 15.0000000  0  5 02 06 13 09 18
  21127732.133     1325890.964 7   1023015.030 3
  20850876.570    -3578150.596 7  -2743460.806 3
  22216216.289    -7700900.839 7  -5862387.586 1
  23295793.234    -6387217.734 5  -3486659.120 1
  23665184.195     6789838.493 5   5184028.280 1
 90 10 10 12 35 30.0000000  0  5 02 06 13 09 18
  21130111.477     1338389.365 7   1032754.039 3
  20846720.992    -3599979.171 7  -2760470.082 3
  22206643.922    -7751212.959 7  -5901591.817 1
  23287014.438    -6433337.829 5  -3522596.830 1
  23674900.445     6840881.738 5   5223802.214 1
 90 10 10 12 35 45.0000000  0  5 02 06 13 09 18
  21132499.813     1350931.979 7   1042527.498 3
  20842581.570    -3621734.622 7  -2777422.378 3
  22197085.375    -7801431.726 7  -5940723.304 1
  23278241.328    -6479446.913 5  -3558525.965 1
  23684616.219     6891944.061 5   5263590.986 1
 90 10 10 12 36  0.0000000  0  5 02 06 13 09 18
  21134893.313     1363510.437 7   1052328.887 3
  20838454.781    -3643425.118 7  -2794324.052 3
  22187547.320    -7851565.119 7  -5979788.265 1
  23269468.664    -6525553.203 5  -3594452.918 1
  23694336.742     6943016.697 5   5303387.803 1
 90 10 10 12 36 15.0000000  0  5 02 06 13 09 18
  21137293.492     1376127.266 7   1062160.178 3
  20834338.508    -3665047.584 7  -2811172.722 3
  22178023.953    -7901610.249 7  -6018784.458 1
  23260697.773    -6571653.780 5  -3630375.423 1
  23704057.633     6994101.914 5   5343194.441 1
 90 10 10 12 36 30.0000000  0  5 02 06 13 09 18
  21139701.008     1388781.412 7   1072020.545 3
  20830238.164    -3686602.966 7  -2827969.118 3
  22168513.000    -7951567.969 6  -6057712.524 1
  23251919.719    -6617749.540 5  -3666294.174 1
  23713779.781     7045198.429 5   5383009.862 1
 90 10 10 12 36 45.0000000  0  5 02 06 13 09 18
  21142118.180     1401471.629 7   1081909.024 3
  20826148.883    -3708092.137 7  -2844713.914 3
  22159027.563    -8001439.201 7  -6096573.198 1
  23243151.383    -6663841.562 5  -3702210.024 1
  23723506.125     7096304.204 5   5422832.510 1
 90 10 10 12 37  0.0000000  0  5 02 06 13 09 18
  21144540.344     1414202.465 7   1091829.158 3
  20822072.203    -3729510.172 7  -2861403.290 3
  22149554.609    -8051219.020 7  -6135362.647 1
  23234383.727    -6709924.829 5  -3738119.039 1
  23733234.906     7147424.107 5   5462666.191 1
 90 10 10 12 37 15.0000000  0  5 02 06 13 09 18
  21146968.844     1426974.360 7   1101781.279 3
  20818010.859    -3750856.536 7  -2878036.805 3
  22140096.953    -8100906.505 7  -6174080.160 1
  23225616.828    -6755998.873 5  -3774020.893 1
  23742965.289     7198557.831 5   5502510.611 1
 90 10 10 12 37 30.0000000  0  5 02 06 13 09 18
  21149405.523     1439785.864 7   1111764.267 3
  20813962.039    -3772132.355 7  -2894615.358 3
  22130659.695    -8150502.814 7  -6212726.599 1
  23216851.438    -6802064.936 5  -3809916.496 1
  23752696.219     7249703.599 6   5542364.425 1
 90 10 10 12 37 45.0000000  0  5 02 06 13 09 18
  21151853.250     1452643.962 7   1121783.560 3
  20809930.180    -3793330.007 7  -2911133.001 3
  22121242.828    -8200000.518 7  -6251296.227 1
  23208085.461    -6848115.491 5  -3845800.027 1
  23762433.430     7300868.260 6   5582232.937 1
 90 10 10 12 38  0.0000000  0  5 02 06 13 09 18
  21154307.688     1465541.238 7   1131833.382 3
  20805908.188    -3814456.796 7  -2927595.426 3
  22111838.039    -8249406.555 7  -6289794.409 1
  23199323.953    -6894157.688 5  -3881677.054 1
  23772170.938     7352044.070 5   5622110.203 1
 90 10 10 12 38 15.0000000  0  5 02 06 13 09 18
  21156769.828     1478480.432 7   1141915.864 3
  20801901.203    -3835509.589 7  -2944000.194 3
  22102456.695    -8298717.936 7  -6328218.844 1
  23190564.305    -6940188.678 5  -3917545.327 1
  23781913.008     7403233.455 5   5661997.957 1
 90 10 10 12 38 30.0000000  0  5 02 06 13 09 18
  21159239.742     1491455.439 7   1152026.250 3
  20797909.117    -3856493.931 7  -2960351.625 3
  22093088.344    -8347940.509 7  -6366574.074 1
  23181807.859    -6986214.180 5  -3953409.338 1
  23791655.727     7454430.163 5   5701891.464 1
 90 10 10 12 38 45.0000000  0  5 02 06 13 09 18
  21161715.297     1504466.043 7   1162164.382 3
  20793928.773    -3877410.193 7  -2976650.005 3
  22083739.375    -8397074.170 7  -6404860.017 1
  23173051.047    -7032234.280 5  -3989269.138 1
  23801398.484     7505633.623 5   5741790.224 1
 90 10 10 12 39  0.0000000  0  5 02 06 13 09 18
  21164200.063     1517518.674 7   1172335.259 3
  20789962.695    -3898251.434 7  -2992889.928 3
  22074407.438    -8446112.079 7  -6443071.353 1
  23164293.953    -7078242.292 5  -4025119.524 1
  23811145.680     7556849.847 5   5781698.938 1
 90 10 10 12 39 15.0000000  0  5 02 06 13 09 18
  21166692.336     1530616.261 7   1182541.173 3
  20786012.172    -3919014.290 7  -3009068.771 3
  22065094.883    -8495050.680 7  -6481205.307 1
  23155543.680    -7124234.950 5  -4060957.937 1
  23820892.609     7608081.264 5   5821619.503 1
 90 10 10 12 39 30.0000000  0  5 02 06 13 09 18
  21169192.203     1543749.092 7   1192774.545 3
  20782074.117    -3939708.055 7  -3025193.773 3
  22055799.977    -8543899.515 7  -6519269.316 1
  23146794.781    -7170221.525 5  -4096791.619 1
  23830643.922     7659318.109 5   5861544.256 1
 90 10 10 12 39 45.0000000  0  5 02 06 13 09 18
  21171698.773     1556924.303 7   1203040.937 3
  20778150.297    -3960325.551 7  -3041259.351 3
  22046523.531    -8592651.224 7  -6557257.627 1
  23138041.781    -7216194.930 5  -4132615.027 1
  23840396.492     7710567.109 5   5901478.525 1
 90 10 10 12 40  0.0000000  0  5 02 06 13 09 18
  21174214.539     1570147.385 7   1213344.631 3
  20774242.313    -3980861.100 7  -3057261.075 3
  22037264.531    -8641300.167 7  -6595165.874 1
  23129298.039    -7262149.445 5  -4168423.717 1
  23850150.813     7761833.567 5   5941426.388 1
 90 10 10 12 40 15.0000000  0  5 02 06 13 09 18
  21176734.789     1583401.293 7   1223672.350 3
  20770348.242    -4001331.287 7  -3073211.856 3
  22028024.242    -8689862.717 7  -6633006.802 1
  23120554.742    -7308101.665 5  -4204230.612 1
  23859907.906     7813100.026 5   5981374.220 1
 90 10 10 12 40 30.0000000  0  5 02 06 13 09 18
  21179265.031     1596696.578 7   1234032.312 3
  20766465.977    -4021724.932 7  -3089103.001 3
  22018799.984    -8738327.798 7  -6670771.779 1
  23111810.625    -7354040.679 5  -4240027.223 1
  23869665.781     7864376.904 5   6021330.182 1
 90 10 10 12 40 45.0000000  0  5 02 06 13 09 18
  21181803.484     1610030.594 7   1244422.446 3
  20762599.313    -4042044.685 7  -3104936.572 3
  22009596.203    -8786698.034 7  -6708462.844 1
  23103071.891    -7399968.945 5  -4275815.432 1
  23879422.398     7915660.866 5   6061291.685 1
 90 10 10 12 41  0.0000000  0  5 02 06 13 09 18
  21184348.438     1623402.319 7   1254841.965 3
  20758747.195    -4062291.237 7  -3120713.097 3
  22000410.820    -8834974.055 7  -6746080.496 1
  23094332.555    -7445887.268 5  -4311595.925 1
  23889183.500     7966950.551 5   6101257.632 1
 90 10 10 12 41 15.0000000  0  5 02 06 13 09 18
  21186901.563     1636816.261 7   1265294.384 3
  20754909.430    -4082459.677 7  -3136428.760 3
  21991242.977    -8883151.128 7  -6783621.054 1
  23085599.266    -7491790.869 5  -4347364.957 1
  23898944.188     8018250.516 5   6141231.603 1
 90 10 10 12 41 30.0000000  0  5 02 06 13 09 18
  21189460.969     1650267.429 7   1275775.813 3
  20751084.758    -4102554.738 7  -3152087.242 3
  21982090.914    -8931233.827 7  -6821088.072 1
  23076865.836    -7537684.540 5  -4383126.242 1
  23908709.055     8069555.117 5   6181209.196 1
 90 10 10 12 41 45.0000000  0  5 02 06 13 09 18
  21192029.695     1663762.055 7   1286291.100 3
  20747276.438    -4122569.797 7  -3167683.388 3
  21972961.336    -8979215.396 7  -6858476.282 1
  23068140.250    -7583561.601 5  -4418874.587 1
  23918475.859     8120870.533 5   6221195.181 1
 90 10 10 12 42  0.0000000  0  5 02 06 13 09 18
  21194603.969     1677290.987 7   1296833.119 3
  20743482.164    -4142513.643 7  -3183224.039 3
  21963848.625    -9027104.676 7  -6895792.587 1
  23059405.648    -7629430.975 5  -4454616.922 1
  23928240.938     8172187.364 5   6261182.290 1
 90 10 10 12 42 15.0000000  0  5 02 06 13 09 18
  21197186.594     1690862.818 7   1307408.566 3
  20739700.609    -4162377.540 7  -3198702.395 3
  21954756.094    -9074892.975 7  -6933030.200 1
  23050678.578    -7675283.842 5  -4490346.414 1
  23938002.164     8223513.663 3   6301176.778 1
 90 10 10 12 42 30.0000000  0  5 02 06 13 09 18
  21199776.805     1704475.083 7   1318015.522 3
  20735936.227    -4182163.694 7  -3214120.172 3
  21945679.867    -9122582.478 7  -6970190.824 1
  23041956.406    -7721122.617 5  -4526064.929 1
  23947774.344     8274846.731 5   6341176.466 1
 90 10 10 12 42 45.0000000  0  5 02 06 13 09 18
  21202373.992     1718119.456 7   1328647.501 3
  20732183.648    -4201879.844 7  -3229483.395 3
  21936619.320    -9170180.850 7  -7007280.446 1
  23033238.766    -7766955.167 5  -4561778.581 1
  23957539.703     8326177.896 4   6381174.785 1
 90 10 10 12 43  0.0000000  0  5 02 06 13 09 18
  21204975.344     1731798.478 7   1339306.471 3
  20728445.547    -4221523.163 7  -3244789.875 3
  21927582.500    -9217685.288 7  -7044296.860 1
  23024518.422    -7812778.414 5  -4597484.980 1
  23967311.031     8377509.730 4   6421173.572 1
 90 10 10 12 43 15.0000000  0  5 02 06 13 09 18
  21207587.961     1745522.411 7   1350000.444 3
  20724724.687    -4241083.358 7  -3260031.582 3
  21918562.422    -9265085.394 7  -7081231.982 1
  23015799.203    -7858582.007 5  -4633176.083 1
  23977080.297     8428851.731 5   6461180.252 1
 90 10 10 12 43 30.0000000  0  5 02 06 13 09 18
  21210207.273     1759286.680 7   1360725.839 3
  20721017.414    -4260564.381 7  -3275211.594 3
  21909562.281    -9312385.422 7  -7118089.122 1
  23007089.867    -7904370.514 5  -4668855.405 1
  23986850.398     8480199.136 5   6501191.203 1
 90 10 10 12 43 45.0000000  0  5 02 06 13 09 18
  21212832.219     1773083.806 7   1371476.840 3
  20717323.422    -4279973.669 7  -3290335.710 3
  21900575.680    -9359592.482 7  -7154873.817 1
  22998377.469    -7950150.947 6  -4704528.449 1
  23996620.664     8531544.065 5   6541200.214 1
 90 10 10 12 44  0.0000000  0  5 02 06 13 09 18
  21215466.031     1786922.998 7   1382260.623 3
  20713646.328    -4299301.542 7  -3305396.384 3
  21891614.891    -9406696.742 7  -7191578.425 1
  22989665.063    -7995913.952 5  -4740187.930 1
  24006394.977     8582895.513 5   6581214.252 1
 90 10 10 12 44 15.0000000  0  5 02 06 13 09 18
  21218107.125     1800803.142 7   1393076.316 3
  20709983.117    -4318548.933 7  -3320394.341 3
  21882669.297    -9453699.015 7  -7228203.547 1
  22980956.219    -8041660.305 5  -4775834.405 1
  24016165.922     8634251.799 5   6621232.136 1
 90 10 10 12 44 30.0000000  0  5 02 06 13 09 18
  21220755.938     1814721.421 7   1403921.725 3
  20706335.336    -4337718.301 7  -3335331.508 3
  21873746.469    -9500601.987 7  -7264751.283 1
  22972258.188    -8087392.487 5  -4811469.853 1
  24025939.305     8685610.175 5   6661251.651 1
 90 10 10 12 44 45.0000000  0  5 02 06 13 09 18
  21223411.711     1828677.379 7   1414796.486 3
  20702701.602    -4356809.565 7  -3350207.812 3
  21864837.078    -9547405.792 7  -7301221.767 1
  22963564.133    -8133110.444 6  -4847094.211 1
  24035715.078     8736970.027 5   6701272.251 1
 90 10 10 12 45  0.0000000  0  5 02 06 13 09 18
  21226073.656     1842670.580 7   1425700.272 3
  20699083.211    -4375823.073 7  -3365023.528 3
  21855950.961    -9594110.628 7  -7337615.119 1
  22954861.938    -8178814.609 5  -4882707.823 1
  24045489.211     8788330.420 5   6741293.323 1
 90 10 10 12 45 15.0000000  0  5 02 06 13 09 18
  21228743.188     1856700.858 7   1436632.953 3
  20695480.758    -4394758.676 7  -3379778.536 3
  21847080.094    -9640716.328 7  -7373931.229 1
  22946168.453    -8224504.918 6  -4918310.634 1
  24055262.375     8839690.554 5   6781314.139 1
 90 10 10 12 45 30.0000000  0  5 02 06 13 09 18
  21231423.141     1870775.152 7   1447599.934 3
  20691894.023    -4413608.918 7  -3394467.030 3
  21838233.531    -9687215.318 7  -7410164.188 1
  22937478.609    -8270174.087 6  -4953896.995 1
  24065036.500     8891057.333 5   6821340.178 1
 90 10 10 12 45 45.0000000  0  5 02 06 13 09 18
  21234108.883     1884886.528 7   1458595.808 3
  20688320.938    -4432380.531 7  -3409094.256 3
  21829404.563    -9733614.151 7  -7446319.097 1
  22928790.234    -8315828.522 6  -4989471.871 1
  24074807.031     8942423.511 5   6861365.725 1
 90 10 10 12 46  0.0000000  0  5 02 06 13 09 18
  21236800.109     1899034.617 7   1469620.291 3
  20684764.984    -4451073.753 7  -3423660.396 3
  21820593.430    -9779913.186 7  -7482396.242 1
  22920104.125    -8361468.393 5  -5025035.372 1
  24084584.922     8993788.436 5   6901390.324 1
 90 10 10 12 46 15.0000000  0  5 02 06 13 09 18
  21239500.195     1913225.449 7   1480678.071 3
  20681222.820    -4469681.846 7  -3438160.203 3
  21811803.859    -9826106.154 7  -7518390.734 1
  22911421.727    -8407087.737 5  -5060582.893 1
  24094360.359     9045157.718 5   6941418.267 1
 90 10 10 12 46 30.0000000  0  5 02 06 13 09 18
  21242208.109     1927452.414 7   1491764.011 3
  20677696.172    -4488211.539 7  -3452598.919 3
  21803030.687    -9872199.450 7  -7554307.570 1
  22902747.898    -8452692.749 6  -5096119.243 1
  24104136.930     9096524.436 5   6981444.262 1
 90 10 10 12 46 45.0000000  0  5 02 06 13 09 18
  21244920.000     1941708.270 7   1502872.463 3
  20674184.156    -4506669.717 7  -3466981.910 3
  21794279.336    -9918199.799 7  -7590151.982 1
  22894064.016    -8498290.293 6  -5131649.786 1
  24113908.039     9147881.057 5   7021462.321 1
 90 10 10 12 47  0.0000000  0  5 02 06 13 09 18
  21247639.320     1956003.191 7   1514011.360 3
  20670687.633    -4525045.780 7  -3481300.913 3
  21785540.023    -9964096.590 7  -7625915.694 1
  22885395.781    -8543870.132 6  -5167166.532 1
  24123682.469     9199237.497 5   7061480.306 1
 90 10 10 12 47 15.0000000  0  5 02 06 13 09 18
  21250370.008     1970342.115 7   1525184.542 3
  20667206.859    -4543334.453 7  -3495551.820 3
  21776831.289   -10009884.581 7  -7661594.616 1
  22876726.906    -8589426.811 6  -5202665.221 1
  24133453.547     9250598.442 5   7101501.804 1
 90 10 10 12 47 30.0000000  0  5 02 06 13 09 18
  21253105.141     1984719.966 7   1536388.056 3
  20663742.688    -4561540.606 7  -3509738.431 3
  21768137.016   -10055568.643 7  -7697192.571 1
  22868061.484    -8634965.179 6  -5238149.641 1
  24143226.656     9301958.288 5   7141522.436 1
 90 10 10 12 47 45.0000000  0  5 02 06 13 09 18
  21255849.711     1999136.271 7   1547621.538 3
  20660292.359    -4579664.309 7  -3523860.789 3
  21759464.594   -10101148.978 7
  22859399.656    -8680485.617 6
  24153001.563     9353316.389 5   7181541.686 1
 90 10 10 12 48  0.0000000  0  5 02 06 13 09 18
  21258600.055     2013591.775 7   1558885.556 3
  20656860.859    -4597704.498 7  -3537918.075 3
  21750808.391   -10146624.384 7
  22850740.688    -8725986.904 6
  24162774.523     9404673.165 5   7221559.895 1
 90 10 10 12 48 15.0000000  0  5 02 06 13 09 18
  21261357.211     2028089.542 7   1570182.513 3
  20653444.109    -4615657.719 7  -3551907.593 3
  21742177.688   -10191991.539 7  -7803496.056 1
  22842085.125    -8771465.511 6  -5344513.476 1
  24172547.656     9456031.120 5   7261579.044 1
 90 10 10 12 48 30.0000000  0  5 02 06 13 09 18
  21264125.531     2042629.266 7   1581512.159 3
  20650045.352    -4633524.119 7  -3565829.460 3
  21733562.977   -10237250.236 7  -7838762.554 1
  22833435.211    -8816921.809 6  -5379933.950 1
  24182321.172     9507389.762 5   7301598.734 1
 90 10 10 12 48 45.0000000  0  5 02 06 13 09 18
  21266899.398     2057208.338 7   1592872.466 3
  20646659.414    -4651306.015 7  -3579685.479 3
  21724970.453   -10282402.920 7  -7873946.442 1
  22824786.172    -8862357.933 6  -5415338.703 1
  24192093.063     9558746.279 5   7341616.712 1
 90 10 10 12 49  0.0000000  0  5 02 06 13 09 18
  21269681.602     2071828.437 7   1604264.744 3
  20643293.977    -4669001.447 7  -3593474.122 3
  21716401.109   -10327447.952 7  -7909046.445 1
  22816145.563    -8907772.106 6  -5450726.349 1
  24201865.250     9610101.908 5   7381634.046 1
 90 10 10 12 49 15.0000000  0  5 02 06 13 09 18
  21272469.859     2086486.515 7   1615686.613 3
  20639940.992    -4686613.209 7  -3607197.572 3
  21707848.867   -10372388.049 7  -7944064.685 1
  22807510.781    -8953167.091 6  -5486099.037 1
  24211638.258     9661453.211 5   7421648.079 1
 90 10 10 12 49 30.0000000  0  5 02 06 13 09 18
  21275268.438     2101189.052 7   1627143.130 3
  20636607.281    -4704134.526 7  -3620850.540 3
  21699320.398   -10417216.351 7  -7978995.800 1
  22798873.070    -8998536.082 6  -5521451.472 1
  24221411.781     9712806.655 5   7461663.647 1
 90 10 10 12 49 45.0000000  0  5 02 06 13 09 18
  21278074.703     2115932.311 7   1638631.377 3
  20633289.867    -4721568.712 7  -3634435.617 3
  21690808.992   -10461936.060 7  -8013842.305 1
  22790241.633    -9043882.400 6  -5556786.243 1
  24231182.414     9764158.203 5   7501677.789 1
 90 10 10 12 50  0.0000000  0  5 02 06 13 09 18
  21280887.156     2130718.678 7   1650153.216 3
  20629989.359    -4738912.972 7  -3647950.621 3
  21682317.047   -10506544.510 7  -8048602.114 1
  22781624.211    -9089203.529 6  -5592101.386 1
  24240955.711     9815509.820 5   7541692.022 1
 90 10 10 12 50 15.0000000  0  5 02 06 13 09 18
  21283707.742     2145538.603 7   1661701.204 3
  20626704.469    -4756176.628 7  -3661402.818 3
  21673853.328   -10551051.112 7  -8083282.560 1
  22772999.898    -9134508.650 6  -5627404.058 1
  24250724.328     9866851.745 4   7581698.671 1
 90 10 10 12 50 30.0000000  0  5 02 06 13 09 18
  21286534.336     2160389.215 7   1673273.103 3
  20623434.484    -4773362.285 7  -3674794.233 3
  21665398.516   -10595458.177 7  -8117885.442 1
  22764379.906    -9179800.120 6  -5662696.089 1
  24260490.398     9918180.777 4   7621695.289 1
 90 10 10 12 50 45.0000000  0  5 02 06 13 09 18
  21289368.063     2175281.379 7   1684877.376 3
  20620180.281    -4790458.742 7  -3688116.140 3
  21656970.211   -10639754.763 7  -8152402.239 1
  22755769.969    -9225066.936 6  -5697968.904 1
  24270260.852     9969507.427 4   7661690.013 1
 90 10 10 12 51  0.0000000  0  5 02 06 13 09 18
  21292208.313     2190209.408 7   1696509.596 3
  20616943.406    -4807471.447 7  -3701372.789 2
  21648563.930   -10683946.504 7  -8186837.344 1
  22747154.352    -9270314.703 6  -5733226.885 1
  24280022.656    10020825.355 4   7701677.938 1
 90 10 10 12 51 15.0000000  0  5 02 06 13 09 18
  21295056.406     2205178.201 7   1708173.580 3
  20613722.914    -4824395.106 7  -3714560.056 3
  21640170.258   -10728027.785 7  -8221186.369 1
  22738550.031    -9315538.264 6  -5768466.001 1
  24289787.570    10072139.425 3   7741662.918 1
 90 10 10 12 51 30.0000000  0  5 02 06 13 09 18
  21297912.508     2220183.696 7   1719866.162 3
  20610519.102    -4841233.738 7  -3727681.063 3
  21631804.000   -10772002.523 7  -8255452.377 1
  22729950.758    -9360741.088 6  -5803688.965 1
  24299550.547    10123445.242 3   7781641.385 1
 90 10 10 12 51 45.0000000  0  5 02 06 13 09 18
  21300774.453     2235223.281 7   1731585.307 3
  20607329.688    -4857989.436 7  -3740737.446 3
  21623457.320   -10815873.158 7  -8289637.274 1
  22721352.578    -9405925.843 6  -5838897.842 1
  24309310.617    10174739.821 4   7821611.114 1
 90 10 10 12 52  0.0000000  0  5 02 06 13 09 18
  21303643.563     2250306.098 7   1743338.145 3
  20604159.625    -4874652.583 7  -3753721.704 3
  21615127.227   -10859629.865 7  -8323733.390 1
  22712755.172    -9451082.811 6  -5874085.077 1
  24319074.883    10226032.068 5   7861579.112 1
 90 10 10 12 52 15.0000000  0  5 02 06 13 09 18
  21306521.422     2265423.737 7   1755118.114 3
  20601004.234    -4891231.807 7  -3766640.574 3
  21606823.648   -10903281.194 7  -8357747.390 1
  22704168.453    -9496220.438 6  -5909257.231 1
  24328831.930    10277313.258 4   7901538.476 1
 90 10 10 12 52 30.0000000  0  5 02 06 13 09 18
  21309406.211     2280579.430 7   1766927.730 3
  20597865.828    -4907723.329 7  -3779491.108 3
  21598540.469   -10946823.633 7  -8391676.540 1
  22695584.063    -9541334.978 6  -5944411.393 1
  24338590.375    10328586.084 4   7941491.247 1
 90 10 10 12 52 45.0000000  0  5 02 06 13 09 18
  21312297.523     2295769.048 7   1778763.791 3
  20594742.820    -4924130.896 7  -3792276.225 3
  21590268.547   -10990260.779 7  -8425523.653 1
  22687002.078    -9586430.327 6  -5979550.604 1
  24348343.984    10379846.571 3   7981434.456 1
 90 10 10 12 53  0.0000000  0  5 02 06 13 09 18
  21315193.836     2310994.801 7   1790628.003 3
  20591638.180    -4940452.062 7  -3804994.011 3
  21582021.242   -11033590.206 7  -8459286.818 1
  22678425.461    -9631503.992 6  -6014672.914 1
  24358096.563    10431096.403 3   8021369.309 1
 90 10 10 12 53 15.0000000  0  5 02 06 13 09 18
  21318099.602     2326262.021 7   1802524.531 3
  20588549.281    -4956681.210 7  -3817640.095 3
  21573803.414   -11076806.512 7  -8492961.849 1
  22669854.266    -9676550.470 6  -6049774.050 1
  24367847.508    10482340.454 3   8061299.667 1
 90 10 10 12 53 30.0000000  0  5 02 06 13 09 18
  21321011.289     2341568.215 7   1814451.429 3
  20585478.516    -4972820.664 7  -3830216.292 3
  21565600.125   -11119911.740 7  -8526550.318 1
  22661286.148    -9721571.754 6  -6084855.549 1
  24377596.273    10533575.937 3   8101223.376 1
 90 10 10 12 53 45.0000000  0  5 02 06 13 09 18
  21323932.047     2356913.554 7   1826408.829 3
  20582423.766    -4988869.454 7  -3842721.841 3
  21557418.656   -11162905.146 7  -8560051.644 1
  22652721.258    -9766567.351 6  -6119917.022 1
  24387345.164    10584802.912 3   8141140.432 1
 90 10 10 12 54  0.0000000  0  5 02 06 13 09 18
  21326858.789     2372299.259 7   1838397.675 3
  20579388.023    -5004826.641 7  -3855156.008 3
  21549257.359   -11205785.535 7  -8593464.916 1
  22644164.586    -9811535.816 6  -6154957.373 1
  24397090.758    10636022.091 2   8181051.441 1
 90 10 10 12 54 15.0000000  0  5 02 06 13 09 18
  21329793.266     2387719.980 7   1850413.812 3
  20576367.438    -5020697.056 7  -3867522.565 3
  21541118.047   -11248558.129 7  -8626794.198 1
  22635608.234    -9856482.296 6  -6189980.591 1
  24406837.227    10687227.827 3   8220951.934 1
 90 10 10 12 54 30.0000000  0  5 02 06 13 09 18
  21332733.898     2403173.931 7   1862455.838 3
  20573364.125    -5036482.047 7  -3879822.559 2
  21532998.813   -11291224.228 7  -8660040.488 1
  22627063.789    -9901408.209 6  -6224987.778 1
  24416579.297    10738418.234 3   8260840.513 1
 90 10 10 12 54 45.0000000  0  5 02 06 13 09 18
  21335684.141     2418668.050 7   1874529.168 3
  20570378.055    -5052174.642 7  -3892050.553 3
  21524901.281   -11333776.654 7  -8693198.196 1
  22618517.984    -9946306.409 6  -6259973.371 1
  24426314.836    10789599.776 3   8300722.185 1
 90 10 10 12 55  0.0000000  0  5 02 06 13 09 18
  21338638.992     2434201.095 7   1886632.828 3
  20567408.008    -5067775.675 7  -3904207.197 3
  21516825.359   -11376216.314 7  -8726268.041 1
  22609983.094    -9991177.985 6  -6294938.213 1
  24436055.391    10840770.655 2   8340595.541 1
 90 10 10 12 55 15.0000000  0  5 02 06 13 09 18
  21341601.883     2449767.629 7   1898762.585 3
  20564456.789    -5083290.506 7  -3916296.675 3
  21508770.188   -11418548.540 7  -8759254.175 1
  22601444.805   -10036027.930 6  -6329886.208 1
  24445788.805    10891925.312 2   8380456.254 1
 90 10 10 12 55 30.0000000  0  5 02 06 13 09 18
  21344571.234     2465375.495 7   1910924.548 3
  20561522.250    -5098710.697 7  -3928312.399 3
  21500732.930   -11460765.082 7  -8792150.151 1
  22592912.555   -10080847.770 6  -6364810.740 1
  24455519.969    10943071.538 2   8420310.406 1
 90 10 10 12 55 45.0000000  0  5 02 06 13 09 18
  21347549.016     2481023.379 7   1923117.692 3
  20558605.766    -5114037.241 7  -3940255.162 3
  21492725.961   -11502866.914 7  -8824956.753 1
  22584394.898   -10125638.851 6  -6399712.863 1
  24465251.703    10994207.587 3   8460156.625 1
 90 10 10 12 56  0.0000000  0  5 02 06 13 09 18
  21350535.742     2496712.279 7   1935342.795 3
  20555706.836    -5129269.101 7  -3952124.139 2
  21484734.039   -11544852.862 7  -8857673.059 1
  22575875.602   -10170399.960 6  -6434591.631 1
  24474983.148    11045333.914 3   8499995.246 1
 90 10 10 12 56 15.0000000  0  5 02 06 13 09 18
  21353527.070     2512435.766 7   1947594.848 3
  20552825.406    -5144412.176 7  -3963923.933 3
  21476765.906   -11586729.140 7  -8890303.905 1
  22567363.148   -10215137.076 6  -6469451.697 1
  24484708.008    11096443.996 3   8539821.210 1
 90 10 10 12 56 30.0000000  0  5 02 06 13 09 18
  21356527.148     2528199.871 7   1959878.556 3
  20549962.008    -5159460.413 7  -3975649.827 3
  21468820.141   -11628489.723 7  -8922844.602 1
  22558854.578   -10259843.980 6  -6504288.228 1
  24494429.289    11147543.377 3   8579638.880 1
 90 10 10 12 56 45.0000000  0  5 02 06 13 09 18
  21359532.813     2544000.857 7   1972191.003 3
  20547115.391    -5174417.007 7  -3987304.315 2
  21460894.320   -11670137.827 7  -8955297.648 1
  22550353.844   -10304524.106 6  -6539103.872 1
  24504152.242    11198628.253 4   8619445.239 1
 90 10 10 12 57  0.0000000  0  5 02 06 13 09 18
  21362547.086     2559834.885 7   1984529.198 3
  20544286.555    -5189285.597 7  -3998890.227 3
  21452991.711   -11711676.976 7  -8987665.795 1
  22541854.148   -10349181.074 6  -6573901.502 1
  24513873.961    11249694.306 4   8659236.931 1
 90 10 10 12 57 15.0000000  0  5 02 06 13 09 18
  21365566.313     2575705.435 7   1996895.849 3
  20541474.141    -5204062.726 7  -4010404.872 2
  21445107.180   -11753103.506 7  -9019946.190 1
  22533363.063   -10393811.072 6  -6608678.112 1
  24523586.055    11300744.480 4   8699016.257 1
 90 10 10 12 57 30.0000000  0  5 02 06 13 09 18
  21368591.672     2591607.266 7   2009286.872 3
  20538679.453    -5218752.903 7  -4021851.759 2
  21437244.648   -11794422.240 7  -9052142.588 1
  22524872.523   -10438418.942 6  -6643437.479 1
  24533294.156    11351773.515 4   8738779.095 1
 90 10 10 12 57 45.0000000  0  5 02 06 13 09 18
  21371624.039     2607542.783 7   2021704.146 3
  20535900.266    -5233353.623 7  -4033228.939 2
  21429402.609   -11835630.636 7  -9084253.004 1
  22516390.703   -10483002.008 6  -6678177.506 1
  24543002.648    11402783.759 5   8778527.306 1
 90 10 10 12 58  0.0000000  0  5 02 06 13 09 18
  21374664.914     2623519.946 7   2034153.871 3
  20533141.516    -5247856.415 7  -4044529.818 2
  21421585.313   -11876720.573 7  -9116271.112 1
  22507909.813   -10527551.997 6  -6712891.762 1
  24552707.820    11453782.497 5   8818266.565 1
 90 10 10 12 58 15.0000000  0  5 02 06 13 09 18
  21377712.281     2639538.158 7   2046635.581 3
  20530398.820    -5262261.969 7  -4055754.919 2
  21413788.719   -11917692.323 7  -9148197.133 1
  22499440.313   -10572069.177 6  -6747580.457 1
  24562410.977    11504768.608 5   8857995.973 1
 90 10 10 12 58 30.0000000  0  5 02 06 13 09 18
  21380768.328     2655596.779 7   2059148.781 2
  20527677.141    -5276570.496 7  -4066904.418 3
  21406012.203   -11958546.226 7  -9180031.333 1
  22490976.070   -10616554.060 6  -6782243.989 1
  24572111.484    11555741.233 5   8897714.837 1
 90 10 10 12 58 45.0000000  0  5 02 06 13 09 18
  21383832.227     2671696.158 7   2071693.740 3
  20524971.828    -5290781.390 7  -4077977.843 3
  21398262.883   -11999281.660 7  -9211773.199 1
  22482514.164   -10661005.955 6  -6816881.811 1
  24581806.500    11606700.772 4   8937423.590 1
 90 10 10 12 59  0.0000000  0  5 02 06 13 09 18
  21386903.008     2687831.717 7   2084266.889 2
  20522286.359    -5304898.822 7  -4088978.433 3
  21390532.625   -12039902.868 7  -9243426.079 1
  22474064.945   -10705429.181 6  -6851497.289 1
  24591501.609    11657642.060 4   8977118.045 1
 90 10 10 12 59 15.0000000  0  5 02 06 13 09 18
  21389980.047     2704006.331 7   2096870.474 3
  20519618.359    -5318919.605 7  -4099903.722 3
  21382822.328   -12080406.911 7  -9274987.650 1
  22465614.969   -10749820.336 6  -6886087.786 1
  24601191.734    11708567.879 5   9016800.415 1
 90 10 10 12 59 30.0000000  0  5 02 06 13 09 18
  21393065.844     2720223.144 7   2109506.940 3
  20516969.531    -5332840.538 7  -4110751.200 3
  21375137.328   -12120790.512 7  -9306455.371 2
  22457178.633   -10794176.232 6  -6920650.799 1
  24610882.336    11759480.892 5   9056472.870 1
 90 10 10 12 59 45.0000000  0  5 02 06 13 09 18
  21396160.109     2736478.825 7   2122173.690 3
  20514337.117    -5346664.669 7  -4121523.253 3
  21367475.008   -12161056.654 7  -9337831.564 2
  22448736.719   -10838499.805 6  -6955188.627 1
  24620567.164    11810377.447 5   9096132.515 1
 90 10 10 13  0  0.0000000  0  5 02 06 13 09 18
  21399261.398     2752768.001 7   2134866.547 3
  20511726.250    -5360396.922 7  -4132223.706 3
  21359832.453   -12201210.168 7  -9369120.004 2
  22440310.688   -10882795.995 6  -6989705.113 1
  24630250.352    11861251.744 5   9135774.758 1
 90 10 10 13  0 15.0000000  0  5 02 06 13 09 18
  21402367.703     2769093.194 7   2147587.463 3
  20509130.250    -5374034.335 7  -4142850.267 3
  21352212.344   -12241248.414 7  -9400318.610 1
  22431888.328   -10927062.095 6  -7024198.172 1
  24639926.227    11912106.240 5   9175401.627 1
 90 10 10 13  0 30.0000000  0  5 02 06 13 09 18
  21405480.805     2785457.823 7   2160339.109 3
  20506554.422    -5387573.489 7  -4153400.250 2
  21344617.664   -12281167.858 7  -9431424.654 2
  22423471.758   -10971294.312 6  -7058664.805 1
  24649600.523    11962944.274 5   9215015.610 1
 90 10 10 13  0 45.0000000  0  5 02 06 13 09 18
  21408601.031     2801859.147 7   2173119.351 3
  20503995.227    -5401016.858 7  -4163875.607 3
  21337045.516   -12320971.119 7  -9462440.161 1
  22415059.625   -11015495.238 6  -7093107.073 1
  24659270.195    12013762.499 5   9254614.190 1
 90 10 10 13  1  0.0000000  0  5 02 06 13 09 18
  21411730.125     2818299.372 7   2185929.901 3
  20501454.688    -5414361.822 7  -4174274.281 2
  21329493.352   -12360655.579 7  -9493363.099 1
  22406655.773   -11059662.426 6  -7127523.033 1
  24668937.617    12064562.873 5   9294198.877 1
 90 10 10 13  1 15.0000000  0  5 02 06 13 09 18
  21414865.930     2834775.915 7   2198768.753 3
  20498935.719    -5427610.769 7  -4184598.129 2
  21321964.250   -12400223.765 7  -9524195.434 1
  22398256.313   -11103797.857 6  -7161914.266 1
  24678600.117    12115342.199 5   9333767.182 1
 90 10 10 13  1 30.0000000  0  5 02 06 13 09 18
  21418009.828     2851291.297 7   2211637.868 3
  20496433.047    -5440760.979 7  -4194845.048 2
  21314457.703   -12439672.947 7  -9554935.041 2
  22389862.453   -11147899.138 6  -7196278.874 1
  24688259.742    12166102.827 5   9373320.899 1
 90 10 10 13  1 45.0000000  0  5 02 06 13 09 18
  21421158.242     2867840.743 7   2224533.531 3
  20493947.078    -5453816.943 7  -4205018.524 2
  21306974.359   -12479007.436 7  -9585585.279 1
  22381475.531   -11191970.499 6  -7230620.181 1
  24697912.320    12216839.653 5
 90 10 10 13  2  0.0000000  0  5 02 06 13 09 18
  21424315.227     2884427.215 7   2237458.040 3
  20491480.922    -5466775.264 6  -4215115.916 2
  21299508.750   -12518223.881 7  -9616143.528 1
  22373099.344   -11236008.532 6  -7264935.510 1
  24707565.625    12267555.683 5
 90 10 10 13  2 15.0000000  0  5 02 06 13 09 18
  21427476.789     2901052.470 7   2250412.769 3
  20489034.961    -5479634.140 7  -4225135.819 2
  21292067.633   -12557320.480 7  -9646608.393 1
  22364724.750   -11280011.448 6  -7299223.484 1
  24717211.016    12318251.721 4
 90 10 10 13  2 30.0000000  0  5 02 06 13 09 18
  21430649.844     2917717.765 7   2263398.699 3
  20486607.633    -5492391.755 7  -4235076.812 2
  21284651.344   -12596295.714 7  -9676978.689 2
  22356358.281   -11323977.558 6  -7333482.776 1
  24726854.609    12368929.317 4
 90 10 10 13  2 45.0000000  0  5 02 06 13 09 18
  21433827.570     2934421.585 7   2276414.651 3
  20484199.625    -5505049.572 7  -4244940.047 2
  21277258.078   -12635151.053 7  -9707255.553 2
  22347995.227   -11367908.149 6  -7367714.402 1
  24736493.461    12419586.429 3
 90 10 10 13  3  0.0000000  0  5 02 06 13 09 18
  21437014.945     2951168.010 7   2289463.802 2
  20481809.984    -5517603.118 7  -4254722.032 2
  21269888.164   -12673882.026 7  -9737435.513 2
  22339645.117   -11411798.714 6  -7401914.818 1
  24746129.953    12470226.924 2
 90 10 10 13  3 15.0000000  0  5 02 06 13 09 18
  21440209.109     2967954.141 7   2302543.894 2
  20479440.352    -5530055.126 7  -4264424.895 2
  21262540.727   -12712491.390 7  -9767520.717 2
  22331300.023   -11455651.964 6  -7436086.155 1
  24755764.844    12520847.472 2        -0.06011
 90 10 10 13  3 30.0000000  0  4 02 06 13 09
  21443409.688     2984779.066 7   2315654.211 2
  20477091.055    -5542406.203 7  -4274049.113 2
  21255218.633   -12750979.770 7  -9797511.646 2
  22322962.398   -11499468.488 6  -7470228.884 1
 90 10 10 13  3 45.0000000  0  4 02 06 13 09
  21446618.461     3001642.572 7   2328794.600 2
  20474757.055    -5554656.254 7  -4283594.607 2
  21247916.594   -12789347.033 7  -9827408.197 2
  22314629.133   -11543248.139 6  -7504342.886 1
 90 10 10 13  4  0.0000000  0  4 02 06 13 09
  21449834.133     3018541.276 7   2341962.410 3
  20472446.727    -5566808.335 7  -4293063.760 2
  21240639.352   -12827596.476 7  -9857212.940 1
  22306306.203   -11586994.009 6  -7538430.561 1
 90 10 10 13  4 15.0000000  0  4 02 06 13 09
  21453058.469     3035477.025 7   2355159.090 3
  20470152.359    -5578860.635 7  -4302455.161 2
  21233382.953   -12865726.394 7  -9886924.551 2
  22297987.977   -11630704.014 6  -7572490.288 1
 90 10 10 13  4 30.0000000  0  4 02 06 13 09
  21456286.180     3052444.490 7   2368380.482 3
  20467878.156    -5590817.999 7  -4311772.587 2
  21226145.367   -12903741.603 7  -9916546.769 2
  22289679.820   -11674383.191 6  -7606525.980 1
 90 10 10 13  4 45.0000000  0  4 02 06 13 09
  21459522.211     3069450.823 7   2381632.156 2
  20465620.648    -5602673.061 7  -4321010.301 2
  21218935.000   -12941634.718 7  -9946073.850 2
  22281371.039   -11718024.179 6  -7640531.918 1
 90 10 10 13  5  0.0000000  0  4 02 06 13 09
  21462766.789     3086494.027 7   2394912.569 2
  20463383.813    -5614427.479 7  -4330169.592 2
  21211748.656   -12979407.491 7  -9975507.162 2
  22273073.898   -11761628.316 6  -7674509.152 1
 90 10 10 13  5 15.0000000  0  4 02 06 13 09
  21466017.219     3103575.233 7   2408222.583 3
  20461167.281    -5626079.872 7  -4339249.378 2
  21204582.633   -13017058.496 7 -10004845.596 2
  22264783.563   -11805194.344 6  -7708456.684 1
 90 10 10 13  5 30.0000000  0  4 02 06 13 09
  21469274.930     3120691.086 7   2421559.598 3
  20458968.445    -5637633.302 7  -4348252.048 2
  21197442.000   -13054590.883 7 -10034091.594 2
  22256498.820   -11848725.465 6  -7742377.025 1
 90 10 10 13  5 45.0000000  0  4 02 06 13 09
  21472538.805     3137848.771 7   2434929.208 3
  20456790.055    -5649080.416 7  -4357171.883 2
  21190324.453   -13091997.489 7 -10063239.583 2
  22248223.945   -11892214.056 6  -7776264.213 1
 90 10 10 13  6  0.0000000  0  4 02 06 13 09
  21475811.492     3155052.585 7   2448334.764 3
  20454634.078    -5660416.510 7  -4366005.202 2
  21183228.555   -13129273.651 7 -10092285.919 2
  22239955.648   -11935655.486 6  -7810114.650 1
 90 10 10 13  6 15.0000000  0  4 02 06 13 09
  21479093.570     3172292.412 7   2461768.380 2
  20452494.922    -5671651.556 7  -4374759.786 2
  21176158.430   -13166429.361 7 -10121238.400 2
  22231697.695   -11979059.716 6  -7843936.124 1
 90 10 10 13  6 30.0000000  0  4 02 06 13 09
  21482381.594     3189577.517 7   2475237.281 2
  20450378.805    -5682776.294 7  -4383428.416 2
  21169114.352   -13203455.138 7 -10150089.640 2
  22223446.773   -12022417.111 6  -7877721.083 1
 90 10 10 13  6 45.0000000  0  4 02 06 13 09
  21485679.258     3206899.359 7   2488734.810 3
  20448280.859    -5693798.713 7  -4392017.312 2
  21162090.258   -13240359.235 7 -10178846.064 2
  22215203.711   -12065735.784 6  -7911475.867 1
 90 10 10 13  7  0.0000000  0  4 02 06 13 09
  21488982.031     3224256.060 7   2502259.499 3
  20446203.016    -5704720.301 7  -4400527.646 2
  21155090.344   -13277143.258 7 -10207508.922 2
  22206969.836   -12109017.408 6  -7945201.800 1
 90 10 10 13  7 15.0000000  0  4 02 06 13 09
  21492293.438     3241652.087 7   2515814.832 3
  20444143.117    -5715536.383 7  -4408955.767 2
  21148114.414   -13313802.583 7 -10236074.614 2
  22198740.031   -12152257.060 6  -7978895.012 1
 90 10 10 13  7 30.0000000  0  4 02 06 13 09
  21495610.305     3259088.218 7   2529401.414 3
  20442106.180    -5726246.062 7  -4417300.969 2
  21141163.539   -13350336.206 7 -10264542.361 2
  22190518.688   -12195453.747 6  -8012554.756 1
 90 10 10 13  7 45.0000000  0  4 02 06 13 09
  21498936.695     3276565.230 7   2543019.853 2
  20440089.188    -5736848.215 7  -4425562.393 2
  21134232.602   -13386743.248 7 -10292911.464 2
  22182309.492   -12238606.425 6  -8046180.197 1
 90 10 10 13  8  0.0000000  0  4 02 06 13 09
  21502267.609     3294074.828 7   2556663.686 2
  20438090.313    -5747351.021 7  -4433746.402 2
  21127330.078   -13423031.895 7 -10321188.315 2
  22174102.789   -12281723.111 6  -8079777.598 1
 90 10 10 13  8 15.0000000  0  4 02 06 13 09
  21505606.102     3311621.265 7   2570336.217 2
  20436111.383    -5757750.021 7  -4441849.518 2
  21120446.820   -13459198.107 7 -10349369.763 2
  22165908.164   -12324799.389 6  -8113343.507 1
 90 10 10 13  8 30.0000000  0  4 02 06 13 09
  21508954.977     3329206.468 7   2584038.964 2
  20434152.703    -5768042.943 7  -4449869.977 2
  21113588.313   -13495239.324 7 -10377453.816 2
  22157719.125   -12367832.863 6  -8146876.068 1
 90 10 10 13  8 45.0000000  0  4 02 06 13 09
  21512305.984     3346829.731 7   2597771.353 2
  20432214.336    -5778230.306 7  -4457808.188 2
  21106755.297   -13531156.039 7 -10405440.854 2
  22149538.898   -12410823.970 6  -8180375.622 1
 90 10 10 13  9  0.0000000  0  4 02 06 13 09
  21515668.352     3364493.087 7   2611534.993 2
  20430296.297    -5788309.789 7  -4465662.334 2
  21099943.570   -13566946.230 7 -10433329.293 2
  22141363.352   -12453770.442 6  -8213840.385 1
 90 10 10 13  9 15.0000000  0  4 02 06 13 09
  21519035.836     3382192.268 7   2625326.545 2
  20428397.422    -5798285.427 7  -4473435.567 2
  21093153.359   -13602613.635 7 -10461122.064 2
  22133200.719   -12496676.281 6  -8247273.480 1
 90 10 10 13  9 30.0000000  0  4 02 06 13 09
  21522411.031     3399929.006 7   2639147.370 2
  20426519.281    -5808155.026 7  -4481126.166 2
  21086391.297   -13638156.252 7 -10488817.591 2
  22125044.602   -12539538.946 6  -8280672.949 1
 90 10 10 13  9 45.0000000  0  4 02 06 13 09
  21525792.820     3417700.804 7   2652995.507 2
  20424661.094    -5817920.883 7  -4488735.925 2
  21079652.992   -13673576.487 7 -10516417.756 2
  22116892.547   -12582360.767 6  -8314040.579 1
 90 10 10 13 10  0.0000000  0  4 02 06 13 09
  21529181.867     3435512.064 7   2666874.395 2
  20422824.086    -5827578.448 7  -4496261.305 2
  21072936.539   -13708869.800 7 -10543919.020 2
  22108755.047   -12625137.448 6  -8347373.045 1
 90 10 10 13 10 15.0000000  0  4 02 06 13 09
  21532577.758     3453360.946 7   2680782.600 2
  20421005.438    -5837129.492 7  -4503703.678 2
  21066243.047   -13744038.151 7 -10571322.914 2
  22100622.039   -12667870.414 6  -8380671.444 1
 90 10 10 13 10 30.0000000  0  4 02 06 13 09
  21535982.531     3471248.998 7   2694721.324 2
  20419209.461    -5846572.046 7  -4511061.520 2
  21059574.625   -13779079.615 7 -10598627.941 2
  22092497.242   -12710557.608 6  -8413934.169 1
 90 10 10 13 10 45.0000000  0  4 02 06 13 09
  21539393.055     3489178.091 7   2708692.033 2
  20417432.508    -5855904.062 7  -4518333.224 2
  21052932.625   -13813992.025 7 -10625832.395 2
  22084384.641   -12753196.908 6  -8447159.578 1
 90 10 10 13 11  0.0000000  0  4 02 06 13 09
  21542814.945     3507148.956 7   2722695.288 2
  20415678.172    -5865124.443 7  -4525517.938 2
  21046312.320   -13848774.675 7 -10652935.747 2
  22076279.242   -12795787.380 6  -8480346.954 1
 90 10 10 13 11 15.0000000  0  4 02 06 13 09
  21546238.242     3525154.056 7   2736725.217 2
  20413944.039    -5874240.292 7  -4532621.198 2
  21039717.414   -13883434.756 7 -10679943.585 2
  22068183.516   -12838335.965 6  -8513501.687 1
 90 10 10 13 11 30.0000000  0  4 02 06 13 09
  21549673.336     3543194.668 7   2750782.819 2
  20412229.508    -5883250.364 7  -4539642.036 2
  21033145.352   -13917970.809 7 -10706854.777 2
  22060097.883   -12880841.268 6  -8546622.683 1
 90 10 10 13 11 45.0000000  0  4 02 06 13 09
  21553112.609     3561275.781 7   2764871.980 2
  20410535.508    -5892149.448 7  -4546576.387 2
  21026598.055   -13952377.695 7 -10733665.323 2
  22052017.352   -12923298.002 6  -8579705.835 1
 90 10 10 13 12  0.0000000  0  4 02 06 13 09
  21556562.117     3579397.443 7   2778992.737 2
  20408863.852    -5900937.335 7  -4553424.094 2
  21020074.133   -13986655.220 7 -10760375.070 2
  22043945.234   -12965706.042 6  -8612751.039 1
 90 10 10 13 12 15.0000000  0  4 02 06 13 09
  21560019.430     3597558.714 7   2793144.362 2
  20407211.820    -5909614.634 7  -4560185.633 2
  21013576.813   -14020804.030 7 -10786984.514 2
  22035887.359   -13008065.678 6  -8645758.538 1
 90 10 10 13 12 30.0000000  0  4 02 06 13 09
  21563484.469     3615763.759 7   2807330.093 3
  20405582.844    -5918176.782 7  -4566857.437 2
  21007101.391   -14054820.059 7 -10813490.497 2
  22027834.773   -13050372.358 6  -8678724.764 1
 90 10 10 13 12 45.0000000  0  4 02 06 13 09
  21566954.813     3634005.348 7   2821544.297 2
  20403975.164    -5926630.797 7  -4573444.985 2
  21000656.313   -14088710.093 7 -10839898.301 2
  22019794.195   -13092633.247 6  -8711655.310 1
 90 10 10 13 13  0.0000000  0  4 02 06 13 09
  21570432.211     3652284.449 7   2835787.728 2
  20402386.086    -5934975.781 7  -4579947.577 2
  20994228.750   -14122473.455 7 -10866207.399 2
  22011760.867   -13134847.072 6  -8744549.174 1
 90 10 10 13 13 15.0000000  0  4 02 06 13 09
  21573917.297     3670593.161 7   2850054.236 2
  20400817.602    -5943219.230 7  -4586371.045 2
  20987826.672   -14156117.402 7 -10892423.447 2
  22003733.758   -13177021.155 6  -8777412.082 1
 90 10 10 13 13 30.0000000  0  4 02 06 13 09
  21577408.945     3688940.891 7   2864351.144 2
  20399270.492    -5951351.389 7  -4592707.803 2
  20981449.297   -14189632.581 7 -10918539.156 2
  21995717.391   -13219146.075 6  -8810236.678 1
 90 10 10 13 13 45.0000000  0  4 02 06 13 09
  21580907.352     3707329.895 7   2878680.219 2
  20397744.266    -5959369.762 7  -4598955.886 2
  20975097.742   -14223016.681 7 -10944552.725 2
  21987711.602   -13261219.130 6  -8843020.868 1
 90 10 10 13 14  0.0000000  0  4 02 06 13 09
  21584414.508     3725762.127 7   2893042.976 2
  20396240.633    -5967272.315 7  -4605113.722 2
  20968769.859   -14256267.516 7 -10970462.453 2
  21979714.305   -13303237.927 6  -8875762.762 1
 90 10 10 13 14 15.0000000  0  4 02 06 13 09
  21587930.828     3744236.394 7   2907438.488 2
  20394758.281    -5975059.916 7  -4611181.988 2
  20962466.648   -14289386.328 7 -10996269.303 2
  21971729.719   -13345203.444 6  -8908463.152 1
 90 10 10 13 14 30.0000000  0  4 02 06 13 09
  21591452.570     3762748.334 7   2921863.352 2
  20393298.023    -5982736.668 7  -4617163.872 2
  20956189.516   -14322376.927 7 -11021976.252 2
  21963754.961   -13387119.751 6  -8941125.196 1
 90 10 10 13 14 45.0000000  0  4 02 06 13 09
  21594984.609     3781296.747 7   2936316.640 2
  20391857.625    -5990303.771 7  -4623060.325 2
  20949936.508   -14355240.598 7 -11047584.287 2
  21955786.000   -13428987.877 6  -8973749.694 1
 90 10 10 13 15  0.0000000  0  4 02 06 13 09
  21598521.492     3799887.919 7   2950803.247 2
  20390438.648    -5997754.674 6  -4628866.231 2
  20943708.227   -14387970.906 7 -11073088.410 2
  21947830.703   -13470801.223 6  -9006331.502 1
 90 10 10 13 15 15.0000000  0  4 02 06 13 09
  21602066.859     3818521.617 7   2965322.991 2
  20389044.656    -6005089.296 7  -4634581.525 2
  20937504.695   -14420567.907 7 -11098488.658 2
  21939883.492   -13512559.579 6  -9038870.472 1
 90 10 10 13 15 30.0000000  0  4 02 06 13 09
  21605619.859     3837191.612 7   2979871.023 2
  20387669.359    -6012313.436 7  -4640210.734 2
  20931326.414   -14453037.698 7 -11123789.784 2
  21931945.922   -13554268.857 6  -9071371.191 1
 90 10 10 13 15 45.0000000  0  4 02 06 13 09
  21609180.227     3855901.391 7   2994450.045 2
  20386316.133    -6019423.604 7  -4645751.130 2
  20925170.914   -14485376.660 7 -11148988.957 2
  21924020.297   -13595925.235 6  -9103830.692 1
 90 10 10 13 16  0.0000000  0  4 02 06 13 09
  21612748.500     3874649.252 7   3009058.747 2
  20384985.406    -6026421.201 7  -4651203.804 2
  20919042.586   -14517585.951 7 -11174087.093 2
  21916102.961   -13637530.014 6  -9136249.989 1
 90 10 10 13 16 15.0000000  0  4 02 06 13 09
  21616323.164     3893437.535 7   3023698.947 2
  20383674.898    -6033303.752 7  -4656566.839 2
  20912938.641   -14549663.454 7 -11199082.531 2
  21908196.219   -13679080.841 6  -9168627.243 1
 90 10 10 13 16 30.0000000  0  4 02 06 13 09
  21619905.781     3912262.424 7   3038367.668 2
  20382386.750    -6040074.837 7  -4661843.014 2
  20906859.461   -14581612.862 7 -11223978.162 2
  21900296.000   -13720581.090 6  -9200965.088 1
 90 10 10 13 16 45.0000000  0  4 02 06 13 09
  21623494.633     3931124.303 7   3053065.217 2
  20381120.156    -6046733.725 7  -4667031.767 2
  20900802.820   -14613433.672 7 -11248773.588 2
  21892408.336   -13762029.903 6  -9233262.849 1
 90 10 10 13 17  0.0000000  0  4 02 06 13 09
  21627089.203     3950022.457 7   3067791.023 2
  20379874.102    -6053280.964 7  -4672133.519 2
  20894772.828   -14645126.374 7 -11273469.186 2
  21884532.227   -13803427.808 6  -9265520.943 1
 90 10 10 13 17 15.0000000  0  4 02 06 13 09
  21630691.570     3968953.013 7   3082542.083 2
  20378649.047    -6059720.301 7  -4677151.187 2
  20888765.055   -14676694.928 7 -11298068.038 2
  21876663.258   -13844778.034 6  -9297741.879 1
 90 10 10 13 17 30.0000000  0  4 02 06 13 09
  21634303.141     3987923.257 7   3097324.060 2
  20377445.172    -6066044.071 7  -4682078.811 2
  20882782.258   -14708131.784 7 -11322564.276 2
  21868805.125   -13886073.477 6  -9329920.137 1
 90 10 10 13 17 45.0000000  0  4 02 06 13 09
  21637920.609     4006933.508 7   3112137.215 2
  20376264.352    -6072251.932 7  -4686916.114 2
  20876824.320   -14739436.293 7 -11346957.388 2
  21860958.406   -13927313.273 6  -9362055.027 1
 90 10 10 13 18  0.0000000  0  4 02 06 13 09
  21641545.500     4025984.105 7   3126981.812 2
  20375105.086    -6078343.297 7  -4691662.637 2
  20870894.008   -14770608.081 7 -11371247.079 2
  21853121.156   -13968496.691 6  -9394145.983 1
 90 10 10 13 18 15.0000000  0  4 02 06 13 09
  21645178.359     4045072.529 7   3141855.887 2
  20373967.945    -6084320.257 7  -4696320.016 2
  20864986.000   -14801649.471 7 -11395435.162 2
  21845295.625   -14009626.031 6  -9426194.803 1
 90 10 10 13 18 30.0000000  0  4 02 06 13 09
  21648818.133     4064198.915 7   3156759.538 2
  20372850.641    -6090182.468 7  -4700887.978 2
  20859103.398   -14832560.280 7 -11419521.496 2
  21837477.258   -14050700.706 6  -9458201.029 1
 90 10 10 13 18 45.0000000  0  4 02 06 13 09
  21652466.188     4083364.419 7   3171693.674 2
  20371758.813    -6095928.909 7  -4705365.732 2
  20853246.281   -14863339.392 7 -11443505.207 2
  21829671.727   -14091719.480 6  -9490163.695 1
 90 10 10 13 19  0.0000000  0  4 02 06 13 09
  21656119.508     4102568.445 7   3186657.829 2
  20370686.336    -6101559.877 7  -4709753.510 2
  20847414.758   -14893986.916 7 -11467386.383 2
  21821876.734   -14132682.627 6  -9522083.023 1
 90 10 10 13 19 15.0000000  0  4 02 06 13 09
  21659782.211     4121812.549 7   3201653.205 2
  20369636.547    -6107073.364 7  -4714049.740 2
  20841608.406   -14924501.377 7 -11491163.872 2
  21814093.328   -14173588.114 6  -9553957.408 1
 90 10 10 13 19 30.0000000  0  4 02 06 13 09
  21663451.930     4141097.697 7   3216680.574 2
  20368611.617    -6112468.006 7  -4718253.358 2
  20835828.172   -14954881.674 7 -11514836.821 2
  21806319.930   -14214434.459 6  -9585785.715 1
 90 10 10 13 19 45.0000000  0  4 02 06 13 09
  21667128.867     4160423.929 7   3231739.950 2
  20367606.320    -6117744.135 7  -4722364.636 2
  20830072.641   -14985127.723 7 -11538405.155 2
  21798557.000   -14255221.691 6  -9617567.958 1
 90 10 10 13 20  0.0000000  0  4 02 06 13 09
  21670814.109     4179790.298 7   3246830.606 2
  20366625.477    -6122902.084 7  -4726383.828 2
  20824341.805   -15015240.166 7 -11561869.384 2
  21790807.313   -14295950.227 6  -9649304.471 1
 90 10 10 13 20 15.0000000  0  4 02 06 13 09
  21674505.734     4199193.158 7   3261949.691 2
  20365665.828    -6127945.408 7  -4730313.700 2
  20818635.531   -15045222.701 7 -11585232.383 2
  21783070.242   -14336623.344 6  -9680997.798 1
 90 10 10 13 20 30.0000000  0  4 02 06 13 09
  21678206.852     4218635.647 7   3277099.659 2
  20364728.953    -6132870.818 7  -4734151.689 2
  20812956.672   -15075071.935 7 -11608491.512 2
  21775339.797   -14377237.828 6  -9712645.440 1
 90 10 10 13 20 45.0000000  0  4 02 06 13 09
  21681914.500     4238119.289 7   3292281.695 2
  20363814.180    -6137676.701 7  -4737896.542 2
  20807301.414   -15104786.497 7 -11631645.704 2
  21767621.352   -14417791.769 6  -9744245.900 1
 90 10 10 13 21  0.0000000  0  4 02 06 13 09
  21685630.453     4257643.843 7   3307495.603 2
  20362922.078    -6142362.926 7  -4741548.148 2
  20801671.461   -15134366.487 7 -11654695.030 2
  21759917.438   -14458284.927 6  -9775798.992 2
 90 10 10 13 21 15.0000000  0  4 02 06 13 09
  21689355.289     4277210.997 7   3322742.711 2
  20362054.125    -6146927.629 7  -4745105.068 2
  20796070.797   -15163809.940 7 -11677637.968 2
  21752222.820   -14498715.466 6  -9807303.288 1
 90 10 10 13 21 30.0000000  0  4 02 06 13 09
  21693084.484     4296810.985 7   3338015.401 2
  20361206.211    -6151380.391 7  -4748574.757 2
  20790491.898   -15193126.497 7 -11700482.032 2
  21744540.414   -14539092.858 6  -9838766.180 1
 90 10 10 13 21 45.0000000  0  4 02 06 13 09
  21696820.500     4316446.506 7   3353315.779 2
  20360380.586    -6155718.401 7  -4751955.035 2
  20784936.320   -15222313.440 7 -11723225.089 2
  21736866.703   -14579414.026 6  -9870185.255 1
 90 10 10 13 22  0.0000000  0  4 02 06 13 09
  21700562.352     4336117.234 7   3368643.595 2
  20359577.430    -6159941.715 7  -4755245.932 2
  20779406.461   -15251370.837 7 -11745867.206 2
  21729205.375   -14619678.863 6  -9901560.445 1
 90 10 10 13 22 15.0000000  0  4 02 06 13 09
  21704316.117     4355832.470 7   3384006.088 2
  20358796.492    -6164040.577 7  -4758439.853 2
  20773905.109   -15280289.213 7 -11768400.994 2
  21721555.594   -14659877.794 6  -9932884.271 1
 90 10 10 13 22 30.0000000  0  4 02 06 13 09
  21708072.250     4375579.924 7   3399393.689 2
  20358038.867    -6168027.261 7  -4761546.371 2
  20768423.906   -15309081.241 7 -11790836.330 2
  21713916.563   -14700022.675 6  -9964165.984 1
 90 10 10 13 22 45.0000000  0  4 02 06 13 09
  21711837.922     4395361.593 7   3414807.952 2
  20357301.305    -6171899.841 7  -4764563.976 2
  20762970.430   -15337744.670 7 -11813171.459 2
  21706285.352   -14740111.362 6  -9995403.911 1
 90 10 10 13 23  0.0000000  0  4 02 06 13 09
  21715610.789     4415189.484 7   3430258.231 2
  20356588.547    -6175645.898 7  -4767482.992 2
  20757543.398   -15366267.371 7 -11835396.930 2
  21698673.516   -14780131.562 6 -10026588.467 1
 90 10 10 13 23 15.0000000  0  4 02 06 13 09
  21719390.648     4435056.397 7   3445738.916 2
  20355899.141    -6179272.394 7  -4770308.838 2
  20752140.211   -15394656.358 7 -11857518.209 2
  21691067.773   -14820090.084 6 -10057724.958 1
 90 10 10 13 23 30.0000000  0  4 02 06 13 09
  21723178.719     4454957.955 7   3461246.600 2
  20355230.961    -6182783.588 7  -4773044.840 2
  20746763.578   -15422915.833 7 -11879538.564 2
  21683476.000   -14859991.059 6 -10088816.614 1
 90 10 10 13 23 45.0000000  0  4 02 06 13 09
  21726971.633     4474899.389 7   3476785.354 2
  20354585.344    -6186174.148 7  -4775686.848 2
  20741411.023   -15451040.617 7 -11901453.967 2
  21675893.414   -14899828.931 6 -10119859.097 1
 90 10 10 13 24  0.0000000  0  4 02 06 13 09
  21730774.766     4494883.310 7   3492357.216 2
  20353962.383    -6189440.974 7  -4778232.432 2
  20736087.398   -15479027.886 7 -11923262.219 2
  21668324.117   -14939600.549 6 -10150849.947 1
 90 10 10 13 24 15.0000000  0  4 02 06 13 09
  21734586.156     4514907.694 7   3507960.607 2
  20353364.961    -6192586.044 7  -4780683.148 2
  20730786.344   -15506879.555 7 -11944964.807 2
  21660770.242   -14979307.700 6 -10181790.571 2
 90 10 10 13 24 30.0000000  0  4 02 06 13 09
  21738404.766     4534971.939 7   3523595.052 2
  20352788.867    -6195609.958 7  -4783039.452 2
  20725511.789   -15534596.302 7 -11966562.266 2
  21653223.813   -15018950.641 6 -10212681.160 1
 90 10 10 13 24 45.0000000  0  4 02 06 13 09
  21742231.023     4555081.624 7   3539264.904 2
  20352238.000    -6198506.718 7  -4785296.674 2
  20720263.125   -15562172.188 7 -11988049.955 2
  21645694.102   -15058523.748 6 -10243517.333 2
 90 10 10 13 25  0.0000000  0  4 02 06 13 09
  21746064.117     4575231.371 7   3554965.975 2
  20351709.164    -6201281.442 7  -4787458.803 2
  20715043.148   -15589612.530 7 -12009432.024 2
  21638177.039   -15098031.531 6 -10274302.601 1
 90 10 10 13 25 15.0000000  0  4 02 06 13 09
  21749906.516     4595418.508 7   3570696.186 2
  20351205.250    -6203936.704 7  -4789527.848 2
  20709847.094   -15616920.102 7 -12030710.642 2
  21630673.297   -15137476.638 6 -10305039.038 1
 90 10 10 13 25 30.0000000  0  4 02 06 13 09
  21753755.461     4615647.151 7   3586458.729 2
  20350722.977    -6206468.441 7  -4791500.642 2
  20704674.992   -15644090.672 7 -12051882.507 2
  21623178.680   -15176854.828 6 -10335723.327 1
 90 10 10 13 25 45.0000000  0  4 02 06 13 09
  21757612.844     4635918.935 7   3602254.895 2
  20350264.711    -6208874.649 7  -4793375.616 2
  20699531.109   -15671122.539 7 -12072946.290 2
  21615698.172   -15216164.020 6 -10366353.851 1
 90 10 10 13 26  0.0000000  0  4 02 06 13 09
  21761477.688     4656229.879 7   3618081.582 2
  20349830.852    -6211159.237 7  -4795155.824 2
  20694412.805   -15698019.724 7 -12093905.129 2
  21608228.031   -15255408.058 6 -10396933.600 1
 90 10 10 13 26 15.0000000  0  4 02 06 13 09
  21765352.500     4676582.702 7   3633940.894 2
  20349418.984    -6213319.375 7  -4796839.059 2
  20689320.750   -15724779.491 7 -12114756.885 2
  21600774.930   -15294583.704 6 -10427460.073 1
 90 10 10 13 26 30.0000000  0  4 02 06 13 09
  21769231.281     4696973.326 7   3649829.670 2
  20349031.719    -6215358.749 7  -4798428.186 2
  20684252.570   -15751405.682 7 -12135504.559 2
  21593331.305   -15333694.700 6 -10457936.158 1
 90 10 10 13 26 45.0000000  0  4 02 06 13 09
  21773119.750     4717403.188 7   3665749.019 2
  20348667.695    -6217275.942 7  -4799922.113 2
  20679212.492   -15777896.848 7 -12156147.016 2
  21585900.945   -15372739.348 6 -10488360.543 2
 90 10 10 13 27  0.0000000  0  4 02 06 13 09
  21777014.508     4737870.544 7   3681697.585 2
  20348324.703    -6219072.434 7  -4801321.987 2
  20674197.648   -15804254.400 7 -12176685.356 2
  21578484.039   -15411718.961 6 -10518734.253 1
 90 10 10 13 27 15.0000000  0  4 02 06 13 09
  21780915.195     4758372.600 7   3697673.182 2
  20348005.359    -6220750.767 7  -4802629.796 2
  20669204.430   -15830481.381 7 -12197121.959 2
  21571079.586   -15450635.982 6 -10549059.196 2
 90 10 10 13 27 30.0000000  0  4 02 06 13 09
  21784825.914     4778916.953 7   3713681.739 2
  20347709.109    -6222303.255 7  -4803839.529 2
  20664242.102   -15856570.131 7 -12217450.845 2
  21563687.555   -15489482.651 6 -10579329.307 2
 90 10 10 13 27 45.0000000  0  4 02 06 13 09
  21788742.922     4799498.922 7   3729719.611 2
  20347437.648    -6223734.508 7  -4804954.805 2
  20659302.023   -15882525.105 7 -12237675.489 2
  21556307.156   -15528263.369 6 -10609548.036 1
 90 10 10 13 28  0.0000000  0  4 02 06 13 09
  21792665.391     4820120.036 7   3745787.990 2
  20347188.938    -6225042.534 7  -4805974.054 2
  20654389.078   -15908344.659 7 -12257794.610 2
  21548941.055   -15566975.896 6 -10639713.635 2
 90 10 10 13 28 15.0000000  0  4 02 06 13 09
  21796598.914     4840786.829 7   3761891.952 2
  20346964.266    -6226220.931 7  -4806892.300 2
  20649501.703   -15934022.209 7 -12277803.085 2
  21541587.156   -15605613.813 7 -10669821.091 2
 90 10 10 13 28 30.0000000  0  4 02 06 13 09
  21800537.109     4861488.823 7   3778023.349 2
  20346763.625    -6227279.628 7  -4807717.268 2
  20644640.938   -15959567.967 7 -12297708.863 2
  21534248.961   -15644187.083 7 -10699878.176 2
 90 10 10 13 28 45.0000000  0  4 02 06 13 09
  21804485.180     4882230.673 7   3794185.808 2
  20346585.789    -6228214.255 7  -4808445.563 2
  20639805.391   -15984977.666 7 -12317508.623 2
  21526920.953   -15682690.815 7 -10729881.071 2
 90 10 10 13 29  0.0000000  0  4 02 06 13 09
  21808439.828     4903018.709 7   3810384.247 2
  20346431.555    -6229018.183 7  -4809072.011 2
  20634997.211   -16010244.945 7 -12337197.405 2
  21519608.227   -15721118.154 7 -10759824.440 2
 90 10 10 13 29 15.0000000  0  4 02 06 13 09
  21812405.633     4923843.034 7   3826610.968 2
  20346302.406    -6229700.741 7  -4809603.882 2
  20630215.250   -16035379.372 7 -12356782.659 2
  21512308.688   -15759478.805 7 -10789715.845 2
 90 10 10 13 29 30.0000000  0  4 02 06 13 09
  21816375.063     4944709.205 7   3842870.284 2
  20346195.836    -6230256.573 7  -4810037.015 2
  20625456.313   -16060375.419 7 -12376260.098 2
  21505022.133   -15797766.788 7 -10819550.624 2
 90 10 10 13 29 45.0000000  0  4 02 06 13 09
  21820352.023     4965609.874 7   3859156.487 2
  20346113.195    -6230692.876 7  -4810377.000 2
  20620726.438   -16085240.391 7 -12395635.392 2
  21497747.383   -15835989.084 7 -10849334.224 2
 90 10 10 13 30  0.0000000  0  4 02 06 13 09
  21824334.945     4986543.846 7   3875468.635 2
  20346053.945    -6231010.551 7  -4810624.551 2
  20616020.648   -16109975.425 7 -12414909.436 2
  21490488.234   -15874146.778 7 -10879067.481 2
 90 10 10 13 30 15.0000000  0  4 02 06 13 09
  21828325.805     5007518.324 7   3891812.355 2
  20346016.844    -6231202.375 7
  20611337.492   -16134573.417 7 -12434076.696 2
  21483239.078   -15912232.269 7 -10908744.473 2
 90 10 10 13 30 30.0000000  0  4 02 06 13 09
  21832327.203     5028537.606 7   3908190.985 2
  20346002.813    -6231263.901 7
  20606685.672   -16159029.832 7 -12453133.639 2
  21476007.094   -15950241.015 7 -10938361.671 2
 90 10 10 13 30 45.0000000  0  4 02 06 13 09
  21836336.125     5049598.525 7   3924602.060 2
  20346017.250    -6231198.155 7
  20602057.641   -16183347.937 7 -12472082.800 2
  21468787.758   -15988175.789 7 -10967921.224 2
 90 10 10 13 31  0.0000000  0  4 02 06 13 09
  21840349.492     5070696.247 7   3941041.811 2
  20346054.461    -6231009.756 7
  20597456.172   -16207532.640 7 -12490928.017 2
  21461583.336   -16026041.135 7 -10997426.680 2
 90 10 10 13 31 15.0000000  0  4 02 06 13 09
  21844372.203     5091834.672 7   3957513.274 2
  20346113.484    -6230694.692 7
  20592879.891   -16231579.579 7 -12509665.885 2
  21454392.672   -16063832.719 7 -11026874.663 2
 90 10 10 13 31 30.0000000  0  4 02 06 13 09
  21848403.172     5113015.271 7   3974017.604 2
  20346197.859    -6230251.337 7        -0.04112
  20588328.773   -16255487.308 7 -12528295.279 2
  21447214.227   -16101549.003 7 -11056263.960 2
 90 10 10 13 31 45.0000000  0  4 02 06 13 09
  21852440.586     5134238.404 7   3990555.080 2
  20346306.727    -6229679.053 7       445.884 2
  20583806.398   -16279255.381 7 -12546815.849 2
  21440051.383   -16139189.040 7 -11085593.853 2
 90 10 10 13 32  0.0000000  0  4 02 06 13 09
  21856486.578     5155504.984 6   4007126.410 2
  20346440.477    -6228976.783 7       993.094 2
  20579310.453   -16302883.152 7 -12565227.093 2
  21432904.641   -16176751.454 7 -11114863.258 2
 90 10 10 13 32 15.0000000  0  4 02 06 13 09
  21860540.031     5176809.987 7   4023727.676 2
  20346598.656    -6228149.533 7      1637.695 2
  20574839.984   -16326375.606 7 -12583532.893 2
  21425771.219   -16214241.460 7 -11144076.236 2
 90 10 10 13 32 30.0000000  0  4 02 06 13 09
  21864603.219     5198151.534 7   4040357.424 2
  20346779.141    -6227198.860 7      2378.463 2
  20570394.445   -16349734.329 7 -12601734.489 2
  21418648.367   -16251660.131 7 -11173233.636 2
 90 10 10 13 32 45.0000000  0  4 02 06 13 09
  21868670.984     5219530.005 7   4057015.940 2
  20346983.750    -6226124.421 7      3215.671 2
  20565975.039   -16372959.083 7 -12619831.696 2
  21411541.195   -16289006.871 7 -11202334.982 2
 90 10 10 13 33  0.0000000  0  4 02 06 13 09
  21872746.430     5240944.498 7   4073702.525 2
  20347210.195    -6224926.746 7      4148.914 2
  20561582.539   -16396050.692 7 -12637825.150 2
  21404450.289   -16326282.214 7 -11231380.693 2
 90 10 10 13 33 15.0000000  0  4 02 06 13 09
  21876829.852     5262397.020 7   4090418.747 2
  20347461.930    -6223603.959 7      5179.637 2
  20557213.766   -16419007.175 7 -12655713.317 2
  21397368.844   -16363484.116 7 -11260369.180 2
 90 10 10 13 33 30.0000000  0  4 02 06 13 09
  21880919.414     5283891.806 6   4107167.903 2
  20347739.102    -6222151.643 7      6311.301 2
  20552870.172   -16441824.483 7 -12673493.029 2
  21390304.258   -16400608.102 7 -11289296.951 2
 90 10 10 13 33 45.0000000  0  4 02 06 13 09
  21885017.461     5305427.210 7   4123948.702 2
  20348039.234    -6220571.300 7      7542.719 2
  20548556.008   -16464504.080 7 -12691165.433 2
  21383254.844   -16437655.022 7 -11318164.677 2
 90 10 10 13 34  0.0000000  0  4 02 06 13 09
  21889123.047     5327007.591 6   4140764.551 2
  20348365.625    -6218858.356 7      8877.467 2
  20544266.492   -16487041.560 7 -12708727.106 2
  21376220.531   -16474620.360 7 -11346968.831 2
 90 10 10 13 34 15.0000000  0  4 02 06 13 09
  21893239.930     5348629.353 7   4157612.657 2
  20348717.031    -6217016.095 7     10312.979 2
  20540005.359   -16509440.119 7 -12726180.522 2
  21369201.219   -16511507.304 7 -11375711.901 2
 90 10 10 13 34 30.0000000  0  4 02 06 13 09
  21897360.508     5370292.048 7   4174492.640 2
  20349092.516    -6215045.174 7     11848.744 2
  20535768.531   -16531700.660 7 -12743526.391 2
  21362195.906   -16548316.293 7 -11404394.225 2
 90 10 10 13 34 45.0000000  0  4 02 06 13 09
  21901489.914     5391991.007 7   4191400.895 2
  20349490.234    -6212949.937 7     13481.380 2
  20531557.422   -16553827.617 7 -12760768.172 2
  21355206.703   -16585051.489 7 -11433019.048 2
 90 10 10 13 35  0.0000000  0  4 02 06 13 09
  21905627.883     5413729.990 7   4208340.327 2
  20349913.008    -6210726.351 7     15214.030 2
  20527373.703   -16575817.194 7 -12777902.903 2
  21348230.164   -16621708.669 7 -11461583.078 2
 90 10 10 13 35 15.0000000  0  4 02 06 13 09
  21909769.969     5435508.134 7   4225310.278 2
  20350361.750    -6208375.318 7     17045.988 2
  20523213.320   -16597670.191 7 -12794931.205 2
  21341270.258   -16658288.422 7 -11490086.769 2
 90 10 10 13 35 30.0000000  0  4 02 06 13 09
  21913924.484     5457331.095 7   4242315.148 2
  20350832.734    -6205891.019 7     18981.793 2
  20519083.680   -16619381.094 7 -12811848.786 2
  21334325.063   -16694784.801 7 -11518525.507 2
 90 10 10 13 35 45.0000000  0  4 02 06 13 09
  21918084.187     5479195.375 7   4259352.216 2
  20351330.992    -6203276.760 7     21018.865 2
  20514978.906   -16640953.282 7 -12828658.281 2
  21327394.039   -16731200.952 7 -11546901.725 2
 90 10 10 13 36  0.0000000  0  4 02 06 13 09
  21922252.938     5501096.127 7   4276417.701 2
  20351852.141    -6200537.397 7     23153.414 2
  20510897.719   -16662391.605 7 -12845363.460 2
  21320480.555   -16767541.631 7 -11575219.124 2
 90 10 10 13 36 15.0000000  0  4 02 06 13 09
  21926427.727     5523035.638 6   4293513.393 2
  20352398.531    -6197670.436 7     25387.397 2
  20506843.930   -16683693.605 7 -12861962.418 2
  21313578.414   -16803803.890 7 -11603475.424 2
 90 10 10 13 36 30.0000000  0  4 02 06 13 09
  21930611.102     5545020.100 7   4310644.106 2
  20352969.008    -6194669.512 7     27725.762 2
  20502818.242   -16704853.397 7 -12878450.567 2
  21306694.828   -16839981.354 7 -11631665.645 2
 90 10 10 13 36 45.0000000  0  4 02 06 13 09
  21934801.203     5567044.658 7   4327806.072 2
  20353563.555    -6191539.340 7     30164.834 2
  20498818.086   -16725875.774 7 -12894831.638 2
  21299824.391   -16876078.502 7 -11659793.286 2
 90 10 10 13 37  0.0000000  0  4 02 06 13 09
  21939000.969     5589110.299 6   4345000.040 2
  20354184.766    -6188279.016 7     32705.333 2
  20494842.695   -16746759.854 7 -12911104.944 2
  21292970.984   -16912094.303 7 -11687857.546 2
 90 10 10 13 37 15.0000000  0  4 02 06 13 09
  21943206.570     5611212.158 7   4362222.238 2
  20354829.156    -6184893.364 7     35343.489 2
  20490893.641   -16767510.363 7 -12927274.170 2
  21286133.117   -16948033.160 7 -11715861.839 2
 90 10 10 13 37 30.0000000  0  4 02 06 13 09
  21947419.336     5633355.782 7   4379476.976 2
  20355498.383    -6181376.373 7     38083.984 2
  20486971.984   -16788121.938 7 -12943335.134 2
  21279311.039   -16983889.061 7 -11743801.495 2
 90 10 10 13 37 45.0000000  0  4 02 06 13 09
  21951642.438     5655542.213 7   4396765.067 2
  20356193.398    -6177727.016 7     40927.622 2
  20483076.164   -16808593.273 7 -12959286.819 2
  21272504.063   -17019660.692 7 -11771675.489 2
 90 10 10 13 38  0.0000000  0  4 02 06 13 09
  21955869.531     5677760.641 7   4414078.086 2
  20356911.641    -6173955.910 7     43866.128 2
  20479205.617   -16828935.100 7 -12975137.590 2
  21265709.055   -17055358.478 7 -11799491.942 2
 90 10 10 13 38 15.0000000  0  4 02 06 13 09
  21960106.539     5700017.257 7   4431420.867 2
  20357652.805    -6170056.724 7     46904.437 2
  20475361.250   -16849141.293 7 -12990882.673 2
  21258933.570   -17090975.938 7 -11827245.799 2
 90 10 10 13 38 30.0000000  0  4 02 06 13 09
  21964348.836     5722315.184 7   4448795.841 2
  20358420.891    -6166026.515 7     50044.842 2
  20471541.844   -16869209.000 7 -13006519.852 2
  21252169.055   -17126509.888 7 -11854934.585 2
 90 10 10 13 38 45.0000000  0  4 02 06 13 09
  21968600.383     5744653.061 7   4466201.946 2
  20359210.031    -6161866.209 7     53286.620 2
  20467750.227   -16889139.379 7 -13022050.010 2
  21245424.211   -17161961.092 7 -11882558.887 2
 90 10 10 13 39  0.0000000  0  4 02 06 13 09
  21972858.484     5767029.936 6   4483638.431 2
  20360027.055    -6157576.711 7     56629.072 2
  20463983.000   -16908933.423 7 -13037473.943 2
  21238694.578   -17197330.196 7 -11910119.225 2
 90 10 10 13 39 15.0000000  0  4 02 06 13 09
  21977124.164     5789450.692 6   4501109.108 2
  20360869.828    -6153153.350 7     60075.823 2
  20460242.117   -16928586.284 7 -13052787.861 2
  21231978.000   -17232612.170 7 -11937611.668 2
 90 10 10 13 39 30.0000000  0  5 02 06 12 13 09
  21981400.688     5811916.930 6   4518615.227 2
  20361735.766    -6148594.163 7     63628.425 2
  24456779.852          -0.73514
  20456530.305   -16948096.349 7 -13067990.511 2
  21225280.875   -17267804.983 7 -11965034.631 2
 90 10 10 13 39 45.0000000  0  5 02 06 12 13 09
  21985682.688     5834418.934 6   4536149.216 2
  20362628.344    -6143908.759 7     67279.367 2
  24447082.594      -50964.438 3
  20452843.891   -16967473.373 7 -13083089.485 2
  21218602.141   -17302917.963 7 -11992395.398 2
 90 10 10 13 40  0.0000000  0  5 02 06 12 13 09
  21989970.930     5856961.233 6   4553714.604 2
  20363545.313    -6139092.423 7     71032.333 2
  24437386.602     -101936.958 4
  20449181.703   -16986712.930 7 -13098081.347 2
  21211935.063   -17337946.259 7 -12019690.162 2
 90 10 10 13 40 15.0000000  0  5 02 06 12 13 09
  21994269.648     5879545.726 6   4571312.867 2
  20364487.242    -6134143.181 7     74888.865 2
  24427681.320     -152916.159 4
  20445547.734   -17005812.902 7 -13112964.445 2
  21205285.945   -17372887.687 7 -12046917.241 2
 90 10 10 13 40 30.0000000  0  5 02 06 12 13 09
  21998575.930     5902167.820 7   4588940.433 2
  20365453.867    -6129065.452 7     78845.514 2
  24417979.648     -203906.472 4
  20441937.938   -17024777.986 7 -13127742.432 2
  21198653.602   -17407746.351 7 -12074079.833 2
 90 10 10 13 40 45.0000000  0  5 02 06 12 13 09
  22002885.688     5924825.892 6   4606596.033 2
  20366443.992    -6123860.783 7     82901.081 2
  24408279.578     -254909.391 4
  20438354.328   -17043609.751 7 -13142416.536 2
  21192035.477   -17442523.566 7 -12101178.958 2
 90 10 10 13 41  0.0000000  0  5 02 06 12 13 09
  22007207.922     5947529.198 6   4624286.884 2
  20367460.453    -6118519.823 7     87062.845 2
  24398567.281     -305915.437 4        -0.05411
  20434797.641   -17062299.057 7 -13156979.630 2
  21185434.836   -17477209.881 7 -12128207.254 2
 90 10 10 13 41 15.0000000  0  5 02 06 12 13 09
  22011536.930     5970277.211 6   4642012.568 2
  20368501.773    -6113043.215 7     91330.307 2
  24388859.766     -356925.053 4    -39747.875 1
  20431268.594   -17080846.583 7 -13171432.247 2
  21178849.109   -17511805.753 7 -12155165.070 2
 90 10 10 13 41 30.0000000  0  5 02 06 12 13 09
  22015872.430     5993065.017 6   4659769.261 2
  20369568.016    -6107435.573 7     95699.875 2
  24379153.789     -407942.915 4    -79502.013 1
  20427766.102   -17099257.244 7 -13185778.215 2
  21172284.227   -17546315.580 7 -12182055.843 2
 90 10 10 13 41 45.0000000  0  5 02 06 12 13 09
  22020218.680     6015897.454 6   4677560.726 2
  20370661.672    -6101692.105 7    100175.284 2
  24369445.063     -458963.986 4   -119258.702 1
  20424289.195   -17117526.313 7 -13200013.855 2
  21165734.328   -17580734.182 7 -12208875.538 2
 90 10 10 13 42  0.0000000  0  5 02 06 12 13 09
  22024568.102     6038769.676 6   4695383.195 2
  20371780.281    -6095817.615 7    104752.791 2
  24359736.094     -509992.967 4   -159021.472 1
  20420837.609   -17135658.514 7 -13214142.845 2
  21159199.000   -17615066.275 7 -12235627.813 2
 90 10 10 13 42 15.0000000  0  5 02 06 12 13 09
  22028928.836     6061679.597 6   4713235.044 2
  20372921.195    -6089813.995 7    109430.910 2
  24350021.695     -561031.649 3   -198791.886 1
  20417413.219   -17153655.883 7 -13228166.770 2
  21152684.547   -17649313.234 7 -12262313.751 2
 90 10 10 13 42 30.0000000  0  5 02 06 12 13 09
  22033296.133     6084628.383 6   4731117.170 2
  20374089.906    -6083679.746 7    114210.828 2
  24340311.367     -612078.422 4   -238568.570 1
  20414014.570   -17171517.264 7 -13242084.726 2
  21146183.234   -17683473.667 7 -12288932.267 2
 90 10 10 13 42 45.0000000  0  5 02 06 12 13 09
  22037671.328     6107619.827 6   4749032.542 2
  20375282.164    -6077411.260 7    119095.340 2
  24330592.719     -663129.538 4   -278348.652 1
  20410642.281   -17189239.015 7 -13255893.883 2
  21139701.570   -17717543.628 7 -12315480.291 2
 90 10 10 13 43  0.0000000  0  5 02 06 12 13 09
  22042053.117     6130651.268 6   4766979.072 2
  20376502.008    -6071010.873 7    124082.629 2
  24320873.742     -714187.375 4   -318133.972 1
  20407297.250   -17206823.762 7 -13269596.288 2
  21133233.836   -17751525.305 7 -12341959.518 2
 90 10 10 13 43 15.0000000  0  5 02 06 12 13 09
  22046443.383     6153720.474 6   4784955.038 2
  20377743.859    -6064480.839 7    129170.947 2
  24311162.156     -765253.962 5   -357926.098 1
  20403976.375   -17224273.907 7 -13283193.800 2
  21126783.063   -17785420.500 7 -12368371.354 2
 90 10 10 13 43 30.0000000  0  5 02 06 12 13 09
  22050841.945     6176831.561 6   4802963.630 2
  20379011.672    -6057816.962 7    134363.553 2
  24301438.922     -816325.071 4   -397721.780 1
  20400679.727   -17241585.228 7 -13296683.141 2
  21120350.508   -17819225.083 7 -12394712.585 2
 90 10 10 13 43 45.0000000  0  5 02 06 12 13 09
  22055247.469     6199985.382 6   4821005.520 2
  20380305.469    -6051018.373 7    139661.134 2
  24291723.641     -867399.426 4   -437519.955 1
  20397414.352   -17258756.941 7 -13310063.702 2
  21113935.648   -17852937.584 7 -12420982.069 2
 90 10 10 13 44  0.0000000  0  5 02 06 12 13 09
  22059659.695     6223177.568 6   4839077.309 2
  20381624.805    -6044089.236 7    145060.442 2
  24281999.867     -918481.196 5   -477323.906 1
  20394171.219   -17275793.420 7 -13323338.885 2
  21107536.523   -17886562.108 7 -12447182.997 2
 90 10 10 13 44 15.0000000  0  5 02 06 12 13 09
  22064081.617     6246414.064 6   4857183.620 2
  20382968.305    -6037023.583 7    150566.116 2
  24272276.555     -969564.453 4   -517129.022 1
  20390956.906   -17292688.887 7 -13336504.192 2
  21101155.219   -17920092.641 7 -12473310.690 2
 90 10 10 13 44 30.0000000  0  5 02 06 12 13 09
  22068512.344     6269693.706 6   4875323.555 2
  20384338.625    -6029822.518 7    156177.316 2
  24262554.969    -1020649.861 4   -556935.814 1
  20387767.711   -17309444.490 7 -13349560.505 2
  21094793.023   -17953529.899 7 -12499365.698 2
 90 10 10 13 44 45.0000000  0  5 02 06 12 13 09
  22072950.453     6293018.087 6   4893498.340 2
  20385735.805    -6022484.325 7    161895.363 3
  24252836.633    -1071735.725 5   -596742.950 1
  20384606.102   -17326058.354 7 -13362506.375 2
  21088449.828   -17986871.627 7 -12525346.262 2
 90 10 10 13 45  0.0000000  0  5 02 06 12 13 09
  22077396.711     6316381.158 6   4911703.283 2
  20387155.633    -6015014.829 7    167715.723 3
  24243118.148    -1122827.845 4   -636554.994 1
  20381472.016   -17342536.731 7 -13375346.669 2
  21082122.344   -18020123.860 7 -12551257.092 2
 90 10 10 13 45 15.0000000  0  5 02 06 12 13 09
  22081851.891     6339789.134 6   4929943.206 2
  20388604.938    -6007408.186 7    173642.951 3
  24233395.398    -1173919.853 4   -676366.921 1
  20378363.086   -17358873.721 7 -13388076.795 2
  21075811.938   -18053280.350 7 -12577093.324 2
 90 10 10 13 45 30.0000000  0  5 02 06 12 13 09
  22086314.117     6363239.325 6   4948216.028 2
  20390077.891    -5999666.577 7    179675.352 3
  24223671.836    -1225014.195 5   -716180.667 1
  20375280.023   -17375071.938 7 -13400698.783 2
  21069519.828   -18086342.863 7 -12602856.317 2
 90 10 10 13 45 45.0000000  0  5 02 06 12 13 09
  22090781.563     6386725.021 6   4966516.521 2
  20391575.461    -5991796.689 7    185807.712 3
  24213946.125    -1276117.323 4   -756001.273 1
  20372223.438   -17391138.064 7 -13413217.845 2
  21063244.930   -18119318.144 7 -12628551.342 2
 90 10 10 13 46  0.0000000  0  5 02 06 12 13 09
  22095260.164     6410250.767 6   4984848.230 2
  20393098.000    -5983794.084 7    192043.487 2
  24204221.977    -1327224.531 4   -795825.055 1
  20369189.875   -17407067.832 7 -13425630.652 2
  21056987.758   -18152201.410 7 -12654174.670 2
 90 10 10 13 46 15.0000000  0  5 02 06 12 13 09
  22099746.375     6433818.458 6   5003212.618 2
  20394645.992    -5975656.788 7    198384.213 2
  24194499.156    -1378333.806 4   -835650.475 1
  20366187.055   -17422859.474 7 -13437935.825 2
  21050748.969   -18184990.170 7 -12679724.359 2
 90 10 10 13 46 30.0000000  0  5 02 06 12 13 09
  22104239.469     6457424.362 6   5021606.773 2
  20396220.078    -5967388.486 7    204827.026 2
  24184767.977    -1429448.719 4   -875480.236 1
  20363206.563   -17438516.715 7 -13450136.278 2
  21044526.453   -18217688.060 7 -12705203.234 2
 90 10 10 13 46 45.0000000  0  5 02 06 12 13 09
  22108735.289     6481077.490 6   5040037.727 2
  20397819.680    -5958980.057 7    211379.024 3
  24175045.727    -1480560.199 5   -915307.365 1
  20360253.461   -17454030.654 7 -13462225.065 2
  21038321.648   -18250285.866 7 -12730604.129 2
 90 10 10 13 47  0.0000000  0  5 02 06 12 13 09
  22113246.156     6504777.745 6   5058505.404 2
  20399447.711    -5950431.628 7    218040.119 3
  24165314.156    -1531667.935 4   -955131.560 1
  20357330.070   -17469401.272 7 -13474202.172 2
  21032140.570   -18282783.340 7 -12755926.837 2
 90 10 10 13 47 15.0000000  0  5 02 06 12 13 09
  22117765.539     6528513.678 6   5077000.897 2
  20401097.797    -5941754.313 7    224801.636 3
  24155582.492    -1582782.967 4   -994961.401 1
  20354429.617   -17484639.946 7 -13486076.464 2
  21025971.984   -18315191.343 7 -12781179.827 2
 90 10 10 13 47 30.0000000  0  5 02 06 12 13 09
  22122288.695     6552290.968 6   5095528.605 2
  20402774.234    -5932942.562 7    231667.914 2
  24145860.992    -1633899.457 4  -1034792.463 1
  20351555.789   -17499741.309 7 -13497843.767 2
  21019821.758   -18347503.957 7 -12806358.489 2
 90 10 10 13 47 45.0000000  0  5 02 06 12 13 09
  22126822.633     6576109.976 6   5114088.822 2
  20404477.445    -5923995.564 7    238639.580 3
  24136132.766    -1685016.530 4  -1074623.953 1
  20348708.891   -17514704.715 7 -13509503.562 2
  21013692.477   -18379720.229 7 -12831462.088 2
 90 10 10 13 48  0.0000000  0  5 02 06 12 13 09
  22131362.344     6599964.462 6   5132676.685 2
  20406205.359    -5914919.569 7    245711.758 3
  24126406.469    -1736140.312 5  -1114460.672 1
  20345886.031   -17529536.470 7 -13521060.775 2
  21007580.188   -18411846.339 7 -12856495.419 2
 90 10 10 13 48 15.0000000  0  5 02 06 12 13 09
  22135909.805     6623859.970 6   5151296.517 2
  20407956.727    -5905709.305 7    252888.563 3
  24116676.062    -1787265.262 5  -1154298.254 1
  20343089.164   -17544231.431 7 -13532511.391 2
  21001484.305   -18443876.555 7 -12881454.031 2
 90 10 10 13 48 30.0000000  0  5 02 06 12 13 09
  22140463.195     6647796.511 6   5169948.315 2
  20409736.031    -5896364.684 7    260170.060 2
  24106951.914    -1838391.086 5  -1194136.584 1
  20340319.492   -17558789.682 7 -13543855.486 2
  20995406.477   -18475810.536 7 -12906337.657 2
 90 10 10 13 48 45.0000000  0  5 02 06 12 13 09
  22145024.711     6671772.529 6   5188630.875 2
  20411538.898    -5886887.118 7    267555.155 2
  24097217.250    -1889519.071 4  -1233976.564 1
  20337575.828   -17573212.759 7 -13555094.247 2
  20989348.000   -18507649.282 7 -12931147.067 2
 90 10 10 13 49  0.0000000  0  5 02 06 12 13 09
  22149597.016     6695790.070 6   5207345.787 1
  20413367.430    -5877274.492 7    275045.481 3
  24087492.906    -1940647.179 5  -1273816.618 1
  20334855.758   -17587498.893 7 -13566226.301 2
  20983306.977   -18539390.649 7 -12955880.603 2
 90 10 10 13 49 15.0000000  0  5 02 06 12 13 09
  22154175.258     6719848.816 6   5226092.812 1
  20415222.914    -5867527.227 7    282640.731 2
  24077757.891    -1991775.464 4  -1313656.825 1
  20332164.563   -17601648.255 7 -13577251.784 2
  20977286.398   -18571034.691 7 -12980538.306 2
 90 10 10 13 49 30.0000000  0  5 02 06 12 13 09
  22158762.227     6743952.229 6   5244874.639 1
  20417104.438    -5857641.730 7    290343.689 2
  24068031.859    -2042900.123 4  -1353494.206 1
  20329497.664   -17615657.489 7 -13588168.069 2
  20971283.984   -18602577.555 7 -13005117.167 2
 90 10 10 13 49 45.0000000  0  5 02 06 12 13 09
  22163355.758     6768097.883 6   5263689.379 1
  20419012.086    -5847620.213 7    298152.644 3
  24058303.242    -2094023.431 4  -1393330.517 1
  20326857.578   -17629528.934 7 -13598976.999 2
  20965300.750   -18634021.297 7 -13029618.788 2
 90 10 10 13 50  0.0000000  0  5 02 06 12 13 09
  22167958.297     6792284.476 6   5282536.025 1
  20420944.125    -5837464.181 7    306066.412 3
  24048577.656    -2145146.464 5  -1433166.631 1
  20324244.547   -17643263.975 7 -13609679.612 2
  20959335.563   -18665367.081 7 -13054044.080 2
 90 10 10 13 50 15.0000000  0  5 02 06 12 13 09
  22172569.430     6816512.068 6   5301414.618 1
  20422901.844    -5827173.367 7    314085.196 2
  24038845.391    -2196268.839 4  -1473002.257 1
  20321656.156   -17656862.916 7 -13620276.196 2
  20953390.078   -18696614.462 7 -13078392.697 2
 90 10 10 13 50 30.0000000  0  5 02 06 12 13 09
  22177189.898     6840785.757 6   5320329.123 1
  20424887.273    -5816742.797 7    322212.883 3
  24029123.211    -2247385.343 4  -1512833.265 1
  20319096.094   -17670320.717 7 -13630762.793 2
  20947461.664   -18727757.853 7 -13102660.274 2
 90 10 10 13 50 45.0000000  0  5 02 06 12 13 09
  22181811.836     6865090.840 6   5339268.098 1
  20426896.641    -5806186.829 7    330438.285 3
  24019391.703    -2298510.365 4  -1552670.965 1
  20316558.797   -17683652.018 7 -13641150.819 2
  20941554.945   -18758811.592 7 -13126857.995 2
 90 10 10 13 51  0.0000000  0  5 02 06 12 13 09
  22186447.664     6889437.485 6   5358239.457 1
  20428930.367    -5795495.321 7    338769.312 3
  24009659.953    -2349633.383 4  -1592507.033 1
  20314048.195   -17696846.633 7 -13651432.342 2
  20935663.070   -18789765.371 7 -13150977.824 2
 90 10 10 13 51 15.0000000  0  5 02 06 12 13 09
  22191087.313     6913828.100 6   5377245.074 1
  20430990.461    -5784665.850 7    347207.839 3
  23999933.938    -2400751.778 3  -1632339.565 1
  20311563.602   -17709902.342 7 -13661605.621 2
  20929792.664   -18820616.403 7 -13175017.589 2
 90 10 10 13 51 30.0000000  0  5 02 06 12 13 09
  22195738.242     6938266.788 6   5396288.153 1
  20433078.438    -5773694.254 7    355757.110 3
  23990205.523    -2451861.256 3  -1672165.133 1
  20309106.570   -17722815.208 7 -13671667.596 2
  20923943.000   -18851360.194 7 -13198973.799 2
 90 10 10 13 51 45.0000000  0  5 02 06 12 13 09
  22200396.750     6962744.057 6   5415361.291 1
  20435191.320    -5762590.025 7    364409.730 3
  23980481.281    -2502971.111 4  -1711990.983 1
  20306674.633   -17735594.723 7 -13681625.663 1
  20918110.086   -18882005.898 7 -13222853.567 2
 90 10 10 13 52  0.0000000  0  5 02 06 12 13 09
  22205063.555     6987267.918 6   5434470.739 1
  20437331.828    -5751345.133 7    373171.958 3
  23970758.109    -2554073.050 4  -1751810.626 1
  20304269.836   -17748232.899 7 -13691473.588 2
  20912298.703   -18912545.499 7 -13246650.671 2
 90 10 10 13 52 15.0000000  0  5 02 06 12 13 09
  22209739.023     7011838.067 6   5453616.257 1
  20439498.555    -5739959.804 7    382043.613 3
  23961037.688    -2605167.379 4  -1791624.371 1
  20301892.000   -17760730.268 7 -13701211.795 2
  20906507.484   -18942978.806 7 -13270364.941 2
 90 10 10 13 52 30.0000000  0  5 02 06 12 13 09
  22214422.820     7036448.997 6   5472793.550 1
  20441691.250    -5728439.602 7    391020.376 3
  23951305.773    -2656259.229 4  -1831436.202 1
  20299538.648   -17773092.335 7 -13710844.574 2
  20900735.758   -18973311.017 7 -13294000.429 2
 90 10 10 13 52 45.0000000  0  5 02 06 12 13 09
  22219113.578     7061097.863 6   5492000.399 1
  20443909.234    -5716787.236 7    400100.117 3
  23941591.039    -2707351.163 4  -1871248.086 1
  20297210.781   -17785322.053 7 -13720374.222 1
  20894983.734   -19003544.688 7 -13317559.137 2
 90 10 10 13 53  0.0000000  0  5 02 06 12 13 09
  22223812.250     7085787.695 6   5511239.179 1
  20446151.844    -5704999.664 7    409285.212 3
  23931869.313    -2758439.980 5  -1911057.534 1
  20294910.672   -17797416.561 7 -13729798.512 2
  20889247.914   -19033676.406 7 -13341038.403 2
 90 10 10 13 53 15.0000000  0  5 02 06 12 13 09
  22228517.891     7110522.271 6   5530512.815 1
  20448421.203    -5693072.912 7    418578.756 3
  23922154.266    -2809521.523 5  -1950861.334 1
  20292635.164   -17809372.142 7 -13739114.549 2
  20883534.703   -19063701.932 7 -13364434.925 2
 90 10 10 13 53 30.0000000  0  5 02 06 12 13 09
  22233234.969     7135304.954 6   5549823.941 1
  20450717.516    -5681003.818 7    427983.219 3
  23912434.719    -2860592.115 5  -1990656.615 1
  20290387.805   -17821185.384 7 -13748319.672 2
  20877842.930   -19093617.801 7 -13387745.999 2
 90 10 10 13 53 45.0000000  0  5 02 06 12 13 09
  22237959.641     7160130.814 6   5569168.711 1
  20453040.602    -5668797.301 7    437494.771 3
  23902714.852    -2911656.741 5  -2030447.209 1
  20288164.242   -17832861.561 7 -13757417.992 2
  20872169.250   -19123428.737 7 -13410975.304 2
 90 10 10 13 54  0.0000000  0  5 02 06 12 13 09
  22242691.555     7185004.591 6   5588550.817 1
  20455390.031    -5656448.490 7    447117.195 3
  23892996.211    -2962710.196 5  -2070229.106 1
  20285970.914   -17844395.845 7 -13766405.745 2
  20866517.984   -19153129.476 7 -13434118.744 2
 90 10 10 13 54 15.0000000  0  5 02 06 12 13 09
  22247433.445     7209921.076 6   5607966.203 1
  20457765.531    -5643962.478 7    456846.528 3
  23883288.109    -3013757.550 5  -2110006.242 1
  20283801.508   -17855793.614 7 -13775287.126 2
  20860885.984   -19182724.804 7 -13457180.046 2
 90 10 10 13 54 30.0000000  0  5 02 06 12 13 09
  22252184.195     7234881.786 6   5627416.045 1
  20460169.375    -5631337.972 7    466683.786 3
  23873569.578    -3064797.184 5  -2149777.377 1
  20281658.609   -17867053.489 7 -13784061.056 2
  20855274.523   -19212213.392 7 -13480158.172 2
 90 10 10 13 54 45.0000000  0  5 02 06 12 13 09
  22256940.016     7259884.413 6   5646898.557 1
  20462596.898    -5618576.924 7    476627.436 3
  23863859.992    -3115830.878 5  -2189543.863 1
  20279541.320   -17878177.839 7 -13792729.385 2
  20849683.266   -19241596.699 7 -13503054.254 2
 90 10 10 13 55  0.0000000  0  5 02 06 12 13 09
  22261706.508     7284931.325 6   5666415.562 1
  20465052.289    -5605677.248 7    486679.103 3
  23854152.195    -3166856.260 5  -2229303.914 1
  20277452.250   -17889164.558 7 -13801290.472 2
  20844111.492   -19270872.205 7 -13525866.339 2
 90 10 10 13 55 15.0000000  0  5 02 06 12 13 09
  22266481.734     7310018.602 6   5685964.036 1
  20467532.953    -5592642.630 7    496835.916 3
  23844440.648    -3217876.875 5  -2269060.254 1
  20275386.148   -17900017.504 7 -13809747.314 2
  20838562.492   -19300043.647 7 -13548597.339 2
 90 10 10 13 55 30.0000000  0  5 02 06 12 13 09
  22271264.492     7335152.058 6   5705548.486 1
  20470039.898    -5579467.508 7    507102.215 3
  23834735.070    -3268886.794 5  -2308808.215 1
  20273346.516   -17910731.103 7 -13818095.580 2
  20833031.242   -19329104.893 7 -13571242.476 2
 90 10 10 13 55 45.0000000  0  5 02 06 12 13 09
  22276054.234     7360327.235 6   5725165.444 1
  20472572.883    -5566155.950 7    517474.825 2
  23825028.984    -3319890.062 5  -2348551.011 1
  20271334.680   -17921309.811 7 -13826338.730 1
  20827520.117   -19358059.852 7 -13593804.788 2
 90 10 10 13 56  0.0000000  0  5 02 06 12 13 09
  22280855.539     7385544.916 6   5744815.517 1
  20475131.125    -5552707.350 7    527954.229 2
  23815327.523    -3370885.565 5  -2388287.763 1
  20269347.656   -17931752.752 7 -13834476.093 2
  20822030.820   -19386907.668 7 -13616283.610 2
 90 10 10 13 56 15.0000000  0  5 02 06 12 13 09
  22285663.484     7410807.649 6   5764500.704 1
  20477717.938    -5539119.173 7    538542.396 3
  23805621.922    -3421870.697 5  -2428016.440 1
  20267385.578   -17942057.802 7 -13842506.006 2
  20816562.313   -19415645.589 7 -13638676.791 2
 90 10 10 13 56 30.0000000  0  5 02 06 12 13 09
  22290477.336     7436114.083 6   5784219.938 1
  20480329.680    -5525392.654 7    549238.354 3
  23795924.875    -3472846.449 5  -2467737.780 1
  20265450.055   -17952226.357 7 -13850429.553 2
  20811113.859   -19444274.299 7 -13660984.886 2
 90 10 10 13 56 45.0000000  0  5 02 06 12 13 09
  22295299.805     7461462.008 6   5803971.504 1
  20482967.422    -5511530.077 7    560040.335 3
  23786220.352    -3523814.972 5  -2507453.497 1
  20263541.859   -17962260.892 7 -13858248.674 1
  20805686.086   -19472795.805 7 -13683209.442 2
 90 10 10 13 57  0.0000000  0  5 02 06 12 13 09
  22300131.141     7486849.405 6   5823753.811 1
  20485630.180    -5497533.437 7    570946.776 3
  23776524.633    -3574777.928 5  -2547164.872 1
  20261657.023   -17972163.295 7 -13865964.839 2
  20800278.883   -19501212.011 7 -13705351.943 2
 90 10 10 13 57 15.0000000  0  5 02 06 12 13 09
  22304970.555     7512277.288 6   5843567.685 1
  20488320.086    -5483401.665 7    581958.517 3
  23766830.391    -3625734.178 5  -2586871.051 1
  20259797.352   -17981932.634 7 -13873577.312 2
  20794892.352   -19529521.549 7 -13727411.340 2
 90 10 10 13 57 30.0000000  0  5 02 06 12 13 09
  22309818.281     7537748.638 6   5863415.426 1
  20491034.453    -5469131.971 7    593077.733 3
  23757134.695    -3676680.384 5  -2626569.378 1
  20257965.375   -17991566.371 7 -13881084.125 2
  20789527.742   -19557721.015 7 -13749384.954 2
 90 10 10 13 57 45.0000000  0  5 02 06 12 13 09
  22314674.773     7563266.241 6   5883299.200 1
  20493778.047    -5454721.354 7    604306.759 3
  23747444.773    -3727613.590 5  -2666257.556 1
  20256156.969   -18001061.720 7 -13888483.103 2
  20784182.633   -19585807.456 7 -13771270.495 2
 90 10 10 13 58  0.0000000  0  5 02 06 12 13 09
  22319536.359     7588823.877 6   5903214.172 1
  20496545.594    -5440176.032 7    615640.742 3
  23737756.188    -3778539.620 5  -2705940.164 1
  20254375.352   -18010424.779 7 -13895778.991 1
  20778856.781   -19613786.833 7 -13793072.618 2
 90 10 10 13 58 15.0000000  0  5 02 06 12 13 09
  22324406.891     7614424.208 6   5923162.413 1
  20499340.688    -5425493.578 7    627081.588 3
  23728058.063    -3829455.740 5  -2745615.023 1
  20252619.898   -18019653.175 7 -13902969.958 2
  20773554.297   -19641656.052 7 -13814788.900 2
 90 10 10 13 58 30.0000000  0  5 02 06 12 13 09
  22329287.016     7640064.919 6   5943142.109 1
  20502160.133    -5410676.019 7    638627.706 3
  23718375.094    -3880363.849 5  -2785283.650 1
  20250888.531   -18028749.053 7 -13910057.656 2
  20768270.961   -19669416.964 7 -13836420.786 2
 90 10 10 13 58 45.0000000  0  5 02 06 12 13 09
  22334174.563     7665751.402 6   5963157.481 1
  20505006.758    -5395718.059 7    650283.230 3
  23708686.383    -3931258.351 5  -2824941.669 1
  20249184.812   -18037707.474 7 -13917038.246 1
  20763009.875   -19697064.037 7 -13857963.971 2
 90 10 10 13 59  0.0000000  0  5 02 06 12 13 09
  22339072.297     7691481.758 6   5983207.043 1
  20507879.000    -5380621.553 7    662046.712 3
  23699003.461    -3982140.811 5  -2864590.315 1
  20247505.734   -18046530.580 7 -13923913.402 1
  20757771.063   -19724598.990 7 -13879419.786 2
 90 10 10 13 59 15.0000000  0  5 02 06 12 13 09
  22343977.266     7717257.893 6   6003292.257 1
  20510777.867    -5365384.845 7    673919.444 2
  23689326.375    -4033009.332 5  -2904228.115 1
  20245853.242   -18055216.826 7 -13930681.909 1
  20752553.094   -19752019.562 7 -13900786.471 2
 90 10 10 13 59 30.0000000  0  5 02 06 12 13 09
  22348891.797     7743076.679 6   6023410.725 1
  20513703.992    -5350010.923 7    685899.091 2
  23679647.273    -4083866.621 5  -2943857.139 1
  20244223.813   -18063769.177 7 -13937346.086 1
  20747356.586   -19779328.654 7 -13922066.290 2
 90 10 10 13 59 45.0000000  0  5 02 06 12 13 09
  22353811.859     7768934.775 6   6043559.816 1
  20516655.891    -5334502.952 7    697983.190 3
  23669971.539    -4134715.665 5  -2983479.749 1
  20242621.266   -18072190.779 7 -13943908.381 1
  20742181.000   -19806529.108 7 -13943261.448 2
 90 10 10 14  0  0.0000000  0  5 02 06 12 13 09
  22358739.492     7794833.139 6   6063740.285 2
  20519632.320    -5318860.105 7    710172.388 2
  23660300.133    -4185555.359 5  -3023095.073 1
  20241044.617   -18080480.955 7 -13950368.262 2
  20737025.750   -19833619.629 7 -13964370.950 2
 90 10 10 14  0 15.0000000  0  5 02 06 12 13 09
  22363676.031     7820772.890 6   6083953.006 1
  20522635.039    -5303081.158 7    722467.641 3
  23650624.570    -4236384.165 5  -3062701.890 1
  20239492.156   -18088638.823 7 -13956725.053 1
  20731890.344   -19860598.849 7 -13985393.725 2
 90 10 10 14  0 30.0000000  0  5 02 06 12 13 09
  22368619.367     7846758.981 6   6104201.830 1
  20525664.813    -5287161.402 7    734872.612 2
  23640951.813    -4287197.145 5  -3102296.409 1
  20237966.047   -18096659.616 7 -13962975.029 1
  20726779.484   -19887461.591 7 -14006325.735 2
 90 10 10 14  0 45.0000000  0  5 02 06 12 13 09
  22373572.797     7872780.025 6   6124477.895 1
  20528717.664    -5271112.030 7    747378.583 2
  23631285.320    -4338005.217 5  -3141887.104 1
  20236463.422   -18104554.783 7 -13969127.117 1
  20721688.914   -19914218.906 7 -14027175.593 2
 90 10 10 14  1  0.0000000  0  5 02 06 12 13 09
  22378533.586     7898848.623 6   6144791.020 1
  20531799.875    -5254920.438 7    759995.376 2
  23621619.859    -4388795.604 5  -3181463.999 1
  20234987.836   -18112311.862 7 -13975171.601 1
  20716618.813   -19940857.743 7 -14047933.136 2
 90 10 10 14  1 15.0000000  0  5 02 06 12 13 09
  22383501.313     7924958.715 6   6165136.472 1
  20534906.078    -5238592.933 7    772718.071 2
  23611958.469    -4439574.175 5  -3221031.720 1
  20233536.570   -18119937.191 7 -13981113.429 1
  20711569.641   -19967384.133 7 -14068603.055 2
 90 10 10 14  1 30.0000000  0  5 02 06 12 13 09
  22388478.766     7951112.641 6   6185516.073 1
  20538039.867    -5222127.036 7    785548.610 2
  23602301.125    -4490338.205 5  -3260588.092 1
  20232110.742   -18127428.470 7 -13986950.795 1
  20706544.586   -19993795.461 7 -14089183.317 2
 90 10 10 14  1 45.0000000  0  5 02 06 12 13 09
  22393464.461     7977310.627 6   6205930.016 1
  20541200.023    -5205522.509 7    798487.175 2
  23592644.516    -4541087.242 5  -3300132.782 1
  20230710.680   -18134785.812 7 -13992683.801 2
  20701540.969   -20020090.917 7 -14109673.283 2
 90 10 10 14  2  0.0000000  0  5 02 06 12 13 09
  22398455.328     8003549.220 6   6226375.600 1
  20544386.125    -5188782.954 7    811530.954 2
  23582988.219    -4591824.579 5  -3339668.350 1
  20229335.391   -18142012.689 7 -13998315.145 2
  20696557.812   -20046273.820 7 -14130075.557 2
 90 10 10 14  2 15.0000000  0  5 02 06 12 13 09
  22403456.961     8029829.787 6   6246853.891 1
  20547596.531    -5171906.999 7    824681.018 3
  23573335.305    -4642548.528 5  -3379193.501 1
  20227985.789   -18149107.767 7 -14003843.790 1
  20691597.086   -20072342.636 7 -14150388.922 2
 90 10 10 14  2 30.0000000  0  5 02 06 12 13 09
  22408467.891     8056151.417 6   6267364.171 1
  20550833.148    -5154895.549 7    837936.659 2
  23563682.297    -4693259.914 5  -3418708.838 1
  20226659.992   -18156072.197 7 -14009270.628 1
  20686659.859   -20098297.803 7 -14170613.737 2
 90 10 10 14  2 45.0000000  0  5 02 06 12 13 09
  22413483.539     8082515.287 6   6287907.367 1
  20554096.492    -5137747.405 7    851298.813 3
  23554039.023    -4743957.034 5  -3458213.096 1
  20225360.242   -18162904.784 7 -14014594.731 1
  20681740.680   -20124137.790 7 -14190748.796 2
 90 10 10 14  3  0.0000000  0  5 02 06 12 13 09
  22418509.148     8108925.710 6   6308486.834 1
  20557386.750    -5120458.231 7    864770.869 3
  23544391.180    -4794635.241 5  -3497702.574 1
  20224085.922   -18169601.436 7 -14019812.916 1
  20676846.539   -20149858.044 7 -14210790.560 2
 90 10 10 14  3 15.0000000  0  5 02 06 12 13 09
  22423544.344     8135381.302 6   6329101.502 1
  20560703.570    -5103029.478 7    878351.688 3
  23534753.008    -4845295.786 5  -3537178.319 1
  20222837.164   -18176163.903 7 -14024926.538 1
  20671975.570   -20175459.726 7 -14230739.929 2
 90 10 10 14  3 30.0000000  0  5 02 06 12 13 09
  22428589.852     8161881.879 6   6349751.221 1
  20564046.305    -5085461.344 7    892041.106 3
  23525115.281    -4895938.574 5  -3576640.206 1
  20221614.000   -18182592.566 7 -14029935.901 1
  20667124.586   -20200942.739 7 -14250596.828 2
 90 10 10 14  3 45.0000000  0  5 02 06 12 13 09
  22433637.125     8188421.049 6   6370431.021 1
  20567413.961    -5067760.352 7    905834.054 3
  23515483.539    -4946569.734 5  -3616093.046 1
  20220413.781   -18188893.813 7 -14034845.976 1
  20662298.109   -20226313.133 7 -14270365.971 2
 90 10 10 14  4  0.0000000  0  5 02 06 12 13 09
  22438696.172     8215004.021 6   6391144.946 1
  20570809.484    -5049921.272 7    919734.609 3
  23505852.891    -4997183.693 5  -3655532.469 1
  20219240.828   -18195062.324 7 -14039652.626 1
  20657492.953   -20251565.257 7 -14290042.956 2
 90 10 10 14  4 15.0000000  0  5 02 06 12 13 09
  22443762.688     8241630.076 6   6411892.446 1
  20574230.703    -5031944.803 7    933742.214 3
  23496224.234    -5047781.137 5  -3694959.028 1
  20218092.125   -18201099.070 7 -14044356.596 1
  20652710.000   -20276699.833 7 -14309628.345 2
 90 10 10 14  4 30.0000000  0  5 02 06 12 13 09
  22448838.594     8268293.500 6   6432669.065 1
  20577676.461    -5013836.733 7    947852.367 3
  23486593.836    -5098367.481 5  -3734376.955 1
  20216966.367   -18207009.975 7 -14048962.505 1
  20647949.523   -20301722.080 7 -14329126.209 2
 90 10 10 14  4 45.0000000  0  5 02 06 12 13 09
  22453916.469     8294996.544 6   6453476.551 1
  20581147.914    -4995594.843 7    962066.800 3
  23476973.234    -5148940.349 5  -3773784.365 1
  20215867.313   -18212793.064 7 -14053468.819 1
  20643207.828   -20326629.538 7 -14348534.615 2
 90 10 10 14  5  0.0000000  0  5 02 06 12 13 09
  22459010.453     8321748.206 6   6474321.912 1
  20584646.164    -4977210.160 7    976392.488 3
  23467353.844    -5199490.167 5  -3813173.806 1
  20214791.875   -18218439.483 7 -14057868.628 1
  20638492.813   -20351412.886 7 -14367846.333 2
 90 10 10 14  5 15.0000000  0  5 02 06 12 13 09
  22464108.219     8348541.187 6   6495199.493 1
  20588170.578    -4958690.253 7    990823.542 3
  23457735.195    -5250024.258 5  -3852551.016 1
  20213742.141   -18223956.732 7 -14062167.795 1
  20633799.023   -20376079.413 7 -14387067.010 2
 90 10 10 14  5 30.0000000  0  5 02 06 12 13 09
  22469213.141     8375376.043 6   6516109.685 1
  20591721.414    -4940034.325 7   1005360.591 3
  23448121.133    -5300541.440 5  -3891915.049 1
  20212717.461   -18229344.515 7 -14066366.073 1
  20629126.945   -20400627.743 7 -14406195.589 2
 90 10 10 14  5 45.0000000  0  5 02 06 12 13 09
  22474327.070     8402253.798 6   6537053.319 1
  20595295.320    -4921241.338 7   1020004.452 3
  23438515.617    -5351040.416 5  -3931264.892 1
  20211716.906   -18234601.745 7 -14070462.628 1
  20624477.977   -20425056.839 7 -14425231.257 2
 90 10 10 14  6  0.0000000  0  5 02 06 12 13 09
  22479454.859     8429179.662 6   6558034.435 1
  20598899.047    -4902306.336 7   1034758.971 3
  23428910.039    -5401515.919 5  -3970596.439 1
  20210741.820   -18239723.585 7 -14074453.670 1
  20619853.641   -20449361.350 7 -14444169.838 2
 90 10 10 14  6 15.0000000  0  5 02 06 12 13 09
  22484584.156     8456147.704 6   6579048.420 1
  20602528.828    -4883235.202 7   1049619.559 3
  23419306.727    -5451973.478 5  -4009913.999 1
  20209792.969   -18244716.007 7 -14078343.875 1
  20615249.930   -20473546.558 7 -14463015.464 2
 90 10 10 14  6 30.0000000  0  5 02 06 12 13 09
  22489726.602     8483160.087 6   6600096.944 1
  20606184.258    -4864025.883 7   1064587.827 3
  23409709.844    -5502410.822 5  -4049215.801 1
  20208867.688   -18249577.074 7 -14082131.720 1
  20610671.234   -20497610.445 7 -14481766.556 2
 90 10 10 14  6 45.0000000  0  5 02 06 12 13 09
  22494875.078     8510215.107 6   6621178.702 1
  20609865.531    -4844679.902 7   1079662.585 3
  23400116.563    -5552829.328 5  -4088502.939 1
  20207967.289   -18254308.530 7 -14085818.583 1
  20606115.688   -20521554.233 7 -14500424.061 2
 90 10 10 14  7  0.0000000  0  5 02 06 12 13 09
  22500028.633     8537311.254 6   6642292.500 1
  20613573.266    -4825199.016 7   1094842.470 3
  23390521.758    -5603230.103 5  -4127776.267 1
  20207090.320   -18258911.956 7 -14089405.670 1
  20601580.727   -20545378.866 7 -14518988.720 2
 90 10 10 14  7 15.0000000  0  5 02 06 12 13 09
  22505196.328     8564452.019 6   6663441.066 1
  20617306.797    -4805579.575 7   1110130.317 3
  23380934.930    -5653609.383 5  -4167032.827 1
  20206239.570   -18263384.091 7 -14092890.449 1
  20597072.781   -20569080.755 7 -14537457.733 2
 90 10 10 14  7 30.0000000  0  5 02 06 12 13 09
  22510367.820     8591642.061 6   6684628.036 1
  20621065.320    -4785817.144 7   1125529.582 3
  23371356.211    -5703962.351 5  -4206268.903 1
  20205414.563   -18267720.423 7 -14096269.411 1
  20592583.711   -20592655.011 7 -14555827.297 2
 90 10 10 14  7 45.0000000  0  5 02 06 12 13 09
  22515551.328     8618868.258 6   6705843.179 1
  20624853.078    -4765924.926 7   1141029.980 3
  23361777.383    -5754301.848 5  -4245494.476 1
  20204611.789   -18271934.421 7 -14099553.036 1
  20588122.906   -20616114.534 7 -14574107.458 2
 90 10 10 14  8  0.0000000  0  5 02 06 12 13 09
  22520742.016     8646149.395 6   6727101.136 1
  20628665.844    -4745883.958 7   1156646.288 3
  23352200.516    -5804608.627 5  -4284694.555 1
  20203837.805   -18276007.311 7 -14102726.721 1
  20583682.734   -20639440.156 7 -14592283.263 2
 90 10 10 14  8 15.0000000  0  5 02 06 12 13 09
  22525942.422     8673475.264 6   6748393.949 1
  20632506.227    -4725704.775 7   1172370.296 3
  23342632.359    -5854892.805 5  -4323877.023 1
  20203087.750   -18279949.815 7 -14105798.800 1
  20579266.648   -20662641.854 7 -14610362.512 2
 90 10 10 14  8 30.0000000  0  5 02 06 12 13 09
  22531149.453     8700842.970 6   6769719.356 1
  20636372.945    -4705390.117 7   1188199.872 3
  23333071.703    -5905156.945 5  -4363043.853 1
  20202362.609   -18283764.651 7 -14108771.395 1
  20574874.609   -20685722.015 7 -14628347.065 2
 90 10 10 14  8 45.0000000  0  5 02 06 12 13 09
  22536366.828     8728256.130 6   6791080.190 1
  20640262.711    -4684936.639 7   1204137.618 3
  23323505.477    -5955397.295 5  -4402192.153 1
  20201660.141   -18287448.566 7 -14111641.981 1
  20570506.594   -20708677.060 7 -14646234.128 2
 90 10 10 14  9  0.0000000  0  5 02 06 12 13 09
  22541591.359     8755717.508 6   6812478.594 1
  20644184.313    -4664341.610 7   1220185.661 3
  23313953.289    -6005610.819 5  -4441319.564 1
  20200985.656   -18290998.934 7 -14114408.497 1
  20566163.914   -20731504.132 7 -14664021.464 2
 90 10 10 14  9 15.0000000  0  5 02 06 12 13 09
  22546825.586     8783217.881 6   6833907.390 1
  20648127.109    -4643614.215 7   1236336.847 3
  23304401.375    -6055806.323 5  -4480432.933 1
  20200332.648   -18294425.110 7 -14117078.243 1
  20561842.820   -20754211.566 7 -14681715.577 2
 90 10 10 14  9 30.0000000  0  5 02 06 12 13 09
  22552068.727     8810764.645 6   6855372.336 1
  20652099.266    -4622747.103 7   1252596.905 3
  23294850.391    -6105976.094 5  -4519526.237 1
  20199705.289   -18297720.165 7 -14119645.820 1
  20557544.953   -20776792.042 7 -14699310.758 2
 90 10 10 14  9 45.0000000  0  5 02 06 12 13 09
  22557315.523     8838357.125 6   6876872.908 1
  20656096.492    -4601741.083 7   1268965.203 3
  23285309.188    -6156120.591 5  -4558599.869 1
  20199104.555   -18300884.726 7 -14122111.709 1
  20553272.180   -20799245.945 7 -14716807.313 2
 90 10 10 14 10  0.0000000  0  5 02 06 12 13 09
  22562575.461     8865987.252 6   6898402.811 1
  20660119.508    -4580604.134 7   1285435.526 3
  23275770.898    -6206247.508 5  -4597659.780 1
  20198525.203   -18303926.842 7 -14124482.184 1
  20549022.602   -20821581.061 7 -14734211.304 2
 90 10 10 14 10 15.0000000  0  5 02 06 12 13 09
  22567840.977     8893663.100 6   6919968.341 1
  20664167.711    -4559328.426 7   1302013.975 3
  23266235.711    -6256348.592 5  -4636699.575 1
  20197970.906   -18306838.502 7 -14126751.008 1
  20544796.437   -20843789.056 7 -14751516.242 2
 90 10 10 14 10 30.0000000  0  5 02 06 12 13 09
  22573119.844     8921382.136 6   6941567.519 1
  20668240.875    -4537916.627 7   1318698.467 3
  23256708.383    -6306426.120 5  -4675721.004 1
  20197441.563   -18309622.771 7 -14128920.565 1
  20540593.906   -20865872.165 7 -14768723.867 2
 90 10 10 14 10 45.0000000  0  5 02 06 12 13 09
  22578400.383     8949142.691 6   6963199.064 1
  20672340.398    -4516370.300 7   1335487.784 3
  23247178.258    -6356481.346 5  -4714725.055 1
  20196935.500   -18312281.634 7 -14130992.397 1
  20536414.984   -20887831.732 7 -14785835.223 2
 90 10 10 14 11  0.0000000  0  5 02 06 12 13 09
  22583692.219     8976944.851 6   6984863.012 1
  20676466.617    -4494689.573 7   1352381.827 3
  23237662.461    -6406514.119 5  -4753711.640 1
  20196451.813   -18314815.113 7 -14132966.530 1
  20532259.680   -20909667.500 7 -14802850.111 2
 90 10 10 14 11 15.0000000  0  5 02 06 12 13 09
  22588989.242     9004795.301 6   7006564.594 1
  20680618.656    -4472867.869 7   1369385.727 3
  23228145.031    -6456517.371 5  -4792675.193 1
  20195996.633   -18317216.430 7 -14134837.687 1
  20528130.805   -20931372.479 7 -14819763.088 2
 90 10 10 14 11 30.0000000  0  5 02 06 12 13 09
  22594298.859     9032686.982 6   7028298.300 1
  20684799.359    -4450912.051 7   1386494.126 3
  23218636.727    -6506497.874 5  -4831620.999 1
  20195562.648   -18319492.944 7 -14136611.588 1
  20524023.281   -20952953.463 7 -14836579.450 2
 90 10 10 14 11 45.0000000  0  5 02 06 12 13 09
  22599613.445     9060626.327 6   7050069.156 1
  20689004.000    -4428815.968 7   1403711.827 3
  23209132.375    -6556448.797 5  -4870543.782 1
  20195153.461   -18321638.483 7 -14138283.434 1
  20519940.430   -20974403.643 7 -14853293.889 2
 90 10 10 14 12  0.0000000  0  5 02 06 12 13 09
  22604939.930     9088606.746 6   7071872.006 1
  20693232.984    -4406586.038 7   1421033.826 3
  23199632.633    -6606376.411 5  -4909448.388 1
  20194769.438   -18323659.936 7 -14139858.593 1
  20515883.422   -20995729.226 7 -14869911.229 2
 90 10 10 14 12 15.0000000  0  5 02 06 12 13 09
  22610273.781     9116634.953 6   7093712.113 1
  20697490.352    -4384215.833 7   1438465.134 3
  23190138.250    -6656273.846 5  -4948329.483 1
  20194409.078   -18325550.552 7 -14141331.803 1
  20511849.000   -21016923.514 7 -14886426.269 2
 90 10 10 14 12 30.0000000  0  5 02 06 12 13 09
  22615613.570     9144703.780 6   7115583.862 1
  20701773.133    -4361712.642 7   1456000.054 3
  23180644.789    -6706148.000 5  -4987192.455 1
  20194071.734   -18327317.886 7 -14142708.944 1
  20507841.352   -21037993.337 7 -14902844.318 2
 90 10 10 14 12 45.0000000  0  5 02 06 12 13 09
  22620963.711     9172810.947 6   7137485.491 1
  20706078.391    -4339078.531 7   1473636.997 3
  23171159.977    -6756000.595 5  -5026038.620 1
  20193760.469   -18328964.205 7 -14143991.794 1
  20503853.188   -21058940.488 7 -14919166.778 2
 90 10 10 14 13  0.0000000  0  5 02 06 12 13 09
  22626317.492     9200960.860 6   7159420.429 1
  20710412.148    -4316309.551 7   1491379.032 3
  23161678.453    -6805827.228 5  -5064864.556 1
  20193470.508   -18330485.482 7 -14145177.201 1
  20499893.586   -21079760.438 7 -14935390.130 2
 90 10 10 14 13 14.9990000  0  5 02 06 12 13 09
  22631686.909     9229158.295 6   7181392.395 1
  20714770.112    -4293400.281 7   1509230.388 3
  23152198.362    -6855617.413 5  -5103662.084 1
  20193205.495   -18331875.207 7 -14146260.107 1
  20495956.276   -21100444.900 7 -14951507.901 2
 90 10 10 14 13 29.9990000  0  5 02 06 12 13 09
  22637059.362     9257404.224 6   7203402.138 1
  20719158.104    -4270350.855 7   1527190.947 3
  23142733.136    -6905380.554 5  -5142438.545 1
  20192966.808   -18333136.568 7 -14147242.993 1
  20492044.050   -21120999.154 7 -14967524.208 2
 90 10 10 14 13 44.9990000  0  5 02 06 12 13 09
  22642444.261     9285696.034 6   7225447.641 1
  20723569.605    -4247163.560 7   1545258.943 3
  23133269.464    -6955113.622 5  -5181191.566 1
  20192751.237   -18334270.234 7 -14148126.376 1
  20488158.784   -21141422.447 7 -14983438.471 2
 90 10 10 14 13 59.9990000  0  5 02 06 12 13 09
  22647836.886     9314028.432 6   7247524.768 1
  20728006.784    -4223843.768 7   1563430.180 3
  23123805.878    -7004821.639 5  -5219925.093 1
  20192559.729   -18335281.672 7 -14148914.511 1
  20484295.862   -21161719.580 7 -14999254.432 2
 90 10 10 14 14 14.9990000  0  5 02 06 12 13 09
  22653237.394     9342410.428 6   7269640.557 1
  20732471.526    -4200382.415 7   1581711.717 3
  23114352.722    -7054495.150 5  -5258631.719 1
  20192390.175   -18336162.074 7 -14149600.546 1
  20480460.073   -21181881.230 7 -15014964.814 2
 90 10 10 14 14 29.9990000  0  5 02 06 12 13 09
  22658645.995     9370832.212 6   7291787.339 1
  20736963.003    -4176789.358 7   1600095.890 3
  23104906.269    -7104143.722 5  -5297318.920 1
  20192244.690   -18336921.495 7 -14150192.315 1
  20476647.347   -21201916.953 7 -15030577.070 2
 90 10 10 14 14 44.9990000  0  5 02 06 12 13 09
  22664063.722     9399299.707 6   7313969.734 1
  20741478.472    -4153058.979 7   1618587.062 3
  23095467.659    -7153761.306 5  -5335981.955 1
  20192127.425   -18337554.432 7 -14150685.521 1
  20472858.729   -21221820.896 7 -15046086.643 2
 90 10 10 14 14 59.9990000  0  5 02 06 12 13 09
  22669489.159     9427818.038 6   7336191.747 1
  20746021.144    -4129186.413 7   1637189.036 3
  23086029.519    -7203342.575 5  -5374616.699 1
  20192029.151   -18338055.902 7 -14151076.291 1
  20469096.823   -21241587.557 7 -15061489.244 2
 90 10 10 14 15 14.9990000  0  5 02 06 12 13 09
  22674923.229     9456377.807 6   7358446.054 1
  20750588.417    -4105180.825 7   1655894.653 3
  23076602.573    -7252896.446 5  -5413230.110 1
  20191956.784   -18338435.267 7 -14151371.913 1
  20465360.394   -21261225.848 7 -15076791.816 2
 90 10 10 14 15 29.9990000  0  5 02 06 12 13 09
  22680367.534     9484979.728 6   7380733.186 1
  20755181.198    -4081041.665 7   1674704.354 3
  23067177.573    -7302421.911 5  -5451821.373 1
  20191910.769   -18338692.158 7 -14151572.101 1
  20461648.784   -21280734.878 7 -15091993.665 2
 90 10 10 14 15 44.9990000  0  5 02 06 12 13 09
  22685822.144     9513626.715 6   7403055.456 1
  20759801.386    -4056766.003 7   1693620.428 3
  23057758.339    -7351915.663 5  -5490387.933 1
  20191883.558   -18338823.723 7
  20457962.151   -21300111.583 7 -15107092.403 2
 90 10 10 14 15 59.9990000  0  5 02 06 12 13 09
  22691277.065     9542312.487 6   7425407.945 1
  20764445.925    -4032360.376 7   1712637.770 3
  23048344.925    -7401383.724 5  -5528934.451 1
  20191882.089   -18338836.661 7
  20454297.855   -21319361.823 7 -15122092.598 2
 90 10 10 14 16 14.9990000  0  5 02 06 12 13 09
  22696740.753     9571036.766 6   7447790.432 1
  20769115.769    -4007825.143 7   1731756.100 3
  23038935.964    -7450826.183 5  -5567461.015 1
  20191903.698   -18338731.358 7
  20450658.026   -21338485.671 7 -15136994.305 2
 90 10 10 14 16 29.9990000  0  5 02 06 12 13 09
  22702217.972     9599806.515 6   7470208.340 1
  20773809.284    -3983153.505 7   1750980.732 3
  23029533.042    -7500235.894 5  -5605962.086 1
  20191947.581   -18338501.003 7
  20447044.409   -21357476.077 7 -15151792.035 2
 90 10 10 14 16 44.9990000  0  5 02 06 12 13 09
  22707698.128     9628609.925 6   7492652.493 1
  20778527.503    -3958357.308 7   1770302.407 3
  23020135.565    -7549624.239 5  -5644446.491 1
  20192013.378   -18338157.625 7
  20443455.073   -21376344.407 7 -15166494.634 2
 90 10 10 14 16 59.9990000  0  5 02 06 12 13 09
  22713186.120     9657449.512 6   7515124.825 1
  20783272.081    -3933434.114 7   1789723.046 3
  23010743.737    -7598988.353 5  -5682912.023 1
  20192098.253   -18337698.757 7        -0.09611
  20439887.589   -21395087.973 7 -15181100.019 2
 90 10 10 14 17 14.9990000  0  5 02 06 12 13 09
  22718685.886     9686332.006 6   7537630.590 1
  20788038.409    -3908377.341 7   1809247.777 3
  23001356.026    -7648321.267 5  -5721353.230 1
  20192208.769   -18337118.285 7       452.208 1
  20436345.972   -21413699.796 7 -15195602.750 2
 90 10 10 14 17 29.9990000  0  5 02 06 12 13 09
  22724190.159     9715266.720 6   7560177.047 1
  20792833.479    -3883177.579 7   1828883.916 3
  22991975.542    -7697613.101 6  -5759762.445 1
  20192345.323   -18336406.964 7      1006.467 1
  20432831.456   -21432170.033 7 -15209995.145 2
 90 10 10 14 17 44.9990000  0  5 02 06 12 13 09
  22729702.659     9744239.427 6   7582753.125 1
  20797654.276    -3857849.359 7   1848620.160 3
  22982600.714    -7746877.925 6  -5798150.616 1
  20192501.401   -18335579.078 7      1651.559 1
  20429338.815   -21450513.051 7 -15224288.414 2
 90 10 10 14 17 59.9990000  0  5 02 06 12 13 09
  22735224.323     9773254.083 6   7605361.873 1
  20802497.776    -3832388.789 7   1868459.529 3
  22973231.167    -7796111.508 6  -5836514.428 1
  20192681.425   -18334631.104 7      2390.233 1
  20425875.331   -21468724.507 7 -15238479.170 2
 90 10 10 14 18 29.9990000  0  5 02 06 12 13 09
  22746443.714          -0.55716
  20812419.550       26425.075 7
  22954665.237      -48469.609 6
  20193264.519                          -0.32117
  20419173.878          -0.32217
 90 10 10 14 18 44.9990000  0  5 02 06 12 13 09
  22752131.940       29886.520 6
  20817482.550       53028.696 7
  22945456.065      -96861.018 6
  20193656.269                        2053.570 7
  20415925.604      -17068.627 7
 90 10 10 14 18 59.9990000  0  5 02 06 12 13 09
  22757829.972       59836.643 6
  20822572.878       79785.353 7        -0.12013
  22936260.448     -145198.771 6        -0.25311
  20194073.675        4247.873 7        -0.18511
  20412706.245      -33983.297 7        -0.17112
 90 10 10 14 19 14.9990000  0  5 02 06 12 13 09
  22763539.628       89839.217 6        -0.46311
  20827691.136      106684.345 7     20960.101 3
  22927068.925     -193493.251 6    -37632.305 1
  20194514.198        6571.512 7      1810.433 1
  20409516.214      -50754.736 7    -13068.829 2
 90 10 10 14 19 29.9990000  0  5 02 06 12 13 09
  22769259.933      119897.405 6     23421.427 1
  20832838.964      133728.536 7     42033.466 3
  22917884.526     -241741.226 6    -75228.144 1
  20194984.026        9027.563 7      3724.225 1
  20406350.894      -67379.513 7    -26023.211 2
 90 10 10 14 19 44.9990000  0  5 02 06 12 13 09
  22774988.284      150004.213 6     46881.210 1
  20838011.979      160910.996 7     63214.568 3
  22908712.386     -289949.166 6   -112792.765 1
  20195474.956       11609.096 7      5735.798 1
  20403214.464      -83864.166 7    -38868.409 2
 90 10 10 14 19 59.9990000  0  5 02 06 12 13 09
  22780728.534      180164.285 6     70382.485 1
  20843210.151      188236.240 7     84506.923 3
  22899549.190     -338112.026 6   -150322.269 1
  20195990.487       14320.474 7      7848.555 1
  20400104.972     -100203.988 7    -51600.741 2
 90 10 10 14 20 14.9990000  0  5 02 06 12 13 09
  22786478.472      210372.459 6     93921.251 1
  20848434.753      215699.022 7    105906.457 3
  22890391.612     -386234.671 6   -187820.407 1
  20196530.206       17156.327 7     10058.299 1
  20397021.081     -116403.698 7    -64223.894 2
 90 10 10 14 20 29.9990000  0  5 02 06 12 13 09
  22792235.995      240630.695 6    117499.029 1
  20853688.628      243301.188 7    127414.605 3
  22881240.597     -434314.838 6   -225285.480 1
  20197093.948       20118.410 7     12366.403 1
  20393966.815     -132461.311 7    -76736.332 2
 90 10 10 14 20 44.9990000  0  5 02 06 12 13 09
  22798001.761      270936.954 6    141114.233 1
  20858967.706      271040.499 7    149029.610 3
  22872099.862     -482354.425 6   -262718.905 1
  20197681.831       23204.416 7     14771.066 1
  20390936.714     -148378.505 7    -89139.353 2
 90 10 10 14 20 59.9990000  0  5 02 06 12 13 09
  22803782.847      301302.786 6    164775.856 1
  20864272.417      298928.333 7    170760.346 3
  22862967.300     -530341.616 6   -300111.515 1
  20198295.159       26425.544 7     17281.021 1
  20387937.597     -164143.586 7   -101423.843 2
 90 10 10 14 21 14.9990000  0  5 02 06 12 13 09
  22809566.034      331716.143 6    188474.510 1
  20869607.854      326952.490 7    192597.316 3
  22853845.011     -578288.093 6   -337472.401 1
  20198929.792       29769.514 7     19886.706 1
  20384965.300     -179768.400 7   -113599.036 2
 90 10 10 14 21 29.9990000  0  5 02 06 12 13 09
  22815368.675      362185.759 6    212217.004 1
  20874966.136      355121.537 7    214547.180 3
  22844732.542     -626184.825 6   -374794.514 1
  20199592.042       33244.684 7     22594.621 2
  20382019.433     -195243.969 7   -125657.928 2
 90 10 10 14 21 44.9990000  0  5 02 06 12 13 09
  22821173.308      392701.747 6    235995.626 1
  20880353.081      383425.702 7    236602.331 3
  22835622.722     -674041.288 6   -412085.248 1
  20200275.675       36841.307 7     25397.173 2
  20379101.315     -210579.737 7   -137607.883 2
 90 10 10 14 21 59.9990000  0  5 02 06 12 13 09
  22826987.636      423257.545 6    259805.261 1
  20885766.456      411858.105 7    258757.414 3
  22826521.706     -721863.870 6   -449349.603 1
  20200982.269       40552.372 7     28288.902 1
  20376208.878     -225782.146 7   -149453.922 2
 90 10 10 14 22 14.9990000  0  5 02 06 12 13 09
  22832812.979      453860.391 6    283651.566 1
  20891200.870      440425.839 7    281017.940 3
  22817428.862     -769645.011 6   -486581.657 1
  20201710.229       44384.842 7     31275.230 1
  20373342.065     -240843.916 7   -161190.370 2
 90 10 10 14 22 29.9990000  0  5 02 06 12 13 09
  22838642.292      484503.867 6    307529.536 1
  20896663.636      469122.532 7    303378.958 3
  22808344.237     -817390.561 6   -523785.976 1
  20202462.964       48332.354 7     34351.206 1
  20370501.839     -255770.974 7   -172821.857 2
 90 10 10 14 22 44.9990000  0  5 02 06 12 13 09
  22844482.222      515197.460 6    331446.549 1
  20902150.972      497957.580 7    325847.782 3
  22799268.261     -865090.747 6   -560954.950 1
  20203236.620       52403.972 7     37523.888 2
  20367687.284     -270553.438 7   -184340.668 2
 90 10 10 14 22 59.9990000  0  5 02 06 12 13 09
  22850334.308      545941.218 6    355402.658 1
  20907663.745      526930.764 7    348424.248 3
  22790198.706     -912745.210 6   -598088.286 1
  20204036.714       56599.588 7     40793.190 1
  20364902.753     -285191.320 7   -195746.816 2
 90 10 10 14 23 14.9990000  0  5 02 06 12 13 09
  22856198.409      576734.747 6    379397.543 1
  20913201.308      556041.687 7    371108.049 3
  22781141.245     -960354.039 6   -635186.065 1
  20204857.425       60918.830 7     44158.824 1
  20362145.948     -299684.651 7   -207040.331 2
 90 10 10 14 23 29.9990000  0  5 02 06 12 13 09
  22862066.675      607575.459 6    403429.190 1
  20918766.378      585287.503 7    393896.954 3
  22772088.284    -1007919.646 6   -672250.165 1
  20205703.589       65358.390 7     47618.214 1
  20359413.980     -314035.940 7   -218223.163 2
 90 10 10 14 23 44.9990000  0  5 02 06 12 13 09
  22867945.058      638469.943 6    427502.730 1
  20924360.214      614674.626 7    416795.964 3
  22763047.831    -1055435.028 6   -709275.129 1
  20206572.526       69924.793 7     51176.443 1
  20356711.386     -328238.183 7   -229289.857 2
 90 10 10 14 23 59.9990000  0  5 02 06 12 13 09
  22873832.542      669413.587 6    451614.581 1
  20929977.151      644198.193 7    439801.294 3
  22754012.222    -1102904.589 6   -746264.399 1
  20207465.167       74613.122 7     54829.677 1
  20354036.714     -342296.025 7   -240244.025 2
 90 10 10 14 24 14.9990000  0  5 02 06 12 13 09
  22879729.886      700399.865 6    475759.667 1
  20935619.050      673851.647 7    462907.835 3
  22744985.847    -1150334.538 6   -783222.801 1
  20208378.847       79416.606 7     58572.646 2
  20351388.644     -356215.627 7   -251090.473 2
 90 10 10 14 24 29.9990000  0  5 02 06 12 13 09
  22885631.401      731436.216 6    499943.757 1
  20941290.354      703642.577 7    486121.497 3
  22735971.011    -1197716.755 6   -820144.021 1
  20209314.573       84342.708 7     62411.158 1
  20348767.042     -369989.105 7   -261823.059 2
 90 10 10 14 24 44.9990000  0  5 02 06 12 13 09
  22891549.683      762526.105 6    524169.563 1
  20946985.628      733573.906 7    509444.571 3
  22726963.933    -1245047.715 6   -857025.278 1
  20210276.519       89394.543 7     66347.645 1
  20346173.878     -383613.112 7   -272439.176 2
 90 10 10 14 24 59.9990000  0  5 02 06 12 13 09
  22897476.698      793665.229 6    548433.720 1
  20952705.167      763641.309 7    532873.665 3
  22717965.714    -1292331.488 6   -893869.781 1
  20211260.722       94567.534 7     70378.538 2
  20343610.354     -397091.673 7   -282941.966 2
 90 10 10 14 25 14.9990000  0  5 02 06 12 13 09
  22903409.761      824859.035 6    572740.495 1
  20958456.151      793850.250 7    556413.056 3
  22708978.597    -1339562.110 6   -930672.861 1
  20212269.050       99867.018 7     74507.990 2
  20341073.019     -410418.793 7   -293326.744 2
 90 10 10 14 25 29.9990000  0  5 02 06 12 13 09
  22909357.331      856102.378 6    597085.874 1
  20964230.581      824195.376 7    580058.555 3
  22699998.956    -1386744.449 6   -967438.321 1
  20213301.323      105287.511 7     78731.742 2
  20338564.198     -423599.688 7   -303597.576 2
 90 10 10 14 25 44.9990000  0  5 02 06 12 13 09
  22915311.776      887390.834 6    621466.401 1
  20970029.089      854672.062 7    603806.571 3
  22691026.425    -1433882.619 6  -1004169.366 1
  20214354.745      110824.236 7     83046.061 1
  20336083.073     -436638.451 7   -313757.665 2
 90 10 10 14 25 59.9990000  0  5 02 06 12 13 09
  22921278.019      918729.446 6    645886.022 1
  20975854.964      885285.307 7    627660.992 3
  22682066.605    -1480971.155 6  -1040861.743 1
  20215430.987      116482.274 7     87454.914 2
  20333630.159     -449529.629 7   -323802.746 2
 90 10 10 14 26 14.9990000  0  5 02 06 12 13 09
  22927244.003      950105.866 6    670335.098 1
  20981704.901      916022.431 7    651611.958 3
  22673116.901    -1528022.334 6  -1077524.990 1
  20216529.269      122248.756 7     91948.266 2
  20331203.089     -462285.641 7   -333742.507 2
 90 10 10 14 26 29.9990000  0  5 02 06 12 13 09
  22933230.292      981533.115 6    694823.770 1
  20987579.370      946896.349 7    675669.508 3
  22664170.136    -1575022.759 6  -1114148.698 1
  20217650.128      128136.485 7     96536.104 1
  20328803.761     -474893.324 7   -343566.691 2
 90 10 10 14 26 44.9990000  0  5 02 06 12 13 09
  22939213.495     1013005.828 5    719347.881 1
  20993480.776      977901.619 7    699829.409 3
  22655238.800    -1621977.355 6  -1150736.704 1
  20218792.495      134139.977 7    101214.137 2
  20326431.425     -487357.621 7   -353279.139 2
 90 10 10 14 26 59.9990000  0  5 02 06 12 13 09
  22945212.097     1044522.345 6    743906.118 1
  20999405.073     1009036.397 7    724090.242 3
  22646308.558    -1668887.530 6  -1187290.076 1
  20219955.862      140257.268 7    105980.842 1
  20324087.144     -499679.919 7   -362880.941 2
 90 10 10 14 27 14.9990000  0  5 02 06 12 13 09
  22951216.253     1076081.576 5    768497.638 1
  21005353.183     1040299.340 7    748450.921 3
  22637391.823    -1715754.093 6  -1223809.475 1
  20221141.198      146486.930 7    110835.114 1
  20321768.558     -511861.392 7   -372373.011 2
 90 10 10 14 27 29.9990000  0  5 02 06 12 13 09
  22957231.894     1107683.575 6    793122.466 1
  21011325.159     1071690.497 7    772911.518 3
  22628482.183    -1762576.671 6  -1260294.601 1
  20222348.722      152828.888 7    115776.888 2
  20319477.956     -523901.626 7   -381755.024 2
 90 10 10 14 27 44.9990000  0  5 02 06 12 13 09
  22963257.058     1139333.403 5
  21017325.339     1103214.544 7
  22619580.886    -1809349.965 6  -1296741.316 1
  20223577.026      159287.820 7    120809.814 2
  20317214.737     -535795.323 7   -391022.854 2
 90 10 10 14 27 59.9990000  0  5 02 06 12 13 09
  22969289.995     1171026.680 5
  21023348.901     1134867.104 7
  22610690.495    -1856077.750 6  -1333152.582 1
  20224827.534      165859.401 7    125930.515 1
  20314980.448     -547546.696 7   -400179.782 2
 90 10 10 14 28 14.9990000  0  5 02 06 12 13 09
  22975327.972     1202764.473 6
  21029397.042     1166649.157 7
  22601805.776    -1902758.540 6  -1369527.219 1
  20226100.276      172544.498 7    131139.668 1
  20312772.120     -559154.329 7   -409224.707 2
 90 10 10 14 28 29.9990000  0  5 02 06 12 13 09
  22981373.511     1234550.663 5    891979.587 1
  21035471.104     1198564.352 7    871774.067 3
  22592931.362    -1949388.319 6  -1405862.116 1
  20227393.729      179346.407 7    136439.846 2
  20310588.776     -570614.130 7   -418154.430 2
 90 10 10 14 28 44.9990000  0  5 02 06 12 13 09
  22987433.636     1266389.012 5    916788.608 1
  21041570.284     1230616.229 7    896749.502 3
  22584070.581    -1995963.229 6  -1442154.254 1
  20228711.323      186268.631 7    141833.780 1
  20308436.167     -581922.448 7   -426966.127 2
 90 10 10 14 28 59.9990000  0  5 02 06 12 13 09
  22993498.097     1298267.901 5    941629.205 1
  21047693.972     1262793.058 7    921822.311 3
  22575215.675    -2042494.294 6  -1478412.217 1
  20230050.698      193299.461 7    147312.334 2
  20306312.315     -593090.528 7   -435668.540 2
 90 10 10 14 29 14.9990000  0  5 02 06 12 13 09
  22999574.222     1330188.344 6    966502.182 1
  21053840.401     1295095.810 7    946993.236 3
  22566368.956    -2088980.114 6  -1514634.930 1
  20231408.573      200439.670 7    152876.128 1
  20304213.940     -604116.869 7   -444260.509 2
 90 10 10 14 29 29.9990000  0  5 02 06 12 13 09
  23005659.706     1362149.882 6    991407.181 1
  21060010.487     1327523.720 7    972261.692 2
  22557532.651    -2135420.983 6  -1550822.624 1
  20232787.854      207688.494 7    158524.544 2
  20302143.065     -615002.037 7   -452742.471 2
 90 10 10 14 29 44.9990000  0  5 02 06 12 13 09
  23011746.909     1394157.642 6   1016348.206 1
  21066206.198     1360081.825 7    997631.595 2
  22548704.269    -2181811.407 6  -1586971.003 1
  20234188.886      215050.900 7    164261.475 1
  20300099.683     -625740.566 7   -461110.167 2
 90 10 10 14 29 59.9990000  0  5 02 06 12 13 09
  23017850.104     1426216.588 6   1041329.105 1
  21072427.565     1392774.839 7   1023106.620 2
  22539885.112    -2228145.981 6  -1623075.866 1
  20235612.229      222531.715 7    170090.668 2
  20298084.698     -636327.356 7   -469359.632 2
 90 10 10 14 30 14.9990000  0  5 02 06 12 13 09
  23023957.870     1458332.219 6   1066354.198 1
  21078675.237     1425608.185 7   1048690.998 3
  22531079.472    -2274418.930 6  -1659132.721 1
  20237059.011      230136.013 7    176016.086 2
  20296099.612     -646756.513 7   -477486.259 2
 90 10 10 14 30 29.9990000  0  5 02 06 12 13 09
  23030083.019     1490513.856 6   1091430.713 1
  21084952.261     1458591.088 7   1074391.908 3
  22522287.019    -2320620.403 6  -1695133.873 1
  20238531.323      237873.191 7    182045.041 2
  20294148.495     -657018.627 7   -485482.724 2
 90 10 10 14 30 44.9990000  0  5 02 06 12 13 09
  23036214.058     1522725.863 6   1116530.881 1
  21091250.120     1491687.726 7   1100181.447 3
  22513505.370    -2366785.869 6  -1731106.964 1
  20240022.878      245707.220 7    188149.461 2
  20292218.737     -667149.074 7   -493376.591 2
 90 10 10 14 30 59.9990000  0  5 02 06 12 13 09
  23042350.604     1554974.628 6   1141659.702 1
  21097571.370     1524904.187 7   1126064.356 3
  22504724.776    -2412908.565 6  -1767046.722 1
  20241532.831      253644.017 7    194333.973 2
  20290317.558     -677141.312 7   -501162.765 2
 90 10 10 14 31 14.9990000  0  5 02 06 12 13 09
  23048495.011     1587270.824 6   1166825.470 1
  21103917.315     1558250.988 7   1152048.828 3
  22495960.026    -2458977.564 6  -1802944.646 1
  20243063.425      261694.037 7    200606.699 2
  20288445.815     -686984.555 7   -508832.834 2
 90 10 10 14 31 29.9990000  0  5 02 06 12 13 09
  23054648.972     1619620.618 6   1192033.015 1
  21110290.370     1591734.164 7   1178139.560 3
  22487207.464    -2504986.320 6  -1838795.636 1
  20244619.542      269863.187 7    206972.253 2
  20286600.729     -696672.520 7   -516381.910 2
 90 10 10 14 31 44.9990000  0  5 02 06 12 13 09
  23060818.229     1652016.148 6   1217276.204 1
  21116684.729     1625345.639 7   1204330.268 3
  22478460.292    -2550942.288 6  -1874605.483 1
  20246194.065      278143.319 7    213424.297 1
  20284785.956     -706212.723 7   -523815.842 2
 90 10 10 14 31 59.9990000  0  5 02 06 12 13 09
  23066992.300     1684456.224 6   1242554.087 1
  21123106.112     1659084.024 7   1230619.871 3
  22469723.573    -2596846.500 6  -1910375.001 1
  20247792.573      286532.745 7    219961.499 2
  20282999.065     -715606.275 7   -531135.500 2
 90 10 10 14 32 14.9990000  0  5 02 06 12 13 09
  23073171.839     1716930.109 6   1267858.309 1
  21129548.144     1692938.413 7   1256999.869 3
  22460998.909    -2642709.289 6  -1946112.256 1
  20249406.714      295020.808 7    226575.559 2
  20281237.245     -724863.755 7   -538349.132 2
 90 10 10 14 32 29.9990000  0  5 02 06 12 13 09
  23079356.386     1749441.236 6   1293191.560 1
  21136012.745     1726912.054 7   1283472.785 3
  22452279.784    -2688526.818 6  -1981814.221 1
  20251042.355      303610.753 7    233269.011 2
  20279500.831     -733981.476 7   -545453.865 2
 90 10 10 14 32 44.9990000  0  5 02 06 12 13 09
  23085554.870     1782008.173 5   1318568.289 1
  21142505.151     1761023.367 7   1310052.975 2
  22443574.347    -2734280.355 6  -2017466.345 1
  20252698.222      312320.491 7    240055.809 2
  20277797.026     -742940.698 7   -552435.087 2
 90 10 10 14 32 59.9990000  0  5 02 06 12 13 09
  23091759.495     1814608.743 6   1343971.217 1
  21149016.034     1795249.896 7   1336722.948 3
  22434872.612    -2779991.633 6  -2053085.512 1
  20254375.745      321128.052 7    246918.840 2
  20276118.136     -751763.273 7   -559309.828 2
 90 10 10 14 33 14.9990000  0  5 02 06 12 13 09
  23097972.940     1847256.269 6   1369410.748 1
  21155552.612     1829605.060 7   1363493.146 2
  22426185.558    -2825646.870 6  -2088661.030 1
  20256071.300      330046.548 7    253868.305 2
  20274468.901     -760435.702 7   -566067.577 2
 90 10 10 14 33 29.9990000  0  5 02 06 12 13 09
  23104190.151     1879945.577 6   1394882.844 1
  21162115.854     1864083.307 7   1390359.261 2
  22417507.331    -2871250.866 6  -2124196.616 1
  20257788.878      339070.465 7    260899.917 2
  20272844.456     -768963.143 7   -572712.352 2
 90 10 10 14 33 44.9990000  0  5 02 06 12 13 09
  23110421.644     1912691.376 6   1420398.956 1
  21168702.050     1898699.137 7   1417332.591 3
  22408840.651    -2916788.788 6  -2159680.720 1
  20259527.808      348214.134 7    268024.842 1
  20271252.245     -777330.661 7   -579232.507 2
 90 10 10 14 33 59.9990000  0  5 02 06 12 13 09
  23116663.597     1945490.495 6   1445956.611 1
  21175314.831     1933449.279 7   1444410.564 3
  22400187.573    -2962263.399 6  -2195115.487 1
  20261291.003      357474.235 7    275240.492 2
  20269691.198     -785541.099 7   -585630.262 2
 90 10 10 14 34 14.9990000  0  5 02 06 12 13 09
  23122916.917     1978342.814 6   1471555.738 1
  21181953.948     1968333.442 7   1471592.971 2
  22391547.198    -3007674.331 6  -2230500.641 1
  20263075.081      366850.247 7    282546.458 2
  20268157.714     -793594.357 7   -591905.539 2
 90 10 10 14 34 29.9990000  0  5 02 06 12 13 09
  23129174.315     2011247.255 6   1497195.457 1
  21188618.370     2003350.309 7   1498878.787 3
  22382918.073    -3053022.420 6  -2265836.807 1
  20264881.644      376340.994 7    289941.833 2
  20266654.761     -801491.569 7   -598059.228 2
 90 10 10 14 34 44.9990000  0  5 02 06 12 13 09
  23135447.987     2044207.121 6   1522878.381 1
  21195305.706     2038503.168 7   1526270.570 3
  22374302.409    -3098303.841 6  -2301121.035 1
  20266708.284      385949.414 7    297428.902 2
  20265182.808     -809228.912 7   -604088.337 1
 90 10 10 14 34 59.9990000  0  5 02 06 12 13 09
  23141729.550     2077219.170 6   1548601.963 1
  21202021.690     2073788.495 7   1553765.576 2
  22365697.308    -3143521.679 6  -2336355.718 1
  20268559.214      395672.092 7    305004.998 2
  20263740.620     -816809.644 7   -609995.413 2
 90 10 10 14 35 14.9990000  0  5 02 06 12 13 09
  23148023.558     2110283.690 6   1574366.425 1
  21208763.120     2109206.118 7   1581363.671 3
  22357104.815    -3188675.309 6  -2371540.365 1
  20270431.776      405508.820 7    312669.959 2
  20262326.183     -824233.359 7   -615780.144 2
 90 10 10 14 35 29.9990000  0  5 02 06 12 13 09
  23154321.800     2143384.891 6   1600159.474 1
  21215522.948     2144740.285 7   1609052.579 2
  22348521.612    -3233780.209 6  -2406687.037 1
  20272322.776      415443.795 7    320411.488 2
  20260940.042     -831515.770 7   -621454.760 2
 90 10 10 14 35 44.9990000  0  5 02 06 12 13 09
  23160632.300     2176543.598 6   1625997.343 1
  21222312.065     2180411.665 7   1636848.408 2
  22339949.300    -3278814.985 6  -2441779.074 1
  20274236.175      425497.676 7    328245.663 2
  20259588.714     -838635.699 7   -627002.768 2
 90 10 10 14 35 59.9990000  0  5 02 06 12 13 09
  23166950.792     2209747.318 6   1651870.276 1
  21229124.808     2216207.646 7   1664741.330 2
  22331392.909    -3323791.864 6  -2476825.997 1
  20276169.479      435657.767 7    336162.593 2
  20258261.847     -845605.313 7   -632433.649 2
 90 10 10 14 36 14.9990000  0  5 02 06 12 13 09
  23173277.308     2243010.140 6   1677789.258 1
  21235960.698     2252141.909 7   1692742.004 2
  22322845.675    -3368696.544 6  -2511816.665 1
  20278124.690      445937.796 7    344172.987 2
  20256965.495     -852410.614 7   -637736.503 2
 90 10 10 14 36 29.9990000  0  5 02 06 12 13 09
  23179615.878     2276315.755 6   1703741.604 1
  21242821.878     2288198.085 7   1720837.664 2
  22314314.347    -3413544.850 6  -2546763.399 1
  20280100.729      456320.965 7    352263.756 2
  20255698.714     -859067.745 7   -642923.893 1
 90 10 10 14 36 44.9990000  0  5 02 06 12 13 09
  23185968.878     2309672.303 6   1729733.623 1
  21249707.097     2324384.075 7   1749034.488 2
  22305789.198    -3458328.498 6  -2581659.751 1
  20282097.386      466815.048 7    360440.954 2
  20254462.042     -865568.202 7   -647989.193 1
 90 10 10 14 36 59.9990000  0  5 02 06 12 13 09
  23192326.276     2343085.686 6   1755769.948 1
  21256620.620     2360705.623 7   1777336.944 2
  22297281.175    -3503041.184 6  -2616500.816 1
  20284117.620      477425.905 7    368709.137 2
  20253255.800     -871905.913 7   -652927.689 1
 90 10 10 14 37 14.9990000  0  5 02 06 12 13 09
  23198691.448     2376547.453 6   1781843.967 1
  21263555.737     2397153.944 7   1805738.180 2
  22288784.690    -3547690.946 6  -2651292.844 1
  20286156.526      488144.740 7    377061.457 2
  20252079.573     -878089.411 7   -657746.015 1
 90 10 10 14 37 29.9990000  0  5 02 06 12 13 09
  23205069.831     2410057.357 6   1807955.484 1
  21270514.761     2433728.769 7   1834237.989 2
  22280300.479    -3592277.656 6  -2686035.746 1
  20288216.761      498971.178 7    385497.625 2
  20250932.737     -884118.725 7   -662444.195 2
 90 10 10 14 37 44.9990000  0  5 02 06 12 13 09
  23211454.987     2443604.140 6   1834095.745 1
  21277497.722     2470418.581 7   1862827.403 2
  22271826.729    -3636812.151 6  -2720737.949 1
  20290295.753      509893.633 7    394008.615 2
  20249811.479     -890004.583 7   -667030.593 1
 90 10 10 14 37 59.9990000  0  5 02 06 12 13 09
  23217845.230     2477185.440 6   1860262.887 1
  21284501.065     2507220.783 7   1891504.392 2
  22263361.862    -3681296.486 6  -2755401.079 1
  20292391.894      520909.560 7    402592.435 1
  20248718.339     -895749.532 7   -671507.191 1
 90 10 10 14 38 14.9990000  0  5 02 06 12 13 09
  23224241.948     2510808.830 6   1886462.846 1
  21291526.417     2544142.720 7   1920274.676 2
  22254906.964    -3725722.800 6  -2790018.981 1
  20294507.644      532026.271 7    411254.796 2
  20247653.183     -901345.779 7   -675867.921 1
 90 10 10 14 38 29.9990000  0  5 02 06 12 13 09
  23230646.690     2544474.146 6   1912695.445 1
  21298576.690     2581184.050 7   1949137.993 2
  22246463.800    -3770090.945 6  -2824591.575 1
  20296642.573      543243.349 7    419995.359 2
  20246617.175     -906793.517 7   -680112.920 1
 90 10 10 14 38 44.9990000  0  5 02 06 12 13 09
  23237061.284     2578187.759 6   1938965.711 1
  21305649.081     2618351.143 7   1978099.309 2
  22238032.854    -3814394.116 6  -2859113.526 1
  20298797.245      554567.038 7    428818.999 2
  20245609.370     -912085.890 7   -684236.860 1
 90 10 10 14 38 59.9990000  0  5 02 06 12 13 09
  23243487.620     2611944.388 6   1965269.478 1
  21312744.690     2655638.205 7   2007154.101 2
  22229615.440    -3858637.351 6  -2893588.776 1
  20300970.034      565991.579 7    437721.219 2
  20244631.894     -917228.024 7   -688243.737 1
 90 10 10 14 39 14.9990000  0  5 02 06 12 13 09
  23249919.933     2645752.961 6   1991613.722 1
  21319864.136     2693054.093 7   2036309.281 2
  22221208.917    -3902811.330 6  -2928010.067 1
  20303165.769      577525.727 7    446708.851 2
  20243683.034     -922210.981 7   -692126.576 1
 90 10 10 14 39 29.9990000  0  5 02 06 12 13 09
  23256363.940     2679612.388 6   2017997.606 1
  21327010.159     2730597.540 7   2065563.862 2
  22212815.261    -3946916.746 6  -2962377.922 1
  20305381.940      589168.195 7    455780.895 2
  20242763.698     -927035.712 7   -695886.125 1
 90 10 10 14 39 44.9990000  0  5 02 06 12 13 09
  23262817.526     2713526.989 6   2044424.472 1
  21334178.440     2768272.589 7   2094920.992 2
  22204437.354    -3990948.937 6  -2996688.727 1
  20307617.636      600922.945 7    464940.422 2
  20241878.511     -931697.589 7   -699518.772 1
 90 10 10 14 39 59.9990000  0  5 02 06 12 13 09
  23269277.745     2747486.369 6   2070886.232 1
  21341371.464     2806068.919 7   2124372.627 2
  22196070.565    -4034917.734 6  -3030950.143 1
  20309873.151      612779.372 7    474179.187 1
  20241019.948     -936206.656 7   -703032.344 1
 90 10 10 14 40 14.9990000  0  5 02 06 12 13 09
  23275753.261     2781497.703 5   2097388.485 1
  21348587.870     2843993.173 7   2153923.932 2
  22187718.167    -4078815.864 6  -3065156.476 1
  20312151.050      624744.208 7    483502.417 2
  20240192.159     -940556.085 7   -706421.528 1
 90 10 10 14 40 29.9990000  0  5 02 06 12 13 09
  23282233.284     2815558.235 5   2123929.047 1
  21355828.206     2882042.453 6   2183572.667 2
  22179377.300    -4122645.688 6  -3099309.596 1
  20314449.597      636814.606 7    492907.909 2
  20239394.144     -944748.218 7   -709688.142 1
 90 10 10 14 40 44.9990000  0  5 02 06 12 13 09
  23288722.659     2849667.200 5   2150507.371 1
  21363092.753     2920215.659 7   2213317.965 2
  22171046.917    -4166407.641 6  -3133409.827 1
  20316764.534      648989.309 7    502394.680 1
  20238626.479     -948783.788 7   -712832.761 2
 90 10 10 14 40 59.9990000  0  5 02 06 12 13 09
  23295224.362     2883818.780 6   2177118.885 1
  21370379.331     2958506.787 7   2243155.154 2
  22162732.183    -4210107.213 6  -3167461.455 1
  20319099.308      661262.346 7    511958.070 2
  20237888.815     -952668.572 7   -715859.883 2
 90 10 10 14 41 14.9990000  0  5 02 06 12 13 09
  23301730.761     2918013.139 5   2203763.755 1
  21377688.386     2996916.028 7   2273084.373 2
  22154430.214    -4253743.651 6  -3201463.882 1
  20321454.003      673633.838 7    521598.183 2
  20237177.222     -956401.972 7   -718769.045 1
 90 10 10 14 41 29.9990000  0  5 02 06 12 13 09
  23308246.073     2952257.456 5   2230447.533 1
  21385021.300     3035450.241 7   2303110.976 2
  22146139.987    -4297309.558 6  -3235411.351 1
  20323828.370      686110.624 7    531320.341 2
  20236495.409     -959976.819 7   -721554.658 1
 90 10 10 14 41 44.9990000  0  5 02 06 12 13 09
  23314773.417     2986557.103 5   2257174.428 1
  21392378.144     3074114.503 7   2333238.910 2
  22137862.214    -4340799.192 6  -3269299.386 1
  20326223.198      698697.529 7    541128.310 2
  20235847.644     -963387.528 7   -724212.374 1
 90 10 10 14 41 59.9990000  0  5 02 06 12 13 09
  23321305.886     3020904.210 5   2283938.308 1
  21399758.933     3112900.959 7   2363462.064 2
  22129598.167    -4384219.896 6  -3303133.710 1
  20328637.956      711386.657 7    551015.928 2
  20235228.331     -966641.707 7   -726748.110 1
 90 10 10 14 42 14.9990000  0  5 02 06 12 13 09
  23327853.737     3055288.621 5   2310731.249 1
  21407161.448     3151799.074 7   2393772.219 2
  22121347.550    -4427581.564 6  -3336922.033 1
  20331070.425      724167.432 7    560974.957 2
  20234637.558     -969749.488 7   -729169.779 1
 90 10 10 14 42 29.9990000  0  5 02 06 12 13 09
  23334407.464     3089720.388 5   2337561.088 1
  21414584.800     3190818.653 7   2424177.028 2
  22113110.050    -4470873.936 6  -3370656.353 1
  20333522.784      737049.695 7    571013.071 2
  20234075.597     -972700.709 7   -731469.448 1
 90 10 10 14 42 44.9990000  0  5 02 06 12 13 09
  23340969.706     3124202.273 5   2364429.979 1
  21422033.933     3229962.069 7   2454678.328 2
  22104884.987    -4514093.972 6  -3404334.305 1
  20335994.159      750035.874 7    581132.162 2
  20233544.706     -975492.696 7   -733645.043 1
 90 10 10 14 42 59.9990000  0  5 02 06 12 13 09
  23347540.698     3158736.778 5   2391339.876 1
  21429510.901     3269232.007 7   2485278.215 2
  22096675.487    -4557238.476 6  -3437953.397 1
  20338484.276      763128.623 7    591334.288 2
  20233043.495     -978122.564 7   -735694.316 1
 90 10 10 14 43 14.9990000  0  5 02 06 12 13 09
  23354120.401     3193321.615 5   2418288.991 1
  21437005.409     3308625.768 7   2515974.585 2
  22088478.870    -4600309.673 6  -3471515.384 1
  20340996.401      776325.323 7    601617.417 2
  20232573.550     -980592.185 7   -737618.718 1
 90 10 10 14 43 29.9990000  0  5 02 06 12 13 09
  23360710.862     3227949.510 5   2445271.673 1
  21444523.784     3348135.851 7   2546761.600 2
  22080294.948    -4643314.521 6  -3505025.657 1
  20343525.237      789618.023 7    611975.352 2
  20232133.425     -982908.996 7   -739424.046 1
 90 10 10 14 43 44.9990000  0  5 02 06 12 13 09
  23367309.386     3262622.480 5   2472289.459 1
  21452065.479     3387764.118 7   2577640.703 2
  22072124.776    -4686250.520 6  -3538482.282 1
  20346072.245      803008.363 7    622409.369 2
  20231721.565     -985070.883 7   -741108.650 1
 90 10 10 14 43 59.9990000  0  5 02 06 12 13 09
  23373918.737     3297341.792 5   2499343.361 1
  21459627.659     3427511.292 7   2608612.462 2
  22063967.081    -4729116.155 6  -3571884.087 1
  20348640.183      816497.532 7    632920.399 2
  20231340.636     -987076.597 7   -742671.567 1
 90 10 10 14 44 14.9990000  0  5 02 06 12 13 09
  23380525.862     3332096.150 5   2526424.574 1
  21467213.425     3467366.218 7   2639668.177 2
  22055821.722    -4771922.090 6  -3605239.363 1
  20351223.659      830074.329 7    643499.706 2
  20230986.183     -988936.957 7   -744121.220 1
 90 10 10 14 44 29.9990000  0  5 02 06 12 13 09
  23387149.894     3366894.621 5   2553540.140 1
  21474818.612     3507337.487 7   2670814.553 2
  22047687.401    -4814659.057 6  -3638540.906 1
  20353825.823      843747.193 7    654153.879 2
  20230662.401     -990643.085 7   -745450.700 2
 90 10 10 14 44 44.9990000  0  5 02 06 12 13 09
  23393783.308     3401744.879 5   2580696.079 1
  21482447.808     3547432.746 7   2702057.538 2
  22039570.690    -4857318.886 6  -3671782.347 1
  20356447.167      857523.631 7    664888.755 2
  20230368.261     -992187.020 7   -746653.788 1
 90 10 10 14 44 59.9990000  0  5 02 06 12 13 09
  23400423.644     3436641.944 5   2607888.468 1
  21490102.886     3587646.839 7   2733393.124 2
  22031468.354    -4899906.146 6  -3704967.232 1
  20359088.128      871398.526 7    675700.345 2
  20230104.308     -993573.432 7   -747734.127 1
 90 10 10 14 45 14.9990000  0  5 02 06 12 13 09
  23407073.386     3471580.635 5   2635113.315 1
  21497773.792     3627974.199 7   2764816.969 2
  22023378.644    -4942425.838 6  -3738099.470 1
  20361745.269      885366.440 7    686584.419 2
  20229869.112     -994807.537 7   -748695.792 1
 90 10 10 14 45 29.9990000  0  5 02 06 12 13 09
  23413730.089     3506568.584 5   2662376.543 1
  21505472.706     3668422.421 6   2796334.989 2
  22015299.487    -4984869.856 6  -3771172.739 1
  20364423.433      899434.814 7    697546.772 2
  20229664.917     -995881.345 7   -749532.547 1
 90 10 10 14 45 44.9990000  0  5 02 06 12 13 09
  23420397.269     3541602.704 5   2689675.727 1
  21513191.933     3708988.161 6   2827944.585 2
  22007236.753    -5027240.879 6  -3804189.132 1
  20367119.151      913600.166 7    708584.702 2
  20229492.222     -996798.093 7   -750246.923 1
 90 10 10 14 45 59.9990000  0  5 02 06 12 13 09
  23427073.222     3576683.468 5   2717011.255 1
  21520932.964     3749671.594 6   2859645.894 2
  21999188.190    -5069538.014 6  -3837147.954 1
  20369832.058      927862.568 7    719698.244 2
  20229348.065     -997557.181 7   -750838.443 1
 90 10 10 14 46 14.9990000  0  5 02 06 12 13 09
  23433759.854     3611818.840 5   2744389.343 1
  21528698.964     3790480.359 6   2891444.855 2
  21991155.933    -5111753.195 6  -3870042.914 1
  20372567.167      942229.815 7    730893.483 2
  20229234.136     -998150.405 7   -751300.723 1
 90 10 10 14 46 29.9990000  0  5 02 06 12 13 09
  23440455.120     3646996.624 5   2771800.495 1
  21536486.940     3831402.071 6   2923331.829 2
  21983134.917    -5153898.134 6  -3902883.136 1
  20375317.558      956689.281 7    742160.584 2
  20229150.292     -998590.033 7   -751643.317 1
 90 10 10 14 46 44.9990000  0  5 02 06 12 13 09
  23447160.370     3682229.693 5   2799254.690 1
  21544298.190     3872449.317 7   2955316.618 2
  21975130.972    -5195959.662 6  -3935658.364 1
  20378088.628      971253.521 7    753509.322 2
  20229097.714     -998863.018 7
 90 10 10 14 46 59.9990000  0  5 02 06 12 13 09
  23453872.987     3717515.283 5   2826749.834 1
  21552132.972     3913619.139 7   2987396.926 2
  21967143.933    -5237940.144 6  -3968370.438 1
  20380881.745      985919.428 7    764937.281 2
  20229076.690     -998971.990 7
 90 10 10 14 47 14.9990000  0  5 02 06 12 13 09
  23460595.511     3752840.045 5   2854275.477 1
  21559988.620     3954898.032 6   3019562.218 2
  21959165.925    -5279852.560 6  -4001029.474 1
  20383688.464     1000673.656 7    776434.065 2
  20229085.940     -998930.171 7
 90 10 10 14 47 29.9990000  0  5 02 06 12 13 09
  23467325.128     3788215.088 5   2881840.332 1
  21567864.925     3996296.987 6   3051821.067 2
  21951205.308    -5321685.271 6  -4033626.403 1
  20386513.940     1015527.195 7    788008.230 2
  20229125.183     -998726.084 7
 90 10 10 14 47 44.9990000  0  5 02 06 12 13 09
  23474066.058     3823637.723 5   2909442.246 1
  21575766.073     4037812.968 7   3084171.110 2
  21943261.198    -5363440.596 6  -4066163.036 1
  20389361.378     1030477.234 7    799657.589 2
  20229194.644     -998362.470 7
 90 10 10 14 47 59.9990000  0  5 02 06 12 13 09
  23480816.011     3859103.616 5   2937077.880 1
  21583687.636     4079441.504 7   3116608.847 2
  21935325.792    -5405122.467 6  -4098642.427 1
  20392221.425     1045518.898 7    811378.349 2
  20229289.479     -997843.510 7        -0.26511
 90 10 10 14 48 14.9990000  0  5 02 06 12 13 09
  23487575.058     3894625.144 5   2964756.865 1
  21591631.542     4121194.280 6   3149143.401 2
  21927411.573    -5446718.420 6  -4131054.870 1
  20395104.120     1060664.208 7    823179.861 2
  20229422.792     -997156.954 7       534.687 1
 90 10 10 14 48 29.9990000  0  5 02 06 12 13 09
  23494342.597     3930190.225 5   2992469.798 1
  21599601.409     4163059.344 7   3181765.446 2
  21919511.823    -5488240.008 6  -4163409.360 1
  20398004.690     1075900.761 7    835052.477 2
  20229580.839     -996314.868 7      1190.834 1
 90 10 10 14 48 44.9990000  0  5 02 06 12 13 09
  23501119.190     3965792.478 5   3020211.690 1
  21607587.229     4205030.021 7   3214469.790 2
  21911623.042    -5529693.259 6  -4195710.612 1
  20400919.487     1091222.014 7    846991.096 2
  20229771.183     -995323.142 7      1963.584 2
 90 10 10 14 48 59.9990000  0  5 02 06 12 13 09
  23507902.370     4001447.868 5   3047994.974 1
  21615594.370     4247122.061 6   3247268.702 2
  21903750.558    -5571061.936 6  -4227945.956 1
  20403854.144     1106643.741 7    859007.995 2
  20229991.550     -994166.007 7      2865.220 1
 90 10 10 14 49 14.9990000  0  5 02 06 12 13 09
  23514697.808     4037142.531 5   3075808.839 1
  21623626.175     4289321.391 6   3280151.216 2
  21895891.909    -5612359.397 6  -4260125.801 1
  20406804.815     1122151.987 7    871092.310 2
  20230240.073     -992857.009 7      3885.196 1
 90 10 10 14 49 29.9990000  0  5 02 06 12 13 09
  23521494.097     4072877.575 5   3103654.205 1
  21631677.761     4331628.799 6   3313117.946 2
  21888046.706    -5653584.197 6  -4292249.035 1
  20409772.050     1137747.298 7    883244.475 2
  20230518.042     -991394.870 7      5024.505 1
 90 10 10 14 49 44.9990000  0  5 02 06 12 13 09
  23528306.253     4108658.185 5   3131535.075 1
  21639748.089     4374049.424 6   3346172.893 2
  21880219.159    -5694730.773 6  -4324311.315 1
  20412758.675     1153434.708 7    895468.399 2
  20230827.456     -989774.603 7      6287.027 1
 90 10 10 14 49 59.9990000  0  5 02 06 12 13 09
  23535124.909     4144481.911 5   3159449.494 1
  21647843.378     4416580.245 6   3379313.711 2
  21872403.651    -5735801.464 7  -4356314.456 1
  20415760.065     1169211.321 7    907761.841 2
  20231164.808     -987998.353 7      7671.096 2
 90 10 10 14 50 14.9990000  0  5 02 06 12 13 09
  23541950.776     4180353.236 5   3187401.056 1
  21655959.784     4459225.521 6   3412543.710 2
  21864603.737    -5776791.308 6  -4388254.607 1
  20418779.636     1185081.150 7    920127.913 2
  20231533.448     -986061.778 7      9180.092 1
 90 10 10 14 50 29.9990000  0  5 02 06 12 13 09
  23548787.667     4216284.382 5   3215399.201 1
  21664098.386     4501997.361 6   3445872.340 2
  21856818.737    -5817687.577 6  -4420121.842 1
  20421820.753     1201056.352 7    932576.096 2
  20231934.901     -983952.489 7     10823.674 1
 90 10 10 14 50 44.9990000  0  5 02 06 12 13 09
  23555634.151     4252268.157 5   3243438.349 1
  21672259.815     4544888.437 6   3479293.871 2
  21849054.972    -5858496.931 6  -4451921.347 1
  20424878.519     1217129.912 7    945100.920 2
  20232367.847     -981677.382 7     12596.452 1
 90 10 10 14 50 59.9990000  0  4 02 06 13 09
  23562491.519     4288300.344 5   3271515.238 1
  21680441.917     4587894.325 6   3512804.876 2
  20427955.183     1233297.015 7    957698.633 2
  20232831.058     -979240.603 7     14495.217 1
 90 10 10 14 51 14.9990000  0  4 02 06 13 09
  23569356.534     4324375.003 5   3299625.212 1
  21688648.675     4631008.871 6   3546400.535 2
  20431047.901     1249551.541 7    970364.465 2
  20233324.753     -976647.830 7     16515.537 2
 90 10 10 14 51 29.9990000  0  4 02 06 13 09
  23576227.511     4360491.656 5   3327767.902 1
  21696871.948     4674231.169 6   3580080.163 2
  20434158.042     1265892.670 7    983097.781 2
  20233848.128     -973899.725 7     18656.892 1
 90 10 10 14 51 44.9990000  0  4 02 06 13 09
  23583111.409     4396651.694 5   3355944.409 1
  21705116.198     4717562.532 6   3613844.786 2
  20437285.339     1282321.767 7    995899.644 2
  20234400.737     -970994.636 7     20920.576 2
 90 10 10 14 51 59.9990000  0  4 02 06 13 09
  23589999.073     4432852.304 5   3384152.518 1
  21713383.081     4760999.673 6   3647691.825 2
  20440428.011     1298835.364 7   1008767.351 2
  20234982.245     -967935.428 7     23304.346 1
 90 10 10 14 52 14.9990000  0  4 02 06 13 09
  23596892.909     4469087.014 5   3412387.180 1
  21721669.386     4804535.925 6   3681616.091 2
  20443584.144     1315426.796 7   1021695.711 2
  20235592.815     -964728.474 7     25803.247 1
 90 10 10 14 52 29.9990000  0  4 02 06 13 09
  23603799.456     4505365.457 5   3440655.933 1
  21729974.886     4848180.756 6   3715624.963 2
  20446758.222     1332105.469 7   1034692.048 2
  20236233.808     -961364.054 7     28424.844 1
 90 10 10 14 52 44.9990000  0  4 02 06 13 09
  23610711.315     4541689.497 5   3468960.159 1
  21738299.214     4891935.807 6   3749719.725 2
  20449948.792     1348872.942 7   1047757.585 2
  20236903.933     -957840.102 7     31170.756 2
 90 10 10 14 52 59.9990000  0  5 02 06 12 13 09
  23617633.464     4578050.406 5   3497293.197 1
  21746644.323     4935791.973 6   3783893.276 2
  21779834.456          -0.10817
  20453154.620     1365720.068 7   1060885.191 2
  20237603.776     -954165.555 7     34034.016 1
 90 10 10 14 53 14.9990000  0  5 02 06 12 13 09
  23624559.612     4614457.492 5   3525662.179 1
  21755013.269     4979758.374 6   3818152.722 2
  21772217.167      -40024.098 7
  20456377.612     1382656.335 7   1074082.257 2
  20238333.550     -950330.922 7     37022.009 2
 90 10 10 14 53 29.9990000  0  5 02 06 12 13 09
  23631495.698     4650903.699 5   3554061.666 1
  21763400.612     5023827.788 6   3852492.440 2
  21764615.151      -79970.573 7        -0.01011
  20459615.667     1399674.257 7   1087342.951 2
  20239092.448     -946342.923 7     40129.512 1
 90 10 10 14 53 44.9990000  0  5 02 06 12 13 09
  23638438.339     4687393.963 5   3582495.453 1
  21771804.581     5068004.802 6   3886916.003 2
  21757028.456     -119834.360 6    -31062.720 1
  20462870.925     1416778.523 7   1100670.928 2
  20239881.495     -942196.652 7     43360.343 1
 90 10 10 14 53 59.9990000  0  5 02 06 12 13 09
  23645391.479     4723929.550 5   3610964.620 1
  21780233.565     5112290.408 6   3921424.186 2
  21749460.089     -159613.954 7    -62059.827 1
  20466142.433     1433970.016 7   1114066.877 2
  20240700.112     -937891.066 7     46715.321 1
 90 10 10 14 54 14.9990000  0  5 02 06 12 13 09
  23652352.433     4760512.457 5   3639470.581 1
  21788679.495     5156686.367 6   3956018.358 2
  21741907.964     -199306.848 7    -92989.372 1
  20469431.386     1451250.587 7   1127532.238 2
  20241549.722     -933423.777 7     50196.298 2
 90 10 10 14 54 29.9990000  0  5 02 06 12 13 09
  23659324.276     4797141.956 5   3668012.870 1
  21797150.706     5201191.835 6   3990697.855 2
  21734372.261     -238913.355 7   -123851.598 1
  20472735.792     1468619.242 7   1141066.242 2
  20242432.440     -928795.387 7     53802.805 1
 90 10 10 14 54 44.9990000  0  5 02 06 12 13 09
  23666302.839     4833815.869 5   3696589.791 1
  21805636.956     5245804.290 6   4025460.721 2
  21726850.245     -278435.273 7   -154647.910 1
  20476058.800     1486073.250 7   1154666.745 2
  20243342.620     -924008.089 7     57533.136 1
 90 10 10 14 54 59.9990000  0  5 02 06 12 13 09
  23673295.300     4870542.852 5   3725208.021 1
  21814152.706     5290532.198 6   4060313.546 2
  21719345.714     -317863.465 7   -185371.192 1
  20479396.292     1503621.453 7   1168340.654 2
  20244285.534     -919053.235 7     61394.033 1
 90 10 10 14 55 14.9990000  0  5 02 06 12 13 09
  23680288.089     4907308.108 5   3753856.095 1
  21822682.831     5335360.294 6   4095244.444 2
  21711857.690     -357212.671 7   -216032.929 2
  20482752.698     1521248.432 7   1182075.943 2
  20245256.675     -913945.507 7     65374.054 1
 90 10 10 14 55 29.9990000  0  5 02 06 12 13 09
  23687293.050     4944122.600 5   3782542.539 1
  21831233.487     5380299.409 6   4130261.851 2
  21704388.894     -396471.429 7   -246624.192 2
  20486122.558     1538964.960 7   1195881.007 2
  20246260.081     -908674.075 7     69481.636 1
 90 10 10 14 55 44.9990000  0  5 02 06 12 13 09
  23694304.081     4980968.444 5   3811253.409 1
  21839805.565     5425331.462 6   4165351.683 1
  21696930.979     -435657.150 7   -277158.536 2
  20489507.815     1556752.989 7   1209741.791 2
  20247290.331     -903256.306 7     73703.244 1
 90 10 10 14 55 59.9990000  0  5 02 06 12 13 09
  23701322.347     5017851.587 5   3839993.319 1
  21848389.800     5470462.243 6   4200518.445 2
  21689489.886     -474763.385 7   -307630.940 2
  20492906.722     1574618.581 7   1223663.004 2
  20248351.261     -897686.308 7     78043.479 1
 90 10 10 14 56 14.9990000  0  5 02 06 12 13 09
  23708349.269     5054771.190 5   3868761.677 1
  21856998.230     5515690.586 6   4235761.220 2
  21682064.331     -513790.691 7   -338041.848 2
  20496322.933     1592560.275 7   1237643.524 2
  20249439.690     -891965.050 7     82501.572 1
 90 10 10 14 56 29.9990000  0  5 02 06 12 13 09
  23715385.097     5091735.935 5   3897565.183 1
  21865623.565     5561024.859 6   4271086.538 2
  21674653.987     -552730.019 7   -368384.199 2
  20499752.800     1610586.356 7   1251689.798 2
  20250559.128     -886083.711 7     87084.407 1
 90 10 10 14 56 44.9990000  0  5 02 06 12 13 09
  23722425.636     5128742.530 5   3926401.285 1
  21874269.901     5606461.538 6   4306491.650 2
  21667259.753     -591584.289 7   -398660.271 1
  20503198.378     1628693.200 7   1265799.009 2
  20251708.636     -880045.549 7     91789.435 1
 90 10 10 14 56 59.9990000  0  5 02 06 12 13 09
  23729473.745     5165787.774 5   3955267.517 1
  21882938.722     5651997.062 6   4341973.788 2
  21659881.964     -630356.449 7   -428872.354 2
  20506656.222     1646877.537 7   1279968.601 2
  20252885.448     -873853.752 7     96614.186 1
 90 10 10 14 57 14.9990000  0  5 02 06 12 13 09
  23736532.495     5202867.920 5   3984160.939 1
  21891620.308     5697627.478 6   4377529.869 1
  21652518.159     -669049.947 7   -459023.150 2
  20510132.034     1665135.415 7   1294195.500 2
  20254094.409     -867511.900 7    101555.859 1
 90 10 10 14 57 29.9990000  0  5 02 06 12 13 09
  23743596.339     5239991.822 5   4013088.468 1
  21900320.440     5743361.339 6   4413166.558 1
  21645173.159     -707655.500 7   -489105.408 2
  20513622.183     1683475.407 7   1308486.380 2
  20255330.120     -861011.168 7    106621.333 1
 90 10 10 14 57 44.9990000  0  5 02 06 12 13 09
  23750668.784     5277159.752 5   4042050.300 1
  21909047.190     5789198.685 6   4448883.870 1
  21637844.409     -746172.256 7   -519118.478 2
  20517128.323     1701897.514 7   1322841.242 2
  20256598.206     -854351.217 7    111810.878 1
 90 10 10 14 57 59.9990000  0  5 02 06 12 13 09
  23757749.612     5314374.189 5   4071048.378 1
  21917789.933     5835141.768 6   4484683.579 1
  21630532.511     -784597.483 7   -549060.226 2
  20520648.675     1720403.777 7   1337261.679 2
  20257896.894     -847529.496 7    117126.478 1
 90 10 10 14 58 14.9990000  0  5 02 06 12 13 09
  23764839.120     5351631.612 5   4100079.937 1
  21926548.237     5881186.715 6   4520562.674 1
  21623235.464     -822934.256 7   -578933.052 2
  20524187.472     1738990.408 7   1351744.742 2
  20259224.269     -840549.559 7    122565.351 1
 90 10 10 14 58 29.9990000  0  5 02 06 12 13 09
  23771939.800     5388936.345 5   4129148.354 1
  21935331.370     5927337.752 6   4556524.423 1
  21615956.886     -861177.832 7   -608733.257 2
  20527739.159     1757661.542 7   1366293.648 2
  20260584.284     -833406.847 7    128131.069 1
 90 10 10 14 58 44.9990000  0  5 02 06 12 13 09
  23779046.167     5426290.298 5   4158255.126 1
  21944136.331     5973596.458 6   4592570.070 1
  21608698.698     -899325.965 7   -638459.087 2
  20531309.214     1776419.033 7   1380909.846 2
  20261974.308     -826099.485 7    133825.087 1
 90 10 10 14 58 59.9990000  0  5 02 06 12 13 09
  23786162.698     5463684.849 5   4187393.536 1
  21952954.073     6019953.972 6   4628692.716 1
  21601455.644     -937386.892 7   -668116.968 2
  20534893.878     1795253.768 7   1395586.227 2
  20263394.854     -818635.997 7    139640.764 1
 90 10 10 14 59 14.9990000  0  5 02 06 12 13 09
  23793285.839     5501118.198 5   4216562.187 1
  21961796.511     6066408.167 6   4664890.677 1
  21594229.847     -975362.070 7   -697708.025 2
  20538491.675     1814163.817 7   1410321.300 2
  20264843.753     -811018.190 7    145576.684 1
 90 10 10 14 59 29.9990000  0  5 02 06 12 13 09
  23800416.300     5538588.699 5   4245759.773 1
  21970657.175     6112957.169 6   4701162.543 2
  21587018.636    -1013252.799 7   -727233.284 2
  20542103.995     1833147.197 7   1425113.512 2
  20266322.589     -803247.684 7    151631.591 1
 90 10 10 14 59 44.9990000  0  5 02 06 12 13 09
  23807556.011     5576103.140 5   4274991.618 1
  21979532.011     6159607.343 6   4737513.232 1
  21579826.276    -1051052.064 7   -756687.275 2
  20545731.183     1852210.299 7   1439967.849 2
  20267832.128     -795317.825 7    157810.670 1
 90 10 10 14 59 59.9990000  0  5 02 06 12 13 09
  23814702.550     5613651.833 5   4304250.135 1
  21988428.581     6206348.832 6   4773935.073 1
  21572648.323    -1088769.024 7   -786077.129 2
  20549373.222     1871343.327 7   1454876.667 2
  20269369.440     -787238.095 7    164106.529 1
 90 10 10 15  0 14.9990000  0  5 02 06 12 13 09
  23821852.073     5651238.651 5   4333538.350 1
  21997340.620     6253185.316 6   4810430.930 1
  21565487.784    -1126399.314 7   -815399.450 2
  20553027.753     1890549.895 7   1469842.792 2
  20270937.151     -779004.449 7    170522.329 1
 90 10 10 15  0 29.9990000  0  5 02 06 12 13 09
  23829014.628     5688873.954 5   4362864.349 1
  22006272.401     6300126.796 6   4847008.606 1
  21558346.120    -1163932.314 7   -844645.960 2
  20556697.659     1909840.044 7   1484874.052 2
  20272534.948     -770606.639 7    177066.040 1
 90 10 10 15  0 44.9990000  0  4 02 06 13 09
  23836183.300     5726544.368 5   4392217.699 1
  22015222.761     6347159.782 6   4883657.604 1
  20560381.183     1929200.246 7   1499959.888 2
  20274161.597     -762057.966 7    183727.311 1
 90 10 10 15  0 59.9990000  0  4 02 06 13 09
  23843362.167     5764259.337 5   4421605.789 1
  22024189.378     6394293.408 6   4920385.015 1
  20564081.808     1948639.834 7   1515107.591 2
  20275819.065     -753348.853 7    190513.600 1
 90 10 10 15  1 14.9990000  0  4 02 06 13 09
  23850550.058     5802012.827 5   4451023.873 1
  22033178.370     6441521.349 6   4957185.896 1
  20567794.792     1968152.231 7   1530312.017 2
  20277504.104     -744485.299 7    197420.229 1
 90 10 10 15  1 29.9990000  0  4 02 06 13 09
  23857741.644     5839814.287 5   4480479.349 1
  22042186.167     6488852.788 6   4994067.432 1
  20571523.870     1987746.842 7   1545580.509 2
  20279223.065     -735458.128 7    204454.357 1
 90 10 10 15  1 44.9990000  0  4 02 06 13 09
  23864940.347     5877647.927 5   4509959.897 1
  22051211.448     6536271.652 6   5031017.094 1
  20575263.644     2007407.564 7   1560900.516 2
  20280968.003     -726282.665 7    211604.034 1
 90 10 10 15  1 59.9990000  0  4 02 06 13 09
  23872148.448     5915524.109 5   4539473.584 1
  22060252.487     6583788.123 6   5068042.820 1
  20579020.151     2027144.480 7   1576279.896 2
  20282744.394     -716948.556 7    218877.326 1
 90 10 10 15  2 14.9990000  0  4 02 06 13 09
  23879363.128     5953446.323 5   4569023.154 1
  22069311.331     6631405.452 6   5105147.134 1
  20582791.026     2046960.730 7   1591721.091 2
  20284552.636     -707452.612 7    226276.725 1
 90 10 10 15  2 29.9990000  0  4 02 06 13 09
  23886587.097     5991406.235 5   4598602.093 1
  22078391.292     6679114.990 6   5142323.286 1
  20586576.323     2066848.042 7   1607217.657 2
  20286389.198     -697802.837 7    233795.994 1
 90 10 10 15  2 44.9990000  0  4 02 06 13 09
  23893817.894     6029410.845 5   4628215.850 1
  22087489.269     6726923.351 6   5179576.446 1
  20590375.112     2086812.909 7   1622774.657 2
  20288255.253     -687992.409 7    241440.447 1
 90 10 10 15  2 59.9990000  0  4 02 06 13 09
  23901060.456     6067460.422 5   4657864.669 1
  22096606.222     6774830.596 6   5216906.653 1
  20594189.675     2106855.058 7   1638391.878 2
  20290153.495     -678021.043 7    249210.303 1
 90 10 10 15  3 14.9990000  0  4 02 06 13 09
  23908309.628     6105549.549 5   4687544.315 1
  22105742.683     6822830.953 6   5254309.422 1
  20598016.940     2126968.949 7   1654065.001 2
  20292080.925     -667893.992 7    257101.473 1
 90 10 10 15  3 29.9990000  0  4 02 06 13 09
  23915568.714     6143681.000 5   4717256.916 1
  22114893.769     6870926.963 6   5291786.730 1
  20601860.230     2147157.149 7   1669796.026 2
  20294037.644     -657608.533 7    265116.076 1
 90 10 10 15  3 44.9990000  0  4 02 06 13 09
  23922833.378     6181853.516 5   4747001.503 1
  22124062.401     6919117.127 6   5329337.398 1
  20605714.026     2167418.409 7   1685583.972 2
  20296025.604     -647166.006 7    273253.073 1
 90 10 10 15  3 59.9990000  0  4 02 06 13 09
  23930102.487     6220061.956 5   4776774.113 1
  22133250.042     6967396.167 6   5366957.311 1
  20609583.597     2187747.360 7   1701424.671 2
  20298040.050     -636571.244 7    281508.693 1
 90 10 10 15  4 14.9990000  0  4 02 06 13 09
  23937381.011     6258305.458 5   4806574.033 1
  22142455.323     7015762.788 6   5404645.479 1
  20613463.870     2208142.610 7   1717317.031 2
  20300085.511     -625825.341 7    289882.087 1
 90 10 10 15  4 29.9990000  0  4 02 06 13 09
  23944667.323     6296595.343 4   4836410.098 1
  22151678.011     7064228.059 6   5442410.519 1
  20617360.620     2228615.457 7   1733269.859 2
  20302162.284     -614916.823 7    298382.194 1
 90 10 10 15  4 44.9990000  0  4 02 06 13 09
  23951959.729     6334927.326 5   4866278.947 1
  22160915.315     7112787.521 6   5480248.943 1
  20621270.464     2249161.194 7   1749279.478 2
  20304267.808     -603850.042 7    307005.620 1
 90 10 10 15  4 59.9990000  0  4 02 06 13 09
  23959266.253     6373307.525 4   4896185.386 1
  22170178.604     7161446.709 6   5518165.082 1
  20625194.808     2269785.617 7   1765350.412 2
  20306405.776     -592618.757 7    315757.225 1
 90 10 10 15  5 14.9990000  0  4 02 06 13 09
  23966577.995     6411729.356 5   4926124.238 1
  22179454.597     7210199.011 6   5556153.768 1
  20629133.378     2290482.054 7   1781477.462 2
  20308573.917     -581229.763 7    324631.732 1
 90 10 10 15  5 29.9990000  0  5 02 06 12 13 09
  23973894.034     6450186.023 5   4956090.254 1
  22188750.308     7259037.305 6   5594209.473 1
  21405546.854          -0.46617
  20633083.026     2311243.292 7   1797654.996 2
  20310769.300     -569689.921 7    333623.777 1
 90 10 10 15  5 44.9990000  0  5 02 06 12 13 09
  23981222.120     6488687.538 5   4986091.232 1
  22198061.097     7307971.366 6   5632339.789 1
  21398780.073      -35552.868 7
  20637048.753     2332079.147 7   1813890.683 2
  20312995.136     -557988.758 7    342741.532 1
 90 10 10 15  5 59.9990000  0  5 02 06 12 13 09
  23988555.675     6527228.137 5   5016122.629 1
  22207389.753     7356995.213 6   5670540.063 1
  21392035.011      -71008.921 7
  20641027.284     2352983.778 7   1830179.957 2
  20315252.729     -546132.245 7    351980.334 1
 90 10 10 15  6 14.9990000  0  5 02 06 12 13 09
  23995896.901     6565807.258 5   5046184.070 1
  22216733.831     7406107.984 6   5708809.637 1
  21385305.222     -106368.736 7
  20645017.190     2373956.397 7   1846522.215 2
  20317536.933     -534120.961 7    361339.739 1
 90 10 10 15  6 29.9990000  0  5 02 06 12 13 09
  24003242.995     6604426.409 5   5076276.691 1
  22226098.761     7455310.732 6   5747149.314 1
  21378595.229     -141630.648 7        -0.47012
  20649022.511     2394997.957 7   1862918.193 2
  20319851.151     -521953.555 7    370820.804 2
 90 10 10 15  6 44.9990000  0  5 02 06 12 13 09
  24010597.917     6643078.041 5   5106394.615 1
  22235479.847     7504595.801 6   5785553.134 1
  21371902.409     -176801.646 7    -27406.458 2
  20653037.362     2416100.748 7   1879361.876 2
  20322196.769     -509637.434 7    380417.745 1
 90 10 10 15  6 59.9990000  0  5 02 06 12 13 09
  24017962.776     6681767.550 5   5136542.069 1
  22244874.706     7553968.388 6   5824025.145 1
  21365228.769     -211875.811 7    -54736.991 2
  20657065.667     2437269.967 7   1895857.331 2
  20324568.683     -497166.967 7    390134.951 2
 90 10 10 15  7 14.9990000  0  5 02 06 12 13 09
  24025334.386     6720498.090 5   5166721.488 1
  22254286.011     7603431.169 6   5862567.453 1
  21358573.401     -246849.670 7    -81989.358 2
  20661106.909     2458508.555 7   1912406.834 2
  20326970.745     -484539.304 7    399974.654 1
 90 10 10 15  7 29.9990000  0  5 02 06 12 13 09
  24032707.433     6759265.173 5   5196929.372 1
  22263716.183     7652979.459 6   5901176.390 1
  21351936.386     -281727.427 7   -109166.848 2
  20665159.370     2479811.887 7   1929006.790 2
  20329405.753     -471758.963 7    409933.326 1
 90 10 10 15  7 44.9990000  0  5 02 06 12 13 09
  24040094.815     6798072.068 5   5227168.295 1
  22273161.628     7702616.425 6   5939854.407 1
  21345318.167     -316505.322 7   -136266.520 2
  20669229.472     2501182.936 7   1945659.515 2
  20331864.761     -458822.298 7    420013.808 2
 90 10 10 15  7 59.9990000  0  5 02 06 12 13 09
  24047488.487     6836920.021 5   5257439.211 1
  22282622.308     7752342.789 6   5978602.099 1
  21338720.058     -351181.794 7   -163287.166 2
  20673307.995     2522622.627 7   1962365.723 2
  20334359.440     -445728.455 7    430216.761 2
 90 10 10 15  8 14.9990000  0  5 02 06 12 13 09
  24054886.870     6875804.892 5   5287738.859 1
  22292100.425     7802154.181 6   6017416.049 1
  21332138.722     -385760.727 7   -190231.805 2
  20677399.636     2544126.480 7   1979121.931 2
  20336877.136     -432481.499 7    440539.031 1
 90 10 10 15  8 29.9990000  0  5 02 06 12 13 09
  24062292.151     6914729.281 5   5318069.354 1
  22301595.956     7852052.932 6   6056298.064 1
  21325578.761     -420239.128 7   -217098.112 2
  20681506.315     2565697.068 7   1995930.136 2
  20339428.909     -419078.676 7    450982.753 2
 90 10 10 15  8 44.9990000  0  5 02 06 12 13 09
  24069707.628     6953685.649 5   5348424.766 1
  22311105.519     7902031.096 6   6095241.962 1
  21319034.417     -454624.213 7   -243891.701 2
  20685620.722     2587326.381 7   2012784.106 2
  20342007.159     -405527.956 7    461541.723 2
 90 10 10 15  8 59.9990000  0  5 02 06 12 13 09
  24077129.526     6992683.274 5   5378812.269 1
  22320635.628     7952097.963 6   6134254.957 1
  21312511.987     -488906.105 7   -270604.887 2
  20689750.323     2609023.590 7   2029690.979 2
  20344617.620     -391819.666 7    472223.469 2
 90 10 10 15  9 14.9990000  0  5 02 06 12 13 09
  24084557.722     7031721.731 5   5409231.646 1
  22330180.386     8002252.733 6   6173336.459 1
  21306007.190     -523084.957 7   -297237.777 2
  20693891.800     2630787.932 7   2046650.160 2
  20347255.870     -377954.212 7    483027.683 2
 90 10 10 15  9 29.9990000  0  5 02 06 12 13 09
  24091992.214     7070794.761 5   5439677.975 1
  22339739.964     8052488.980 6   6212481.447 1
  21299521.214     -557166.531 7   -323794.867 2
  20698044.800     2652613.226 7   2063656.841 2
  20349922.534     -363937.741 7    493949.573 2
 90 10 10 15  9 44.9990000  0  5 02 06 12 13 09
  24099436.917     7109901.650 5   5470150.668 1
  22349315.644     8102805.553 6   6251689.037 1
  21293055.901     -591151.196 7   -350276.449 2
  20702208.909     2674498.362 7   2080710.157 2
  20352617.354     -349771.352 7    504988.271 2
 90 10 10 15  9 59.9990000  0  5 02 06 12 13 09
  24106886.355     7149054.098 5   5500658.833 1
  22358910.433     8153213.975 6   6290968.173 1
  21286609.089     -625026.930 7   -376673.146 2
  20706386.315     2696454.812 7   2097819.037 2
  20355344.089     -335443.187 7    516153.040 1
 90 10 10 15 10 14.9990000  0  5 02 06 12 13 09
  24114343.440     7188238.799 5   5531192.168 1
  22368515.620     8203700.435 6   6330308.140 1
  21280182.097     -658806.667 7   -402995.035 2
  20710575.940     2718468.676 7   2114972.660 2
  20358100.534     -320966.686 7    527433.395 2
 90 10 10 15 10 29.9990000  0  5 02 06 12 13 09
  24121805.034     7227459.379 5   5561753.453 1
  22378137.104     8254268.226 6   6369711.462 1
  21273771.331     -692486.376 7   -429238.984 2
  20714776.909     2740543.518 7   2132173.798 2
  20360884.362     -306338.299 7    538832.101 2
 90 10 10 15 10 44.9990000  0  4 02 06 13 09
  24129279.417     7266717.201 5   5592343.738 1
  22387774.722     8304918.591 6   6409179.140 1
  20718991.034     2762680.366 7   2149423.253 2
  20363695.003     -291556.646 7    550350.238 2
 90 10 10 15 10 59.9990000  0  4 02 06 13 09
  24136755.058     7306017.153 5   5622966.875 1
  22397430.667     8355656.229 6   6448714.806 1
  20723215.198     2784884.172 7   2166724.881 2
  20366538.409     -276616.615 7    561991.785 1
 90 10 10 15 11 14.9990000  0  4 02 06 13 09
  24144239.440     7345357.958 5   5653621.839 1
  22407101.534     8406479.519 6   6488317.224 1
  20727452.222     2807153.464 7   2184077.538 2
  20369412.909     -261519.686 7    573755.584 2
 90 10 10 15 11 29.9990000  0  5 02 06 12 13 09
  24151739.237     7384735.525 5   5684305.434 1
  22416789.698     8457384.231 6   6527983.086 1
  21248333.589          -0.88017
  20731703.917     2829483.896 7   2201477.834 2
  20372313.589     -246269.911 7    585638.490 2
 90 10 10 15 11 44.9990000  0  5 02 06 12 13 09
  24159239.050     7424155.927 5   5715022.450 1
  22426493.222     8508375.966 6   6567716.751 1
  21242024.378      -33154.191 7
  20735963.675     2851880.878 7   2218929.990 2
  20375246.269     -230861.280 7    597645.175 2
 90 10 10 15 11 59.9990000  0  5 02 06 12 13 09
  24166743.526     7463607.527 5   5745763.759 1
  22436210.745     8559442.882 6   6607508.998 1
  21235734.995      -66209.719 7        -0.15712
  20740237.800     2874332.956 7   2236425.078 2
  20378206.378     -215305.478 7    609766.545 2
 90 10 10 15 12 14.9990000  0  5 02 06 12 13 09
  24174257.237     7503088.251 5   5776527.733 1
  22445942.440     8610582.482 6   6647357.911 1
  21229463.104      -99169.468 7    -25683.105 2
  20744520.417     2896837.621 7   2253961.145 2
  20381194.253     -199604.793 7    622000.809 2
 90 10 10 15 12 29.9990000  0  5 02 06 12 13 09
  24181777.729     7542600.344 4   5807316.145 1
  22455690.144     8661796.709 6   6687264.931 1
  21223210.425     -132030.721 7    -51289.301 2
  20748813.558     2919396.843 7   2271539.720 2
  20384208.628     -183756.657 7    634349.967 2
 90 10 10 15 12 44.9990000  0  5 02 06 12 13 09
  24189302.472     7582153.005 5   5838136.201 1
  22465449.831     8713094.716 6   6727237.253 1
  21216975.854     -164783.863 7    -76811.254 2
  20753118.644     2942019.399 7   2289167.652 2
  20387255.229     -167752.159 7    646820.963 2
 90 10 10 15 12 59.9990000  0  5 02 06 12 13 09
  24196840.011     7621750.860 5   5868991.471 1
  22475229.050     8764480.729 6   6767278.152 1
  21210767.206     -197423.884 7   -102245.060 2
  20757434.956     2964709.996 7   2306848.601 2
  20390333.730     -151586.537 7    659417.519 2
 90 10 10 15 13 14.9990000  0  5 02 06 12 13 09
  24204379.870     7661376.830 5   5899868.635 1
  22485021.386     8815937.261 6   6807373.975 1
  21204573.433     -229967.586 7   -127603.808 2
  20761763.690     2987451.181 7   2324568.974 2
  20393437.456     -135277.161 7    672126.083 2
 90 10 10 15 13 29.9990000  0  5 02 06 12 13 09
  24211926.964     7701041.784 5   5930776.163 1
  22494829.659     8867475.128 6   6847533.208 1
  21198402.050     -262403.560 7   -152878.622 2
  20766101.378     3010253.614 7   2342337.065 2
  20396568.190     -118812.865 7    684955.367 2
 90 10 10 15 13 44.9990000  0  5 02 06 12 13 09
  24219480.995     7740740.757 5   5961710.203 1
  22504650.495     8919088.899 6   6887751.585 1
  21192247.815     -294736.408 7   -178073.072 2
  20770451.050     3033112.108 7   2360148.848 2
  20399729.636     -102198.832 7    697901.327 2
 90 10 10 15 13 59.9990000  0  5 02 06 12 13 09
  24227043.636     7780473.017 4   5992670.188 1
  22514484.651     8970777.708 6   6928028.418 1
  21186115.214     -326966.469 7   -203187.429 2
  20774811.292     3056025.720 7   2378003.577 2
  20402919.425      -85435.776 7    710963.412 2
 90 10 10 15 14 14.9990000  0  5 02 06 12 13 09
  24234609.815     7820240.708 4   6023657.797 1
  22524338.589     9022543.378 6   6968365.164 1
  21180003.058     -359091.257 7   -228219.754 2
  20779183.784     3078996.696 7   2395903.008 2
  20406138.472      -68521.383 7    724143.417 2
 90 10 10 15 14 29.9990000  0  5 02 06 12 13 09
  24242189.464     7860048.892 5   6054676.958 1
  22534202.073     9074390.664 6   7008765.477 1
  21173910.237     -391105.325 7   -253165.806 2
  20783565.222     3102029.523 7   2413850.637 2
  20409388.808      -51451.196 7    737444.818 2
 90 10 10 15 14 44.9990000  0  5 02 06 12 13 09
  24249771.558     7899899.868 5   6085729.440 1
  22544085.870     9126321.681 6   7049231.040 1
  21167840.253     -423005.816 7   -278023.356 2
  20787961.261     3125126.399 7   2431848.164 2
  20412667.308      -34222.318 7    750869.878 2
 90 10 10 15 14 59.9990000  0  5 02 06 12 13 09
  24257364.815     7939791.330 4   6116813.484 1
  22553984.081     9178333.577 6   7089759.660 1
  21161789.128     -454795.033 7   -302794.200 2
  20792370.745     3148284.387 7   2449893.310 2
  20415973.925      -16837.600 7    764416.372 2
 90 10 10 15 15 14.9990000  0  5 02 06 12 13 09
  24264959.698     7979714.323 4   6147922.102 1
  22563896.979     9230417.237 6   7130344.152 1
  21155761.854     -486481.488 7   -327484.973 2
  20796787.526     3171494.703 7   2467979.235 2
  20419309.151         694.023 7    778077.339 2
 90 10 10 15 15 29.9990000  0  5 02 06 12 13 09
  24272562.831     8019673.422 4   6179058.809 1
  22573821.175     9282577.148 6   7170988.106 1
  21149754.011     -518059.872 7   -352091.526 2
  20801212.542     3194761.714 7   2486109.339 2
  20422677.065       18377.582 7    791856.693 2
 90 10 10 15 15 44.9990000  0  5 02 06 12 13 09
  24280174.112     8059664.388 4   6210220.390 1
  22583760.589     9334808.733 6   7211687.870 1
  21143762.839     -549534.067 7   -376616.894 2
  20805652.714     3218081.019 7   2504280.186 2
  20426067.542       36208.577 7    805750.932 2
 90 10 10 15 15 59.9990000  0  5 02 06 12 13 09
  24287793.792     8099695.900 5   6241413.526 1
  22593714.987     9387120.318 6   7252449.989 1
  21137794.339     -580895.311 7   -401054.253 2
  20810100.198     3241460.974 7   2522498.296 2
  20429493.245       54195.418 7    819766.614 2
 90 10 10 15 16 14.9990000  0  5 02 06 12 13 09
  24295416.636     8139766.957 5   6272637.504 1
  22603683.847     9439510.466 6   7293273.330 1
  21131846.597     -612144.226 7   -425404.083 2
  20814562.573     3264900.061 7   2540762.481 2
  20432941.839       72336.965 7    833902.841 2
 90 10 10 15 16 29.9990000  0  5 02 06 12 13 09
  24303048.573     8179871.481 4   6303887.538 1
  22613667.050     9491972.688 6   7334152.813 1
  21125920.003     -643286.567 7   -449670.865 2
  20819028.948     3288391.828 7   2559067.719 2
  20436425.620       90627.060 7    848154.823 2
 90 10 10 15 16 44.9990000  0  5 02 06 12 13 09
  24310689.175     8220007.984 4   6335162.513 1
  22623666.284     9544505.516 6   7375087.335 1
  21120015.097     -674323.323 7   -473855.372 2
  20823510.761     3311934.798 7   2577412.851 2
  20439932.995      109064.437 7    862521.565 2
 90 10 10 15 16 59.9990000  0  5 02 06 12 13 09
  24318328.542     8260187.116 4   6366470.704 1
  22633676.761     9597119.297 6   7416084.930 1
  21114132.917     -705243.384 7   -497948.942 2
  20828003.487     3335539.707 7   2595806.259 2
  20443470.104      127659.561 7    877011.231 2
 90 10 10 15 17 14.9990000  0  5 02 06 12 13 09
  24325986.753     8300401.614 4   6397806.441 1
  22643703.448     9649806.497 6   7457139.721 1
  21108268.355     -736053.678 7   -521956.981 2
  20832505.097     3359199.041 7   2614242.071 2
  20447037.854      146405.302 7    891618.266 2
 90 10 10 15 17 29.9990000  0  5 02 06 12 13 09
  24333649.901     8340650.020 4   6429168.585 1
  22653741.144     9702565.305 6   7498250.333 1
  21102425.433     -766755.275 7   -545880.319 2
  20837017.339     3382910.871 7   2632718.784 2
  20450634.636      165300.015 7    906341.380 2
 90 10 10 15 17 44.9990000  0  5 02 06 12 13 09
  24341311.120     8380933.712 3   6460558.276 1
  22663797.386     9755396.874 6   7539417.627 1
  21096606.464     -797346.346 7   -569717.533 2
  20841539.909     3406676.359 7   2651237.307 2
  20454258.815      184345.013 7    921181.597 2
 90 10 10 15 17 59.9990000  0  5 02 06 12 13 09
  24348979.339     8421241.929 2   6491967.068 1
  22673860.964     9808290.067 6   7580632.973 1
  21090803.198     -827837.456 7   -593476.854 2
  20846070.745     3430484.556 7   2669789.118 2
  20457909.933      203529.350 7    936130.384 2
 90 10 10 15 18 14.9990000  0  5 02 06 12 13 09
  24356659.339     8461585.332 2   6523403.262 1
  22683938.589     9861255.310 5   7621904.400 1
  21085021.776     -858217.490 7   -617149.628 2
  20850611.620     3454345.902 7   2688382.336 2
  20461588.987      222863.918 7    951196.244 2
 90 10 10 15 18 29.9990000  0  5 02 06 12 13 09
  24364341.347     8501968.813 2
  22694033.331     9914297.187 5   7663235.595 1
  21079263.964     -888481.147 7   -640731.711 2
  20855165.097     3478265.220 7   2707020.734 2
  20465295.644      242353.213 7    966382.669 2
 90 10 10 15 18 44.9990000  0  5 02 06 12 13 09
  24372035.862     8542383.581 2
  22704139.964     9967406.611 6   7704619.401 1
  21073523.597     -918636.999 7   -664229.793 2
  20859727.456     3502233.348 7   2725697.170 2
  20469031.089      261988.486 7    981682.837 2
 90 10 10 15 18 59.9990000  0  5 02 06 12 13 09
  24379734.284     8582840.017 2
  22714262.956    10020593.597 6   7746063.634 1
  21067808.073     -948674.222 7   -687635.439 2
  20864296.089     3526260.331 7   2744419.444 2
  20472799.690      281780.129 7    997104.853 2
 90 10 10 15 19 14.9990000  0  5 02 06 12 13 09
  24387444.386     8623326.345 1
  22724395.323    10073846.155 5   7787558.999 1
  21062114.565     -978604.207 7   -710957.521 2
  20868876.229     3550334.221 7   2763178.276 2
  20476595.097      301716.115 7   1012639.338 2
 90 10 10 15 19 29.9990000  0  4 06 12 13 09
  22734543.901    10127171.579 6   7829111.080 1
  21056439.308    -1008419.037 7   -734189.873 2
  20873470.339     3574462.481 7   2781979.474 2
  20480415.370      321804.225 7   1028292.371 2
 90 10 10 15 19 44.9990000  0  4 06 12 13 09
  22744705.315    10180569.406 6   7870719.658 1
  21050789.558    -1038118.552 7   -757332.363 2
  20878069.940     3598644.878 7   2800822.866 2
  20484269.855      342043.869 7   1044063.482 2
 90 10 10 15 19 59.9990000  0  4 06 12 13 09
  22754878.503    10234037.105 6   7912382.614 1
  21045158.800    -1067704.456 7   -780386.333 2
  20882684.487     3622878.766 7   2819706.371 1
  20488146.714      362433.083 7   1059951.138 2
 90 10 10 15 20 14.9990000  0  4 06 12 13 09
  22765070.620    10287576.820 6   7954101.708 1
  21039550.589    -1097173.954 7   -803349.602 2
  20887301.597     3647166.400 7   2838631.762 2
  20492060.597      382974.167 7   1075957.134 2
 90 10 10 15 20 29.9990000  0  4 06 12 13 09
  22775268.683    10341176.316 6   7995867.378 1
  21033962.909    -1126538.647 7   -826231.202 2
  20891934.065     3671495.579 7   2857589.522 2
  20495990.167      403655.058 7   1092072.063 2
 90 10 10 15 20 44.9990000  0  4 06 12 13 09
  22785480.979    10394851.564 6   8037692.074 1
  21028398.175    -1155782.071 7   -849018.298 2
  20896575.159     3695882.245 7   2876592.076 2
  20499957.433      424491.765 7   1108308.408 2
 90 10 10 15 20 59.9990000  0  4 06 12 13 09
  22795710.675    10448593.063 6   8079568.409 1
  21022856.229    -1184912.833 7   -871717.610 2
  20901223.440     3720317.238 7   2895632.283 2
  20503953.081      445475.205 7   1124659.095 2
 90 10 10 15 21 14.9990000  0  3 06 13 09
  22805949.464    10502400.547 6   8121496.148 1
  20905881.878     3744800.131 7   2914709.826 2
  20507974.269      466605.182 7   1141123.964 2
 90 10 10 15 21 29.9990000  0  3 06 13 09
  22816201.081    10556277.652 6   8163478.188 1
  20910549.706     3769334.925 7   2933827.803 2
  20512020.690      487885.829 7   1157706.239 2
 90 10 10 15 21 44.9990000  0  3 06 13 09
  22826466.995    10610219.021 6   8205510.247 1
  20915229.698     3793916.016 7   2952981.851 2
  20516098.167      509311.691 7   1174401.672 2
 90 10 10 15 21 59.9990000  0  3 06 13 09
  22836745.847    10664228.565 6   8247595.430 1
  20919915.894     3818547.164 7   2972174.910 1
  20520203.956      530886.802 7   1191213.399 2
 90 10 10 15 22 14.9990000  0  3 06 13 09
  22847033.386    10718298.872 6   8289727.994 1
  20924611.589     3843221.579 7   2991401.685 2
  20524338.433      552604.155 7   1208135.967 2
 90 10 10 15 22 29.9990000  0  3 06 13 09
  22857335.620    10772432.758 6   8331910.057 1
  20929315.222     3867941.806 7   3010664.157 2
  20528499.565      574466.850 7   1225171.783 2
 90 10 10 15 22 44.9990000  0  3 06 13 09
  22867648.792    10826629.000 6   8374140.757 1
  20934028.659     3892706.574 7   3029961.334 1
  20532686.355      596473.399 7   1242319.700 2
 90 10 10 15 22 59.9990000  0  3 06 13 09
  22877973.253    10880885.975 6   8416418.782 1
  20938750.612     3917514.777 7   3049292.353 1
  20536896.862      618622.993 7   1259579.074 2
 90 10 10 15 23 14.9990000  0  3 06 13 09
  22888307.448    10935201.198 5   8458742.168 1
  20943477.386     3942363.759 7   3068655.161 1
  20541142.284      640913.012 7   1276947.876 2
 90 10 10 15 23 29.9990000  0  3 06 13 09
  22898655.815    10989578.718 5   8501114.135 1
  20948216.144     3967257.785 7   3088053.057 1
  20545412.276      663347.717 7   1294429.423 2
 90 10 10 15 23 44.9990000  0  3 06 13 09
  22909015.401    11044024.979 6   8543539.616 1
  20952964.151     3992203.374 7   3107491.143 1
  20549707.503      685933.921 7   1312029.011 2
 90 10 10 15 23 59.9990000  0  3 06 13 09
  22919391.503    11098529.650 6   8586010.633 1
  20957716.987     4017190.146 7   3126961.313 1
  20554034.417      708661.308 7   1329738.614 2
 90 10 10 15 24 14.9990000  0  4 12 06 13 09
  20952765.386      -27647.952 7
  22929773.542    11153092.755 5   8628527.182 1
  20962478.136     4042218.294 7   3146463.724 2
  20558386.792      731530.322 7   1347558.578 2
 90 10 10 15 24 29.9990000  0  4 12 06 13 09
  20947526.026      -55171.756 7        -0.41112
  22940169.745    11207724.443 5   8671097.167 1
  20967254.526     4067297.887 7   3166006.231 2
  20562764.581      754550.956 7   1365496.686 2
 90 10 10 15 24 44.9990000  0  4 12 06 13 09
  20942312.511      -82578.947 7    -21356.671 2
  22950578.722    11262416.607 5   8713714.273 1
  20972032.948     4092421.051 7   3185582.685 2
  20567176.339      777715.555 7   1383546.981 2
 90 10 10 15 24 59.9990000  0  4 12 06 13 09
  20937115.128     -109883.085 7    -42632.637 2
  22960994.120    11317155.116 5   8756367.530 1
  20976819.714     4117573.700 7   3205182.111 2
  20571609.519      801010.060 7   1401698.495 2
 90 10 10 15 25 14.9990000  0  4 12 06 13 09
  20931941.870     -137072.226 7    -63818.991 2
  22971419.706    11371951.331 5   8799065.699 1
  20981612.292     4142767.373 7   3224813.512 2
  20576069.792      824446.037 7   1419960.247 2
 90 10 10 15 25 29.9990000  0  4 12 06 13 09
  20926793.089     -164131.336 7    -84904.022 2
  22981859.604    11426819.552 5   8841820.023 1
  20986418.323     4168016.462 7   3244488.076 2
  20580557.292      848037.977 7   1438343.529 2
 90 10 10 15 25 44.9990000  0  4 12 06 13 09
  20921664.901     -191075.121 7   -105899.189 3
  22992314.620    11481744.420 5   8884618.461 1
  20991230.925     4193305.586 7   3264193.850 1
  20585072.753      871770.877 7   1456836.649 2
 90 10 10 15 25 59.9990000  0  4 12 06 13 09
  20916559.542     -217905.487 7   -126805.981 2
  23002777.823    11536723.437 5   8927459.078 1
  20996049.534     4218632.243 7   3283928.878 1
  20589617.331      895642.216 7   1475437.648 2
 90 10 10 15 26 14.9990000  0  4 12 06 13 09
  20911477.589     -244616.748 7   -147619.963 2
  23013249.245    11591761.422 5   8970345.679 1
  21000877.394     4244001.517 7   3303697.112 2
  20594186.300      919657.079 7   1494150.485 2
 90 10 10 15 26 29.9990000  0  4 12 06 13 09
  20906414.222     -271216.431 7   -168347.004 2
  23023733.948    11646850.319 5   9013271.912 1
  21005712.011     4269405.416 7   3323492.322 1
  20598783.276      943807.583 7   1512969.008 2
 90 10 10 15 26 44.9990000  0  4 12 06 13 09
  20901375.362     -297696.351 7   -188980.722 2
  23034227.847    11701997.832 5   9056243.865 1
  21010556.401     4294851.613 7   3343320.496 1
  20603402.089      968101.558 7   1531899.327 2
 90 10 10 15 26 59.9990000  0  4 12 06 13 09
  20896360.323     -324055.637 7   -209520.436 2
  23044733.604    11757204.122 5   9099261.612 1
  21015404.558     4320340.464 7   3363181.914 1
  20608054.503      992539.398 7   1550941.756 2
 90 10 10 15 27 14.9990000  0  4 12 06 13 09
  20891364.323     -350306.299 7   -229975.512 2
  23055249.487    11812456.449 5   9142315.191 1
  21020261.058     4345859.339 7   3383066.729 1
  20612732.104     1017108.551 7   1570086.510 2
 90 10 10 15 27 29.9990000  0  4 12 06 13 09
  20886393.167     -376437.055 7   -250337.155 2
  23065773.792    11867765.562 5   9185413.039 1
  21025129.362     4371418.979 7   3402983.302 2
  20617430.042     1041819.851 7   1589342.024 2
 90 10 10 15 27 44.9990000  0  4 12 06 13 09
  20881443.003     -402449.031 7   -270606.250 2
  23076305.917    11923129.425 5   9228553.508 1
  21029995.558     4397017.711 7   3422930.339 1
  20622164.612     1066671.548 7   1608706.933 2
 90 10 10 15 27 59.9990000  0  4 12 06 13 09
  20876515.526     -428337.702 7   -290779.256 3
  23086852.886    11978552.023 5   9271739.771 1
  21034877.964     4422659.600 7   3442911.013 1
  20626916.401     1091667.857 7   1628184.533 2
 90 10 10 15 28 14.9990000  0  4 12 06 13 09
  20871609.808     -454116.138 7   -310866.365 3
  23097410.386    12034019.782 5   9314961.222 1
  21039762.065     4448331.002 7   3462914.669 1
  20631700.183     1116795.115 7   1647764.175 2
 90 10 10 15 28 29.9990000  0  4 12 06 13 09
  20866726.901     -479783.318 7   -330866.785 3
  23107973.464    12089532.949 5   9358218.056 1
  21044651.800     4474032.430 7   3482941.728 1
  20636508.542     1142053.977 7   1667446.356 2
 90 10 10 15 28 44.9990000  0  4 12 06 13 09
  20861867.620     -505324.138 7   -350768.741 2
  23118550.972    12145106.117 5   9401521.670 1
  21049551.167     4499778.310 7   3503003.421 2
  20641342.315     1167459.215 7   1687242.605 2
 90 10 10 15 28 59.9990000  0  4 12 06 13 09
  20857028.058     -530745.556 7   -370577.651 2
  23129134.519    12200731.533 5   9444865.992 1
  21054458.183     4525560.945 7   3523093.749 1
  20646200.558     1193003.198 7   1707146.961 2
 90 10 10 15 29 14.9990000  0  4 12 06 13 09
  20852215.065     -556048.285 7   -390294.080 2
  23139730.144    12256407.881 5   9488250.023 1
  21059371.659     4551379.058 7
  20651085.979     1218684.633 7
 90 10 10 15 29 29.9990000  0  4 12 06 13 09
  20847422.511     -581228.292 7   -409914.885 2
  23150333.128    12312138.569 5   9531676.330 1
  21064294.659     4577236.345 7
  20655999.894     1244507.204 7
 90 10 10 15 29 44.9990000  0  4 12 06 13 09
  20842652.800     -606284.332 7   -429439.084 3
  23160951.284    12367924.138 5   9575145.445 1
  21069222.198     4603133.477 7   3583539.788 1
  20660941.698     1270471.747 7   1767511.927 2
 90 10 10 15 29 59.9990000  0  4 12 06 13 09
  20837908.620     -631216.348 7   -448866.650 2
  23171576.222    12423764.076 5   9618656.902 1
  21074156.401     4629069.987 7   3603750.024 1
  20665909.339     1296577.808 7   1787854.266 2
 90 10 10 15 30 14.9990000  0  4 12 06 13 09
  20833188.144     -656028.821 7   -468201.066 3
  23182213.097    12479653.422 5   9662206.875 1
  21079097.354     4655041.116 7   3623987.239 1
  20670906.222     1322820.412 7   1808303.002 2
 90 10 10 15 30 29.9990000  0  3 06 13 09
  23192857.433    12535595.360 5   9705797.834 1
  21084045.573     4681049.854 7   3644253.756 1
  20675929.847     1349203.071 7   1828860.877 2
 90 10 10 15 30 44.9990000  0  3 06 13 09
  23203518.097    12591595.226 5   9749433.908 1
  21089006.550     4707101.895 7   3664554.015 2
  20680973.229     1375731.336 7   1849532.200 2
 90 10 10 15 30 59.9990000  0  3 06 13 09
  23214179.573    12647639.569 5   9793104.656 1
  21093966.097     4733183.760 7   3684877.518 1
  20686047.526     1402391.756 7   1870306.502 2
 90 10 10 15 31 14.9990000  0  3 06 13 09
  23224848.784    12703727.897 5   9836809.681 1
  21098937.417     4759295.249 7   3705224.107 1
  20691148.058     1429184.243 7   1891183.721 2
 90 10 10 15 31 29.9990000  0  3 06 13 09
  23235533.230    12759859.271 5   9880548.265 1
  21103911.417     4785435.415 7   3725593.044 2
  20696268.409     1456107.751 7   1912163.027 2
 90 10 10 15 31 44.9990000  0  3 06 13 09
  23246224.737    12816036.466 5   9924322.567 1
  21108893.604     4811607.178 7   3745986.593 2
  20701418.565     1483165.448 7   1933246.902 2
 90 10 10 15 31 59.9990000  0  3 06 13 09
  23256924.683    12872265.406 5   9968137.128 1
  21113878.472     4837816.620 7   3766409.497 1
  20706596.292     1510363.279 7   1954439.969 2
 90 10 10 15 32 14.9990000  0  3 06 13 09
  23267630.956    12928542.710 5  10011989.420 1
  21118872.519     4864060.341 7   3786859.114 1
  20711795.487     1537697.956 7   1975739.665 2
 90 10 10 15 32 29.9990000  0  3 06 13 09
  23278354.792    12984871.202 5  10055881.605 1
  21123877.144     4890341.318 7   3807337.767 1
  20717022.862     1565172.617 7   1997148.449 2
 90 10 10 15 32 44.9990000  0  3 06 13 09
  23289083.190    13041254.554 5  10099816.482 1
  21128884.253     4916663.189 7   3827848.279 1
  20722279.308     1592790.923 7   2018669.161 2
 90 10 10 15 32 59.9990000  0  3 06 13 09
  23299820.854    13097682.368 5  10143786.030 1
  21133898.019     4943015.908 7   3848382.832 1
  20727562.370     1620542.758 7   2040293.916 2
 90 10 10 15 33 14.9990000  0  3 06 13 09
  23310568.675    13154152.969 5  10187788.887 1
  21138917.612     4969397.721 7   3868940.054 1
  20732867.925     1648426.350 7   2062021.341 2
 90 10 10 15 33 29.9990000  0  3 06 13 09
  23321321.065    13210666.248 5  10231825.047 1
  21143943.690     4995808.898 7   3889520.157 1
  20738199.097     1676442.049 7   2083851.710 2
 90 10 10 15 33 44.9990000  0  3 06 13 09
  23332083.440    13267222.305 5  10275894.496 1
  21148975.479     5022249.608 7   3910123.260 1
  20743554.894     1704590.011 7   2105785.135 2
 90 10 10 15 33 59.9990000  0  3 06 13 09
  23342855.089    13323821.564 5  10319997.596 1
  21154012.940     5048720.088 7   3930749.575 2
  20748933.042     1732870.880 7   2127822.134 2
 90 10 10 15 34 14.9990000  0  3 06 13 09
  23353633.620    13380469.520 5  10364138.699 1
  21159057.003     5075225.960 7   3951403.458 2
  20754343.300     1761289.928 7   2149966.798 2
 90 10 10 15 34 29.9990000  0  3 06 13 09
  23364420.511    13437162.923 5  10408315.187 1
  21164104.948     5101764.294 7   3972082.635 2
  20759780.065     1789844.423 7   2172217.005 2
 90 10 10 15 34 44.9990000  0  3 06 13 09
  23375218.573    13493900.164 5  10452525.794 1
  21169164.706     5128333.603 7   3992785.952 1
  20765234.831     1818532.820 7   2194571.557 2
 90 10 10 15 34 59.9990000  0  3 06 13 09
  23386025.269    13550678.657 5  10496768.622 1
  21174223.487     5154931.410 7   4013511.472 2
  20770721.229     1847352.629 7   2217028.503 2
 90 10 10 15 35 14.9990000  0  3 06 13 09
  23396840.690    13607500.316 5  10541045.031 1
  21179293.206     5181559.508 7   4034260.593 2
  20776229.753     1876305.788 7   2239589.357 2
 90 10 10 15 35 29.9990000  0  3 06 13 09
  23407656.269    13664361.343 5  10585352.091 1
  21184362.026     5208214.365 7   4055030.567 1
  20781768.144     1905388.867 7   2262251.444 2
 90 10 10 15 35 44.9990000  0  3 06 13 09
  23418486.175    13721266.331 5  10629693.464 1
  21189442.644     5234900.679 7   4075825.051 1
  20787323.011     1934606.270 7   2285018.202 2
 90 10 10 15 35 59.9990000  0  3 06 13 09
  23429321.136    13778211.992 5  10674066.507 1
  21194525.987     5261615.229 7   4096641.539 1
  20792909.315     1963955.085 7   2307887.363 2
 90 10 10 15 36 14.9990000  0  3 06 13 09
  23440163.628    13835194.980 5  10718468.619 1
  21199612.597     5288355.071 7   4117477.734 1
  20798521.308     1993432.045 7   2330856.375 2
 90 10 10 15 36 29.9990000  0  3 06 13 09
  23451017.089    13892217.471 5  10762901.523 1
  21204707.401     5315122.345 7   4138335.304 2
  20804155.089     2023039.513 7   2353927.085 2
 90 10 10 15 36 44.9990000  0  4 12 06 13 09
  20718653.479          -0.57417
  23461877.284    13949279.428 5  10807365.154 1
  21209806.511     5341917.090 7   4159214.281 2
  20809813.229     2052777.602 7   2377099.571 2
 90 10 10 15 36 59.9990000  0  4 12 06 13 09
  20714568.206      -21466.646 7
  23472738.964    14006380.239 5  10851859.147 1
  21214909.925     5368738.880 7   4180114.329 1
  20815497.136     2082645.678 7   2400373.345 2
 90 10 10 15 37 14.9990000  0  4 12 06 13 09
  20710507.542      -42807.970 7
  23483614.206    14063518.043 5  10896381.892 1
  21220019.167     5395585.900 7   4201034.045 2
  20821205.878     2112642.141 7   2423747.165 2
 90 10 10 15 37 29.9990000  0  4 12 06 13 09
  20706469.620      -64023.609 7
  23494492.362    14120693.252 4  10940933.849 1
  21225131.886     5422458.618 7   4221973.786 1
  20826938.847     2142767.281 7   2447221.253 2
 90 10 10 15 37 44.9990000  0  4 12 06 13 09
  20702457.065      -85110.659 7        -0.09612
  23505383.753    14177908.001 5  10985516.574 1
  21230251.745     5449359.420 7   4242935.402 2
  20832697.628     2173023.784 7   2470797.700 2
 90 10 10 15 37 59.9990000  0  4 12 06 13 09
  20698468.878     -106074.584 7    -16335.642 2
  23516279.698    14235156.389 5  11030125.556 1
  21235377.933     5476282.313 7   4263914.234 1
  20838475.464     2203405.481 7   2494471.702 2
 90 10 10 15 38 14.9990000  0  4 12 06 13 09
  20694503.175     -126909.425 7    -32570.598 2
  23527177.198    14292443.767 5  11074764.838 1
  21240504.214     5503232.944 7   4284914.675 1
  20844282.440     2233917.981 7   2518247.625 2
 90 10 10 15 38 29.9990000  0  4 12 06 13 09
  20690563.511     -147612.054 7    -48702.543 2
  23538089.487    14349772.474 5  11119436.387 1
  21245637.933     5530214.023 7   4305938.849 1
  20850117.511     2264563.867 7   2542127.491 2
 90 10 10 15 38 44.9990000  0  4 12 06 13 09
  20686650.347     -168181.547 7    -64730.744 2
  23549005.495    14407142.934 4  11164140.403 1
  21250781.698     5557225.830 7   4326986.975 1
  20855969.870     2295343.512 7   2566111.577 3
 90 10 10 15 38 59.9990000  0  4 12 06 13 09
  20682760.229     -188620.825 7    -80657.462 2
  23559930.698    14464551.484 5  11208874.162 1
  21255923.401     5584264.867 7   4348056.311 1
  20861855.573     2326253.513 7   2590197.250 2
 90 10 10 15 39 14.9990000  0  4 12 06 13 09
  20678894.792     -208936.548 7    -96487.912 2
  23570861.245    14521991.066 5  11253632.063 1
  21261075.472     5611323.768 7   4369141.133 1
  20867758.159     2357286.685 7   2614378.888 2
 90 10 10 15 39 29.9990000  0  4 12 06 13 09
  20675051.823     -229124.197 7   -112218.569 2
  23581800.972    14579465.357 5  11298417.003 1
  21266227.495     5638406.907 7   4390244.838 1
  20873689.651     2388447.215 7   2638659.766 2
 90 10 10 15 39 44.9990000  0  4 12 06 13 09
  20671236.565     -249178.042 7   -127844.965 2
  23592743.073    14636979.758 5  11343233.260 1
  21271385.456     5665519.558 7   4411371.544 1
  20879647.433     2419740.348 7   2663043.974 2
 90 10 10 15 39 59.9990000  0  4 12 06 13 09
  20667443.151     -269104.467 7   -143372.068 2
  23603696.456    14694527.211 5  11388075.166 1
  21276550.589     5692655.102 7   4432516.085 1
  20885623.683     2451159.097 7   2687526.066 2
 90 10 10 15 40 14.9990000  0  4 12 06 13 09
  20663678.144     -288899.825 7   -158797.042 2
  23614655.370    14752110.619 5  11432945.128 1
  21281721.729     5719816.388 7   4453680.683 1
  20891624.472     2482706.671 7   2712108.537 2
 90 10 10 15 40 29.9990000  0  4 12 06 13 09
  20659935.456     -308565.128 7   -174120.673 2
  23625617.261    14809728.555 5  11477841.996 1
  21286893.839     5747001.910 7   4474864.162 1
  20897652.144     2514381.630 7   2736790.273 2
 90 10 10 15 40 44.9990000  0  4 12 06 13 09
  20656217.870     -328102.566 7   -189344.677 2
  23636586.925    14867378.189 5  11522763.552 1
  21292071.534     5774209.273 7   4496064.660 1
  20903702.995     2546181.367 7   2761569.234 2
 90 10 10 15 40 59.9990000  0  4 12 06 13 09
  20652524.605     -347510.532 7   -204467.788 2
  23647565.878    14925060.728 5  11567710.752 1
  21297253.440     5801439.556 7   4517283.011 1
  20909777.433     2578106.944 7   2786446.259 2
 90 10 10 15 41 14.9990000  0  4 12 06 13 09
  20648856.448     -366789.531 7   -219490.403 2
  23658547.026    14982774.963 5  11612682.668 1
  21302437.159     5828691.669 7   4538518.378 1
  20915877.534     2610157.419 7   2811420.607 2
 90 10 10 15 41 29.9990000  0  3 06 13 09
  23669536.159    15040524.972 5  11657682.452 1
  21307626.464     5855970.191 7   4559774.316 1
  20922004.651     2642337.219 7   2836495.730 2
 90 10 10 15 41 44.9990000  0  3 06 13 09
  23680531.683    15098302.776 5  11702703.865 1
  21312822.479     5883266.964 7   4581044.480 1
  20928151.284     2674638.104 7   2861665.189 2
 90 10 10 15 41 59.9990000  0  3 06 13 09
  23691534.745    15156114.103 5  11747751.462 1
  21318025.433     5910587.980 7   4602333.536 1
  20934319.534     2707065.942 7   2886933.588 2
 90 10 10 15 42 14.9990000  0  3 06 13 09
  23702538.323    15213955.498 5  11792822.433 1
  21323225.472     5937929.979 7   4623638.943 1
  20940516.487     2739617.463 7   2912298.360 2
 90 10 10 15 42 29.9990000  0  3 06 13 09
  23713551.206    15271828.563 5  11837918.086 1
  21328433.425     5965294.344 7   4644961.776 1
  20946733.729     2772294.437 7   2937760.891 2
 90 10 10 15 42 44.9990000  0  4 12 06 13 09
  20627367.300          -0.56017
  23724571.933    15329734.100 5  11883039.105 1
  21333645.409     5992682.239 7   4666302.948 1
  20952975.698     2805097.665 7   2963321.798 2
 90 10 10 15 42 59.9990000  0  4 12 06 13 09
  20623874.808      -18358.232 7
  23735598.276    15387671.469 5  11928184.830 1
  21338861.839     6020093.089 7   4687661.998 1
  20959240.284     2838026.693 7   2988980.727 2
 90 10 10 15 43 14.9990000  0  4 12 06 13 09
  20620407.073      -36580.900 7
  23746631.198    15445641.785 5  11973356.284 1
  21344081.847     6047528.153 7   4709039.915 1
  20965534.800     2871082.546 7   3014738.483 2
 90 10 10 15 43 29.9990000  0  4 12 06 13 09
  20616964.065      -54673.537 7
  23757666.878    15503639.536 5  12018549.089 1
  21349305.323     6074982.127 7   4730432.566 1
  20971845.870     2904259.972 7   3040590.969 2
 90 10 10 15 43 44.9990000  0  4 12 06 13 09
  20613549.073      -72630.001 7
  23768707.542    15561670.049 5  12063767.433 1
  21354535.378     6102460.845 7   4751844.503 1
  20978181.769     2937564.572 7   3066542.555 2
 90 10 10 15 43 59.9990000  0  4 12 06 13 09
  20610155.159      -90453.560 7        -0.24112
  23779757.995    15619729.765 5  12109008.513 1
  21359768.776     6129960.737 7   4773272.938 1
  20984544.050     2970992.550 7   3092590.272 2
 90 10 10 15 44 14.9990000  0  4 12 06 13 09
  20606790.120     -108142.607 7    -13783.939 2
  23790813.433    15677819.614 5  12154273.111 1
  21365005.534     6157482.574 7   4794718.478 1
  20990930.300     3004545.085 7   3118735.048 2
 90 10 10 15 44 29.9990000  0  4 12 06 13 09
  20603448.714     -125697.165 7    -27462.839 2
  23801873.339    15735939.034 5  12199560.697 1
  21370246.401     6185025.953 7   4816180.794 1
  20997339.050     3038221.516 7   3144976.366 2
 90 10 10 15 44 44.9990000  0  4 12 06 13 09
  20600133.315     -143120.111 7    -41039.191 2
  23812934.026    15794084.414 5  12244868.601 1
  21375492.933     6212587.453 7   4837657.234 1
  21003770.065     3072018.704 7   3171311.781 2
 90 10 10 15 44 59.9990000  0  4 12 06 13 09
  20596842.792     -160415.168 7    -54515.886 2
  23824005.081    15852251.704 4  12290193.515 1
  21380741.284     6240162.893 7   4859144.542 1
  21010222.479     3105932.341 7   3197737.932 2
 90 10 10 15 45 14.9990000  0  4 12 06 13 09
  20593576.331     -177576.097 7    -67888.069 2
  23835077.433    15910446.467 4  12335539.837 1
  21385993.198     6267758.260 7   4880647.371 1
  21016698.464     3139968.121 7   3224259.261 2
 90 10 10 15 45 29.9990000  0  4 12 06 13 09
  20590336.870     -194602.701 7    -81155.576 2
  23846158.089    15968668.181 4  12380907.182 1
  21391244.511     6295373.252 7   4902165.498 1
  21023200.417     3174125.695 7   3250875.500 2
 90 10 10 15 45 44.9990000  0  4 12 06 13 09
  20587123.034     -211488.426 7    -94313.318 2
  23857243.448    16026922.846 4  12426300.225 1
  21396506.792     6323013.986 7   4923703.686 1
  21029725.315     3208411.181 7   3277591.407 2
 90 10 10 15 45 59.9990000  0  4 12 06 13 09
  20583936.331     -228235.109 7   -107362.718 2
  23868333.136    16085208.081 5  12471717.042 1
  21401771.565     6350678.088 7   4945260.078 1
  21036271.979     3242822.212 7   3304405.136 2
 90 10 10 15 46 14.9990000  0  4 12 06 13 09
  20580774.065     -244854.120 7   -120312.626 2
  23879434.495    16143512.085 4  12517148.481 1
  21407034.128     6378353.982 7   4966825.667 1
  21042845.128     3277347.163 7   3331307.641 2
 90 10 10 15 46 29.9990000  0  4 12 06 13 09
  20577635.511     -261347.070 7   -133164.308 2
  23890531.503    16201832.655 4  12562592.833 1
  21412307.729     6406039.723 7   4988398.920 1
  21049432.042     3311983.838 7   3358297.193 2
 90 10 10 15 46 44.9990000  0  4 12 06 13 09
  20574524.472     -277703.319 7   -145909.469 3
  23901627.737    16260179.857 4  12608058.004 1
  21417575.948     6433745.360 7   5009987.669 1
  21056051.042     3346742.375 7   3385381.703 2
 90 10 10 15 46 59.9990000  0  4 12 06 13 09
  20571437.425     -293921.066 7   -158546.707 2
  23912737.659    16318554.932 4  12653544.878 1
  21422853.104     6461472.345 7   5031593.064 1
  21062685.198     3381623.971 7   3412562.110 2
 90 10 10 15 47 14.9990000  0  4 12 06 13 09
  20568377.925     -310001.219 7   -171076.729 2
  23923851.901    16376956.390 4  12699052.266 1
  21428136.581     6489219.416 7   5053214.113 1
  21069346.339     3416627.446 7   3439837.481 2
 90 10 10 15 47 29.9990000  0  4 12 06 13 09
  20565345.198     -325940.604 7   -183497.064 3
  23934974.831    16435386.837 4  12744582.235 1
  21433417.308     6516989.425 7   5074853.028 1
  21076032.331     3451755.442 7   3467209.888 2
 90 10 10 15 47 44.9990000  0  4 12 06 13 09
  20562336.370     -341745.516 7   -195812.609 2
  23946098.104    16493839.431 3  12790129.491 1
  21438704.815     6544775.431 7   5096504.414 1
  21082739.331     3487001.030 7   3494673.923 2
 90 10 10 15 47 59.9990000  0  4 12 06 13 09
  20559353.440     -357423.340 7   -208029.129 2
  23957224.761    16552306.193 3  12835687.742 1
  21443994.433     6572569.500 7   5118162.075 1
  21089467.917     3522356.432 7   3522223.521 2
 90 10 10 15 48 14.9990000  0  4 12 06 13 09
  20556399.144     -372947.435 7   -220125.854 3
  23968360.620    16610813.277 3  12881277.454 1
  21449290.229     6600398.043 7   5139846.601 1
  21096220.120     3557847.898 7   3549879.147 2
 90 10 10 15 48 29.9990000  0  4 12 06 13 09
  20553471.995     -388329.282 7   -232111.736 2
  23979494.190    16669348.624 2  12926889.231 1
  21454588.331     6628249.313 7   5161548.840 1
  21102998.409     3593463.438 7   3577631.452 2
 90 10 10 15 48 44.9990000  0  3 06 13 09
  23990638.573    16727898.859 2  12972512.530 1
  21459891.565     6656110.216 7   5183258.579 1
  21109797.565     3629189.658 7   3605470.006 2
 90 10 10 15 48 59.9990000  0  3 06 13 09
  24001785.136    16786468.550 2  13018151.031 1
  21465196.651     6683985.310 7   5204979.381 1
  21116616.456     3665031.270 7   3633398.469 2
 90 10 10 15 49 14.9990000  0  3 06 13 09
  24012935.737    16845069.270 2  13063813.702 1
  21470508.167     6711886.211 7   5226720.285 1
  21123461.933     3700999.895 7   3661425.911 2
 90 10 10 15 49 29.9990000  0  4 12 06 13 09
  20542021.542          -0.03017
  24024095.003    16903697.650 1
  21475820.315     6739809.778 7   5248478.864 1
  21130330.909     3737092.225 7   3689549.739 2
 90 10 10 15 49 44.9990000  0  3 12 13 09
  20539226.659      -14696.327 7
  21481134.933     6767742.846 7   5270244.835 1
  21137221.144     3773295.041 7   3717759.659 2
 90 10 10 15 49 59.9990000  0  3 12 13 09
  20536455.542      -29253.882 7        -0.37312
  21486455.003     6795692.666 7   5292023.865 1
  21144130.558     3809615.514 7   3746061.270 2
 90 10 10 15 50 14.9990000  0  3 12 13 09
  20533710.901      -43681.082 7    -11242.376 3
  21491772.800     6823650.293 7   5313808.976 1
  21151064.815     3846044.703 7   3774447.589 2
 90 10 10 15 50 29.9990000  0  3 12 13 09
  20530992.167      -57967.162 7    -22374.418 2
  21497098.565     6851626.313 7   5335608.418 1
  21158018.581     3882593.083 7   3802926.778 2
 90 10 10 15 50 44.9990000  0  4 12 06 13 09
  20528300.315      -72115.445 7    -33399.081 3
  24079928.073          -0.37912
  21502423.487     6879617.215 7   5357419.451 1
  21164995.425     3919256.755 7   3831495.808 2
 90 10 10 15 50 59.9990000  0  4 12 06 13 09
  20525634.394      -86125.243 7    -44315.836 3
  24091099.800       58737.350 3
  21507752.331     6907623.315 7   5379242.337 1
  21171994.565     3956035.976 7   3860154.873 2
 90 10 10 15 51 14.9990000  0  4 12 06 13 09
  20522995.214      -99990.478 7    -55119.944 3
  24102286.050      117499.485 3
  21513086.706     6935649.943 7   5401081.214 1
  21179016.136     3992936.132 7   3888908.174 2
 90 10 10 15 51 29.9990000  0  3 06 13 09
  24113466.347      176272.080 2        -0.23911
  21518422.237     6963683.039 7   5422925.136 1
  21186057.370     4029943.401 7   3917744.940 2
 90 10 10 15 51 44.9990000  0  3 06 13 09
  24124652.683      235063.367 3     45810.943 1
  21523759.550     6991731.026 7   5444780.661 1
  21193120.042     4067065.784 7   3946671.403 2
 90 10 10 15 51 59.9990000  0  3 06 13 09
  24135847.815      293865.917 3     91630.915 1
  21529098.269     7019786.954 7   5466642.368 1
  21200205.151     4104296.203 7   3975682.051 2
 90 10 10 15 52 14.9990000  0  3 06 13 09
  24147042.394      352688.781 4    137466.750 1
  21534441.659     7047860.052 7   5488517.441 1
  21207314.597     4141643.700 7   4004783.922 2
 90 10 10 15 52 29.9990000  0  3 06 13 09
  24158238.667      411532.769 5    183318.967 1
  21539787.901     7075951.404 7   5510406.754 1
  21214444.128     4179109.272 7   4033977.818 2
 90 10 10 15 52 44.9990000  0  3 06 13 09
  24169439.675      470391.193 5    229182.465 1
  21545135.354     7104053.890 7   5532304.733 1
  21221593.026     4216686.012 6   4063258.322 2
 90 10 10 15 52 59.9990000  0  3 06 13 09
  24180643.065      529270.677 4    275062.406 1
  21550486.097     7132174.363 7   5554216.735 1
  21228769.839     4254380.358 7   4092630.471 2
 90 10 10 15 53 14.9990000  0  3 06 13 09
  24191850.589      588166.843 4    320955.330 1
  21555842.190     7160309.121 7   5576139.870 1
  21235962.581     4292188.526 7   4122091.316 2
 90 10 10 15 53 29.9990000  0  3 06 13 09
  24203064.581      647076.047 4
  21561196.761     7188454.393 7   5598071.194 1
  21243177.495     4330106.755 7   4151637.918 2
 90 10 10 15 53 44.9990000  0  3 06 13 09
  24214274.683      706002.479 5
  21566555.948     7216614.712 7   5620014.252 1
  21250416.753     4368139.441 7   4181273.707 2
 90 10 10 15 53 59.9990000  0  3 06 13 09
  24225490.167      764962.989 5
  21571921.604     7244806.996 7   5641982.214 1
  21257678.542     4406303.194 7   4211011.632 2
 90 10 10 15 54 14.9990000  0  3 06 13 09
  24236717.198      823935.174 5
  21577285.323     7273008.863 7   5663957.640 1
  21264963.034     4444575.672 7   4240834.269 2
 90 10 10 15 54 29.9990000  0  3 06 13 09
  24247939.284      882915.399 5
  21582653.565     7301216.704 7   5685937.727 1
  21272265.479     4482953.178 7   4270738.742 2
 90 10 10 15 54 44.9990000  0  3 06 13 09
  24259167.011      941903.565 5        -0.36911
  21588024.222     7329431.045 7   5707922.872 1
  21279586.964     4521436.098 6   4300725.359 2
 90 10 10 15 54 59.9990000  0  3 06 13 09
  24270396.472     1000909.501 5     45978.078 1
  21593397.206     7357661.559 7   5729920.620 1
  21286933.003     4560033.856 7   4330801.459 2
 90 10 10 15 55 14.9990000  0  3 06 13 09
  24281625.433     1059920.945 5     91960.853 1
  21598768.112     7385896.317 7   5751921.674 1
  21294298.487     4598734.546 7   4360957.766 2
 90 10 10 15 55 29.9990000  0  4 12 06 13 09
  20482206.050          -0.86717
  24292856.019     1118939.015 5    137948.698 1
  21604144.425     7414136.602 7   5773927.043 1
  21301681.979     4637539.127 7   4391195.028 2
 90 10 10 15 55 44.9990000  0  4 12 06 13 09
  20480047.800      -11349.942 7
  24304089.347     1177968.081 5    183945.092 1
  21609520.464     7442387.058 7   5795940.331 1
  21309086.355     4676452.269 7   4421516.881 2
 90 10 10 15 55 59.9990000  0  4 12 06 13 09
  20477914.831      -22556.745 7        -0.31412
  24315323.401     1237009.806 4    229951.466 1
  21614897.917     7470649.328 7   5817962.820 1
  21316513.933     4715475.230 7   4451924.313 2
 90 10 10 15 56 14.9990000  0  4 12 06 13 09
  20475809.269      -33618.221 7     -8619.677 2
  24326561.589     1296066.511 3    275969.488 1
  21620278.190     7498926.188 7   5839996.679 1
  21323959.292     4754610.608 7   4482419.338 2
 90 10 10 15 56 29.9990000  0  4 12 06 13 09
  20473732.456      -44534.624 7    -17125.995 2
  24337804.839     1355137.517 3
  21625662.847     7527216.879 7   5862041.326 1
  21331428.300     4793857.765 7   4513001.463 2
 90 10 10 15 56 44.9990000  0  4 12 06 13 09
  20471681.800      -55311.615 7    -25523.677 3
  24349042.065     1414216.307 2
  21631047.128     7555515.145 7   5884091.863 1
  21338917.917     4833210.518 7   4543665.863 2
 90 10 10 15 56 59.9990000  0  4 12 06 13 09
  20469658.011      -65943.426 7    -33808.237 3
  24360292.370     1473308.385 1
  21636433.105     7583826.658 7   5906152.719 1
  21346426.628     4872674.150 7   4574416.669 2
 90 10 10 15 57 14.9990000  0  3 12 13 09
  20467661.479      -76434.313 7    -41982.985 2
  21641822.839     7612146.784 7   5928220.291 1
  21353956.683     4912243.925 7   4605250.185 2
 90 10 10 15 57 29.9990000  0  3 12 13 09
  20465691.440      -86786.554 7    -50049.697 2
  21647213.292     7640472.870 7   5950292.503 1
  21361506.784     4951917.105 7   4636164.276 2
 90 10 10 15 57 44.9990000  0  3 12 13 09
  20463751.854      -96981.210 7    -57993.611 2
  21652609.831     7668823.620 7   5972383.943 1
  21369079.105     4991712.103 7   4667173.281 2
 90 10 10 15 57 59.9990000  0  3 12 13 09
  20461837.683     -107039.810 7    -65831.506 2
  21658004.995     7697177.158 7   5994477.546 1
  21376671.144     5031607.127 7   4698260.234 2
 90 10 10 15 58 14.9990000  0  3 12 13 09
  20459950.386     -116957.013 7    -73559.227 2
  21663400.198     7725538.414 7   6016577.175 1
  21384284.659     5071606.993 7   4729428.882 2
 90 10 10 15 58 29.9990000  0  3 12 13 09
  20458089.815     -126732.521 7    -81176.535 2
  21668800.605     7753907.593 7   6038682.970 1
  21391915.683     5111711.472 7   4760679.045 2
 90 10 10 15 58 44.9990000  0  3 12 13 09
  20456256.651     -136371.604 7    -88687.540 2
  21674198.628     7782279.056 7   6060790.534 1
  21399566.737     5151914.874 7   4792006.293 2
 90 10 10 15 58 59.9990000  0  3 12 13 09
  20454448.808     -145874.532 7    -96092.447 2
  21679598.839     7810652.368 7   6082899.537 1
  21407233.112     5192216.314 7   4823409.929 2
 90 10 10 15 59 14.9990000  0  3 12 13 09
  20452668.315     -155221.288 7   -103375.665 2
  21685002.167     7839047.068 7   6105025.209 1
  21414925.292     5232635.632 7   4854905.428 2
 90 10 10 15 59 29.9990000  0  3 12 13 09
  20450917.339     -164429.110 7   -110550.622 2
  21690405.636     7867445.562 7   6127153.839 1
  21422639.511     5273155.087 7   4886478.949 2
 90 10 10 15 59 44.9990000  0  4 12 20 13 09
  20449194.198     -173487.131 7   -117608.856 2
  24473186.808          -0.66314
  21695811.448     7895858.296 7   6149293.559 1
  21430368.370     5313784.893 7   4918138.446 2
 90 10 10 15 59 59.9990000  0  4 12 20 13 09
  20447496.683     -182402.551 7   -124555.964 2
  24463317.683      -51888.503 3
  21701220.690     7924277.802 7   6171438.577 1
  21438117.933     5354517.413 7   4949878.002 2
 90 10 10 16  0 14.9990000  0  4 12 20 13 09
  20445825.495     -191180.059 7   -131395.611 3
  24453438.003     -103803.744 3
  21706630.487     7952699.134 7   6193585.020 1
  21445889.776     5395347.697 7   4981693.720 2
 90 10 10 16  0 29.9990000  0  4 12 20 13 09
  20444184.347     -199810.023 7   -138120.284 3
  24443557.331     -155736.456 3
  21712040.972     7981131.916 7   6215740.383 1
  21453680.519     5436284.947 7   5013592.797 2
 90 10 10 16  0 44.9990000  0  4 12 20 13 09
  20442570.503     -208289.995 7   -144728.088 3
  24433674.620     -207684.333 4
  21717453.222     8009578.098 7   6237906.166 1
  21461490.925     5477331.043 7   5045576.679 2
 90 10 10 16  0 59.9990000  0  3 20 13 09
  24423779.901     -259657.600 3        -0.43611
  21722867.245     8038027.200 7   6260074.235 1
  21469321.261     5518475.141 7   5077636.930 2
 90 10 10 16  1 14.9990000  0  3 20 13 09
  24413884.979     -311651.728 3    -40515.336 1
  21728280.589     8066483.525 7   6282247.918 1
  21477169.104     5559721.540 7   5109776.897 2
 90 10 10 16  1 29.9990000  0  3 20 13 09
  24403995.394     -363670.765 4    -81049.742 1
  21733697.370     8094942.116 7   6304423.374 1
  21485034.886     5601065.167 6   5141992.618 2
 90 10 10 16  1 44.9990000  0  4 12 20 13 09
  20436383.604          -0.53617
  24394085.089     -415716.246 4   -121604.630 1
  21739113.925     8123401.429 7   6326599.393 1
  21492922.847     5642504.370 6   5174282.819 2
 90 10 10 16  1 59.9990000  0  4 12 20 13 09
  20434905.214       -7770.558 7
  24384173.417     -467778.906 4   -162172.977 1
  21744531.003     8151870.473 7   6348782.997 1
  21500827.565     5684047.937 7   5206654.333 2
 90 10 10 16  2 14.9990000  0  4 12 20 13 09
  20433452.565      -15403.696 7        -0.13912
  24374257.839     -519869.553 3   -202763.138 1
  21749948.409     8180338.018 7   6370965.428 1
  21508750.917     5725684.466 7   5239098.296 2
 90 10 10 16  2 29.9990000  0  4 12 20 13 09
  20432028.136      -22890.786 7     -5834.263 2
  24364345.276     -571978.776 4   -243367.736 1
  21755365.987     8208813.009 7   6393153.669 1
  21516694.136     5767422.687 7   5271621.501 2
 90 10 10 16  2 44.9990000  0  4 12 20 13 09
  20430630.855      -30234.708 7    -11556.831 3
  24354427.581     -624109.143 5   -283988.828 1
  21760784.753     8237292.677 7   6415345.544 1
  21524655.651     5809259.468 7   5304221.505 2
 90 10 10 16  2 59.9990000  0  4 12 20 13 09
  20429261.979      -37436.551 7    -17168.686 3
  24344507.417     -676261.979 5   -324627.403 1
  21766205.433     8265775.221 7   6437539.667 1
  21532633.683     5851193.310 6   5336897.138 2
 90 10 10 16  3 14.9990000  0  4 12 20 13 09
  20427917.729      -44494.833 7    -22668.682 3
  24334572.722     -728435.549 4   -365282.175 1
  21771628.128     8294262.036 7   6459737.121 1
  21540633.659     5893225.168 6   5369649.142 2
 90 10 10 16  3 29.9990000  0  4 12 20 13 09
  20426602.136      -51404.827 7    -28053.126 3
  24324643.839     -780625.111 5   -405949.350 1
  21777049.823     8322757.453 7   6481941.276 1
  21548652.026     5935359.098 7   5402480.681 2
 90 10 10 16  3 44.9990000  0  4 12 20 13 09
  20425314.034      -58177.313 7    -33330.419 3
  24314707.659     -832841.357 5   -446637.375 1
  21782471.862     8351250.506 7   6504143.595 1
  21556687.644     5977584.063 7   5435383.164 2
 90 10 10 16  3 59.9990000  0  4 12 20 13 09
  20424054.120      -64796.955 7    -38488.613 3
  24304768.331     -885069.067 5   -487334.301 1
  21787894.308     8379756.091 7   6526355.665 1
  21564739.737     6019914.897 6   5468368.138 2
 90 10 10 16  4 14.9990000  0  4 12 20 13 09
  20422825.190      -71255.034 7    -43520.911 3
  24294828.190     -937299.423 5   -528033.308 1
  21793325.308     8408283.078 7   6548584.419 1
  21572820.433     6062359.839 6   5501442.030 2
 90 10 10 16  4 29.9990000  0  4 12 20 13 09
  20421624.151      -77564.124 7    -48437.114 3
  24284886.511     -989545.040 4   -568744.188 1
  21798754.979     8436818.414 7   6570819.688 1
  21580915.745     6104905.921 6   5534594.727 2
 90 10 10 16  4 44.9990000  0  4 12 20 13 09
  20420451.026      -83733.559 7    -53244.501 3
  24274940.253    -1041814.701 5   -609473.829 1
  21804184.886     8465352.653 7   6593054.096 1
  21589029.526     6147543.399 6   5567818.652 2
 90 10 10 16  4 59.9990000  0  4 12 20 13 09
  20419302.729      -89757.657 7    -57938.623 3
  24264990.667    -1094102.655 5   -650217.704 1
  21809616.948     8493890.892 7   6615291.626 1
  21597161.167     6190277.550 6   5601117.893 2
 90 10 10 16  5 14.9990000  0  4 12 20 13 09
  20418185.534      -95637.339 7    -62520.227 3
  24255034.901    -1146409.706 4   -690976.468 1
  21815046.206     8522432.241 7   6637531.573 1
  21605309.714     6233107.153 6   5634491.521 2
 90 10 10 16  5 29.9990000  0  4 12 20 13 09
  20417095.237     -101366.497 7    -66984.532 3
  24245078.300    -1198729.969 4   -731745.532 1
  21820479.831     8550982.537 7   6659778.486 1
  21613482.565     6276037.809 6   5667943.883 2
 90 10 10 16  5 44.9990000  0  4 12 20 13 09
  20416032.948     -106951.557 7    -71336.558 3
  24235129.144    -1251069.745 5   -772529.790 1
  21825912.839     8579534.993 7   6682027.099 1
  21621668.042     6319062.618 6   5701469.614 2
 90 10 10 16  5 59.9990000  0  4 12 20 13 09
  20414998.206     -112387.997 7    -75572.779 3
  24225157.229    -1303424.434 4   -813325.668 1
  21831348.917     8608093.928 7   6704280.763 1
  21629871.854     6362185.473 6   5735071.750 2
 90 10 10 16  6 14.9990000  0  4 12 20 13 09
  20413990.534     -117680.145 7    -79696.561 3
  24215196.737    -1355798.168 5   -854136.407 1
  21836782.144     8636654.677 7   6726535.840 1
  21638099.034     6405401.652 7   5768746.598 2
 90 10 10 16  6 29.9990000  0  4 12 20 13 09
  20413010.878     -122832.647 7    -83711.529 3
  24205221.448    -1408195.478 5   -894965.485 1
  21842217.901     8665212.438 7   6748788.581 1
  21646340.245     6448706.181 7   5802490.293 2
 90 10 10 16  6 44.9990000  0  4 12 20 13 09
  20412057.128     -127838.547 7    -87612.265 3
  24195249.026    -1460609.371 5   -935807.562 1
  21847653.862     8693774.134 7   6771044.386 1
  21654598.925     6492105.694 7   5836308.000 2
 90 10 10 16  6 59.9990000  0  4 12 20 13 09
  20411132.831     -132703.488 7    -91403.160 3
  24185271.589    -1513045.218 5   -976666.668 1
  21853088.151     8722333.749 7   6793298.567 1
  21662872.323     6535594.002 7   5870194.891 2
 90 10 10 16  7 14.9990000  0  4 12 20 13 09
  20410235.526     -137420.928 7    -95079.119 3
  24175289.261    -1565496.246 5  -1017537.627 1
  21858523.894     8750897.622 7   6815556.070 1
  21671165.597     6579177.310 6   5904155.825 2
 90 10 10 16  7 29.9990000  0  4 12 20 13 09
  20409365.776     -141992.208 7    -98641.193 3
  24165309.128    -1617963.911 5  -1058421.547 1
  21863958.761     8779464.043 7   6837815.565 1
  21679477.175     6622853.585 7   5938189.184 2
 90 10 10 16  7 44.9990000  0  4 12 20 13 09
  20408522.972     -146418.700 7   -102090.443 2
  24155316.456    -1670449.419 5  -1099319.366 1
  21869395.800     8808031.460 7   6860075.815 1
  21687807.198     6666621.219 7   5972293.735 2
 90 10 10 16  7 59.9990000  0  3 20 13 09
  24145324.479    -1722951.851 5  -1140230.400 1
  21874833.628     8836600.666 7   6882337.481 1
  21696152.823     6710480.863 7   6006469.979 2
 90 10 10 16  8 14.9990000  0  3 20 13 09
  24135334.831    -1775454.666 5  -1181141.729 1
  21880271.948     8865187.754 7   6904613.076 1
  21704520.011     6754448.170 7   6040730.123 2
 90 10 10 16  8 29.9990000  0  3 20 13 09
  24125344.542    -1827973.939 5  -1222065.817 1
  21885712.097     8893776.311 7   6926889.814 1
  21712904.425     6798506.709 7   6075061.352 2
 90 10 10 16  8 44.9990000  0  4 12 20 13 09
  20405439.956          -0.73917
  24115349.776    -1880509.546 5  -1263002.713 1
  21891152.714     8922365.863 7   6949167.327 1
  21721306.323     6842655.704 7   6109463.059 2
 90 10 10 16  8 59.9990000  0  4 12 20 13 09
  20404737.409       -3694.372 7
  24105342.261    -1933073.278 5  -1303961.475 1
  21896589.894     8950944.390 7   6971436.256 1
  21729722.097     6886883.072 7   6143925.849 2
 90 10 10 16  9 14.9990000  0  4 12 20 13 09
  20404059.886       -7257.509 7        -0.21713
  24095334.644    -1985668.277 5  -1344944.628 1
  21902026.612     8979508.477 7   6993693.935 1
  21738154.417     6931185.061 7   6178446.784 2
 90 10 10 16  9 29.9990000  0  4 12 20 13 09
  20403409.175      -10673.400 7     -2661.987 3
  24085325.511    -2038277.600 5  -1385938.902 1
  21907463.448     9008074.685 7   7015953.256 1
  21746600.308     6975577.861 7   6213038.470 2
 90 10 10 16  9 44.9990000  0  4 12 20 13 09
  20402786.144      -13944.945 7     -5211.288 3
  24075309.292    -2090904.194 5  -1426946.683 1
  21912898.058     9036639.689 7   7038211.640 1
  21755064.667     7020058.121 7   6247698.310 2
 90 10 10 16  9 59.9990000  0  4 12 20 13 09
  20402194.472      -17060.972 7     -7639.400 3
  24065295.315    -2143536.761 5  -1467959.113 1
  21918335.198     9065214.426 7   7060477.588 1
  21763546.526     7064636.735 7   6282434.787 2
 90 10 10 16 10 14.9990000  0  4 12 20 13 09
  20401627.761      -20032.082 7     -9954.598 3
  24055277.886    -2196185.501 5  -1508984.114 1
  21923774.823     9093788.466 7   7082743.008 1
  21772048.433     7109302.723 7   6317239.353 2
 90 10 10 16 10 29.9990000  0  4 12 20 13 09
  20401091.558      -22856.607 7    -12155.569 3
  24045252.690    -2248848.646 5  -1550020.372 1
  21929209.823     9122363.155 7   7105008.940 1
  21780563.956     7154057.329 7   6352112.968 2
 90 10 10 16 10 44.9990000  0  4 12 20 13 09
  20400582.339      -25531.476 7    -14239.921 3
  24035226.979    -2301523.164 5  -1591065.538 1
  21934652.026     9150941.333 7   7127277.579 1
  21789098.175     7198903.228 7   6387057.712 2
 90 10 10 16 10 59.9990000  0  4 12 20 13 09
  20400102.448      -28050.972 7    -16203.204 3
  24025205.644    -2354203.137 5  -1632114.844 1
  21940092.159     9179528.476 7   7149553.215 1
  21797649.222     7243845.573 7   6422077.622 1
 90 10 10 16 11 14.9990000  0  4 12 20 13 09
  20399651.237      -30425.431 7    -18053.475 3
  24015176.151    -2406898.715 5  -1673176.375 1
  21945527.409     9208113.996 7   7171827.576 1
  21806220.058     7288873.849 7   6457164.485 2
 90 10 10 16 11 29.9990000  0  4 12 20 13 09
  20399226.675      -32659.634 8    -19794.447 3
  24005142.940    -2459614.519 4  -1714253.638 1
  21950966.644     9236693.129 7   7194096.967 1
  21814801.831     7333982.538 7   6492314.010 2
 90 10 10 16 11 44.9990000  0  3 20 13 09
  23995107.644    -2512348.286 4  -1755344.902 1
  21956405.261     9265267.644 7   7216362.754 1
  21823403.917     7379173.562 7   6527527.685 2
 90 10 10 16 11 59.9990000  0  3 20 13 09
  23985069.776    -2565107.271 4  -1796455.844 1
  21961840.706     9293829.710 7   7238618.843 1
  21832015.714     7424439.164 6   6562799.472 2
 90 10 10 16 12 14.9990000  0  3 20 13 09
  23975029.425    -2617871.882 5  -1837571.110 1
  21967277.581     9322398.810 7   7260880.407 1
  21840649.722     7469798.208 7   6598144.071 2
 90 10 10 16 12 29.9990000  0  3 20 13 09
  23964984.339    -2670651.158 5  -1878697.876 1
  21972714.433     9350965.383 7   7283140.006 1
  21849295.284     7515240.980 6   6633553.915 2
 90 10 10 16 12 44.9990000  0  3 20 13 09
  23954944.089    -2723446.551 5  -1919837.165 1
  21978146.745     9379528.211 7   7305396.680 1
  21857958.909     7560765.725 6   6669027.636 2
 90 10 10 16 12 59.9990000  0  3 20 13 09
  23944893.972    -2776254.125 5  -1960985.937 1
  21983584.300     9408090.462 7   7327652.900 1
  21866638.237     7606375.456 6   6704567.572 2
 90 10 10 16 13 14.9990000  0  3 20 13 09
  23934841.573    -2829077.839 5  -2002147.301 1
  21989019.604     9436647.675 7   7349905.201 1
  21875333.940     7652065.762 7   6740170.302 2
 90 10 10 16 13 29.9990000  0  3 20 13 09
  23924781.565    -2881908.596 5  -2043314.175 1
  21994454.784     9465208.653 7   7372160.435 1
  21884043.909     7697845.320 7   6775842.570 2
 90 10 10 16 13 44.9990000  0  3 20 13 09
  23914732.847    -2934752.388 5  -2084491.166 1
  21999888.331     9493767.320 7   7394413.868 1
  21892772.362     7743707.485 6   6811579.218 2
 90 10 10 16 13 59.9990000  0  4 12 20 13 09
  20396488.722          -0.20217
  23904675.722    -2987601.716 5  -2125672.485 1
  22005322.534     9522330.859 7   7416671.106 1
  21901517.753     7789659.523 6   6847385.882 2
 90 10 10 16 14 14.9990000  0  4 12 20 13 09
  20396370.050        -624.489 7
  23894613.995    -3040461.088 5  -2166861.627 1
  22010758.495     9550894.282 7   7438928.245 1
  21910277.956     7835695.957 6   6883258.312 1
 90 10 10 16 14 29.9990000  0  4 12 20 13 09
  20396277.948       -1109.937 7        -0.38813
  23884556.839    -3093340.186 5  -2208066.140 1
  22016192.245     9579447.805 7   7461177.664 1
  21919050.628     7881806.770 6   6919188.702 2
 90 10 10 16 14 44.9990000  0  4 12 20 13 09
  20396213.776       -1445.408 7      -261.828 3
  23874489.964    -3146227.344 5  -2249276.965 1
  22021627.073     9608002.334 7   7483427.861 1
  21927842.464     7928002.680 6   6955185.399 2
 90 10 10 16 14 59.9990000  0  4 12 20 13 09
  20396176.362       -1637.941 7
  23864419.433    -3199129.304 5  -2290499.304 1
  22027059.909     9636550.762 7   7505673.311 1
  21936648.690     7974276.487 6   6991242.787 2
 90 10 10 16 15 14.9990000  0  4 12 20 13 09
  20396168.644       -1681.298 7
  23854355.722    -3252039.912 5  -2331728.385 1
  22032493.097     9665099.390 6   7527918.911 1
  21945471.480     8020633.997 6   7027365.412 2
 90 10 10 16 15 29.9990000  0  4 12 20 13 09
  20396187.925       -1577.370 7
  23844283.792    -3304960.570 5  -2372965.301 1
  22037925.167     9693646.249 7   7550163.147 1
  21954306.292     8067072.900 6   7063551.449 1
 90 10 10 16 15 44.9990000  0  4 12 20 13 09
  20396233.206       -1346.999 7
  23834209.683    -3357912.183 5  -2414226.334 1
  22043353.269     9722170.080 7   7572389.428 1
  21963156.933     8113571.994 6   7099784.393 1
 90 10 10 16 15 59.9990000  0  4 12 20 13 09
  20396308.573        -953.621 7
  23824130.784    -3410857.875 5  -2455482.772 1
  22048782.823     9750707.211 7   7594626.089 1
  21972021.315     8160167.320 6   7136092.317 1
 90 10 10 16 16 14.9990000  0  4 12 20 13 09
  20396408.854        -419.465 7
  23814051.753    -3463819.655 5  -2496751.724 1
  22054210.823     9779235.362 7   7616855.736 1
  21980903.698     8206836.210 6   7172457.565 1
 90 10 10 16 16 29.9990000  0  4 12 20 13 09
  20396538.206         257.991 7
  23803973.315    -3516794.932 5  -2538031.197 1
  22059640.136     9807756.755 7   7639080.132 1
  21989796.886     8253581.051 6   7208882.012 2
 90 10 10 16 16 44.9990000  0  4 12 20 13 09
  20396695.511        1085.595 7        -0.41413
  23793886.769    -3569776.417 5  -2579315.510 1
  22065066.980     9836278.223 7   7661304.582 1
  21998709.784     8300408.073 6   7245370.479 1
 90 10 10 16 16 59.9990000  0  4 12 20 13 09
  20396882.519        2066.152 7       763.612 3
  23783806.956    -3622761.310 5  -2620602.460 1
  22070496.003     9864802.651 7   7683531.344 1
  22007635.972     8347319.807 6   7281924.977 1
 90 10 10 16 17 14.9990000  0  4 12 20 13 09
  20397097.690        3196.785 7      1644.578 3
  23773720.675    -3675752.385 5  -2661894.269 1
  22075922.917     9893327.039 7   7705758.073 1
  22016578.604     8394313.031 6   7318542.954 1
 90 10 10 16 17 29.9990000  0  4 12 20 13 09
  20397341.362        4475.965 7      2641.313 3
  23763636.729    -3728750.809 5  -2703191.766 1
  22081348.972     9921849.608 7   7727983.378 1
  22025537.050     8441385.754 6   7355222.880 1
 90 10 10 16 17 44.9990000  0  4 12 20 13 09
  20397612.151        5902.857 7      3753.135 3
  23753554.956    -3781757.315 5  -2744495.573 1
  22086778.128     9950369.331 7   7750206.472 1
  22034510.511     8488536.786 6   7391963.837 1
 90 10 10 16 17 59.9990000  0  4 12 20 13 09
  20397911.589        7471.040 7      4975.058 3
  23743459.144    -3834777.989 5  -2785810.398 1
  22092204.261     9978879.663 7   7772422.239 1
  22043496.542     8535759.366 6   7428760.545 1
 90 10 10 16 18 14.9990000  0  4 12 20 13 09
  20398239.425        9190.922 7      6315.185 3
  23733367.284    -3887802.201 5  -2827127.993 1
  22097628.573    10007390.999 7   7794638.798 1
  22052497.823     8583063.548 6   7465620.827 1
 90 10 10 16 18 29.9990000  0  4 12 20 13 09
  20398595.714       11058.351 8      7770.284 3
  23723275.800    -3940833.624 5  -2868451.213 1
  22103052.901    10035899.005 6   7816852.762 1
  22061512.534     8630444.797 6   7502541.160 1
 90 10 10 16 18 44.9990000  0  4 12 20 13 09
  20398978.042       13073.996 7      9340.879 3
  23713187.464    -3993871.493 5  -2909779.436 1
  22108477.823    10064404.417 6   7839064.700 1
  22070546.019     8677903.527 6   7539521.860 1
 90 10 10 16 18 59.9990000  0  4 12 20 13 09
  20399389.706       15243.373 7     11031.259 3
  23703095.753    -4046910.211 5  -2951108.321 1
  22113902.737    10092912.517 6   7861278.726 1
  22079592.292     8725444.690 6   7576566.813 1
 90 10 10 16 19 14.9990000  0  4 12 20 13 09
  20399832.526       17560.959 8     12837.131 3
  23692999.550    -4099954.916 5  -2992441.891 1
  22119328.347    10121417.616 6   7883490.414 1
  22088654.315     8773062.425 6   7613671.414 1
 90 10 10 16 19 29.9990000  0  4 12 20 13 09
  20400314.230       20091.491 8     14808.933 3
  23682918.183    -4152940.699 5  -3033729.543 1
  22124764.105    10149984.261 6   7905750.048 1
  22097743.628     8820821.153 6   7650885.870 1
 90 10 10 16 19 44.9990000  0  4 12 20 13 09
  20400870.831       23022.098 7     17092.490 3
  23672881.823    -4205680.360 5  -3074825.398 1
  22130247.862    10178799.591 6   7928203.470 1
  22106892.394     8868907.497 6   7688355.611 1
 90 10 10 16 19 59.9990000  0  4 12 20 13 09
  20401455.276       26095.270 7     19487.130 3
  23662845.558    -4258430.961 5  -3115929.783 1
  22135727.870    10207605.975 6   7950649.938 1
  22116057.308     8917064.043 6   7725880.068 1
 90 10 10 16 20 14.9990000  0  4 12 20 13 09
  20402070.730       29323.819 7     22002.850 3
  23652804.964    -4311179.464 5  -3157032.538 1
  22141211.683    10236416.134 7   7973099.346 1
  22125234.839     8965302.927 6   7763468.687 1
 90 10 10 16 20 29.9990000  0  3 20 13 09
  23642763.550    -4363936.936 5  -3198142.261 1
  22146692.550    10265218.681 7   7995542.816 1
  22134429.354     9013612.318 6   7801112.259 1
 90 10 10 16 20 44.9990000  0  3 20 13 09
  23632722.878    -4416693.281 5  -3239251.115 1
  22152172.776    10294023.248 7   8017987.851 1
  22143637.565     9062001.763 6   7838818.191 1
 90 10 10 16 20 59.9990000  0  3 20 13 09
  23622684.362    -4469449.727 5  -3280360.065 1
  22157654.597    10322828.387 7   8040433.350 1
  22152860.190     9110469.491 6   7876585.125 1
 90 10 10 16 21 14.9990000  0  4 12 20 13 09
  20404811.651        3825.243 7
  23612647.730    -4522211.331 5  -3321473.017 1
  22163133.690    10351628.948 7   8062875.282 1
  22162099.151     9159009.947 6   7914408.722 1
 90 10 10 16 21 29.9990000  0  4 12 20 13 09
  20405566.097        7790.014 7        -0.44713
  23602604.269    -4574986.099 5  -3362596.225 1
  22168613.065    10380416.635 7   8085307.157 1
  22171346.253     9207614.722 6   7952282.428 1
 90 10 10 16 21 44.9990000  0  4 12 20 13 09
  20406347.729       11899.186 7      3201.477 3
  23592561.003    -4627768.202 5  -3403725.155 1
  22174090.019    10409196.467 7   8107732.922 1
  22180609.315     9256288.729 6   7990210.094 1
 90 10 10 16 21 59.9990000  0  4 12 20 13 09
  20407156.542       16152.753 7      6515.911 3
  23582515.862    -4680557.320 5  -3444859.563 1
  22179565.636    10437968.636 7   8130152.721 1
  22189885.339     9305031.556 6   8028191.402 1
 90 10 10 16 22 14.9990000  0  4 12 20 13 09
  20407996.190       20558.219 7      9948.713 3
  23572468.784    -4733345.840 5  -3485993.504 1
  22185041.167    10466740.492 7   8152572.282 1
  22199175.409     9353850.431 6   8066231.955 1
 90 10 10 16 22 29.9990000  0  4 12 20 13 09
  20408860.003       25104.432 7     13491.187 3
  23562421.729    -4786144.707 5  -3527135.491 1
  22190509.823    10495500.863 7   8174982.884 1
  22208475.839     9402733.808 6   8104322.766 1
 90 10 10 16 22 44.9990000  0  4 12 20 13 09
  20409755.081       29803.325 7     17152.632 3
  23552377.253    -4838941.421 5  -3568275.805 1
  22195985.839    10524261.521 7   8197393.713 1
  22217793.144     9451693.420 6   8142473.003 1
 90 10 10 16 22 59.9990000  0  4 12 20 13 09
  20410676.964       34649.837 7     20929.099 3
  23542329.839    -4891740.928 5  -3609418.297 1
  22201460.370    10553017.501 7   8219800.896 1
  22227125.815     9500723.809 6   8180678.377 1
 90 10 10 16 23 14.9990000  0  4 12 20 13 09
  20411626.894       39637.610 8     24815.636 3
  23532280.065    -4944549.424 5  -3650567.796 1
  22206929.104    10581762.137 7   8242199.241 1
  22236465.433     9549818.314 6   8218933.712 1
 90 10 10 16 23 29.9990000  0  4 12 20 13 09
  20412602.925       44768.036 8     28813.339 3
  23522230.214    -4997365.223 5  -3691722.977 1
  22212397.065    10610496.813 6   8264589.812 1
  22245821.347     9598977.638 6   8257239.552 1
 90 10 10 16 23 44.9990000  0  4 12 20 13 09
  20413608.542       50052.476 7     32931.051 3
  23512179.729    -5050176.452 5  -3732874.606 1
  22217867.909    10639233.028 6   8286981.581 1
  22255192.034     9648213.199 6   8295604.791 1
 90 10 10 16 23 59.9990000  0  4 12 20 13 09
  20414641.753       55483.313 7     37162.837 3
  23502131.987    -5102990.653 5  -3774028.538 1
  22223331.370    10667963.074 6   8309368.559 1
  22264576.058     9697516.856 6   8334023.086 1
 90 10 10 16 24 14.9990000  0  4 12 20 13 09
  20415705.620       61070.683 7     41516.601 3
  23492078.089    -5155797.498 5  -3815176.753 1
  22228801.448    10696696.893 6   8331758.482 1
  22273970.222     9746898.525 6   8372502.185 1
 90 10 10 16 24 29.9990000  0  4 12 20 13 09
  20416794.683       66793.336 7     45975.776 3
  23482029.925    -5208617.852 5  -3856335.478 1
  22234266.644    10725413.194 6   8354134.736 1
  22283377.331     9796336.461 6   8411025.130 1
 90 10 10 16 24 44.9990000  0  4 12 20 13 09
  20417908.464       72656.799 7     50544.677 3
  23471977.097    -5261445.974 5  -3897500.267 1
  22239727.433    10754117.419 6   8376501.579 1
  22292798.792     9845835.784 6   8449595.907 1
 90 10 10 16 24 59.9990000  0  4 12 20 13 09
  20419053.112       78664.687 7     55226.113 3
  23461928.284    -5314277.627 5  -3938667.809 1
  22245187.214    10782813.015 6   8398861.720 1
  22302229.206     9895399.959 6   8488217.221 1
 90 10 10 16 25 14.9990000  0  4 12 20 13 09
  20420224.308       84823.201 7     60024.926 3
  23451871.573    -5367106.423 5  -3979833.120 1
  22250647.847    10811506.370 6   8421220.101 1
  22311674.706     9945034.918 6   8526893.678 1
 90 10 10 16 25 29.9990000  0  4 12 20 13 09
  20421424.300       91130.367 7     64939.567 3
  23441816.276    -5419933.988 5  -4020997.481 1
  22256106.651    10840195.450 6   8443575.155 1
  22321134.870     9994738.327 6   8565623.495 1
 90 10 10 16 25 44.9990000  0  4 12 20 13 09
  20422655.097       97590.886 7     69973.706 3
  23431765.870    -5472755.442 5  -4062157.076 1
  22261568.878    10868884.972 6   8465930.569 1
  22330604.097    10044514.612 6   8604410.084 1
 90 10 10 16 25 59.9990000  0  4 12 20 13 09
  20423910.823      104198.250 7     75122.266 3
  23421713.706    -5525576.868 5  -4103316.645 1
  22267025.925    10897568.189 6   8488281.065 1
  22340088.058    10094356.984 6   8643248.183 1
 90 10 10 16 26 14.9990000  0  4 12 20 13 09
  20425198.604      110958.892 7     80390.264 3
  23411660.667    -5578391.703 5  -4144471.070 1
  22272485.214    10926251.762 6   8510631.833 1
  22349589.339    10144271.437 6   8682142.428 1
 90 10 10 16 26 29.9990000  0  3 20 13 09
  23401612.612    -5631210.466 5  -4185628.568 1
  22277941.542    10954924.633 6   8532974.258 1
  22359100.151    10194246.671 6   8721084.016 1
 90 10 10 16 26 44.9990000  0  3 20 13 09
  23391560.839    -5684040.668 6  -4226794.974 1
  22283393.815    10983578.890 6   8555302.178 1
  22368617.190    10244274.635 6   8760066.706 1
 90 10 10 16 26 59.9990000  0  3 20 13 09
  23381507.644    -5736866.322 6  -4267957.828 1
  22288843.659    11012230.172 6   8577627.770 1
  22378151.300    10294370.653 6   8799102.459 1
 90 10 10 16 27 14.9990000  0  4 12 20 13 09
  20430611.933        7320.491 8
  23371451.815    -5789703.877 5  -4309129.980 1
  22294294.386    11040861.957 6   8599938.181 1
  22387695.269    10344517.873 6   8838178.098 1
 90 10 10 16 27 29.9990000  0  4 12 20 13 09
  20432032.901       14787.804 8        -0.20313
  23361398.612    -5842540.511 5  -4350301.377 1
  22299740.276    11069486.747 6   8622243.137 1
  22397251.440    10394728.169 6   8877302.904 1
 90 10 10 16 27 44.9990000  0  4 12 20 13 09
  20433484.683       22407.390 8      5937.093 3
  23351344.503    -5895369.681 5  -4391466.974 1
  22305187.729    11098110.631 6   8644547.378 1
  22406818.487    10445007.564 6   8916481.522 1
 90 10 10 16 27 59.9990000  0  4 12 20 13 09
  20434961.597       30173.015 8     11988.187 3
  23341290.003    -5948197.192 5  -4432631.290 1
  22310632.800    11126727.387 6   8666846.071 1
  22416397.925    10495349.723 6   8955709.043 1
 90 10 10 16 28 14.9990000  0  4 12 20 13 09
  20436465.206       38080.344 8     18149.696 3
  23331239.581    -6001027.084 5  -4473797.440 1
  22316078.487    11155332.654 6   8689135.823 1
  22425988.839    10545749.664 6   8994981.602 1
 90 10 10 16 28 29.9990000  0  4 12 20 13 09
  20437998.034       46128.671 8     24421.084 3
  23321179.065    -6053859.866 5  -4514965.875 1
  22321518.058    11183925.666 6   8711416.008 1
  22435589.987    10596206.708 6   9034298.662 1
 90 10 10 16 28 44.9990000  0  4 12 20 13 09
  20439559.792       54332.588 8     30813.704 3
  23311135.425    -6106680.474 5  -4556124.803 1
  22326959.331    11212521.147 6   8733698.128 1
  22445205.776    10646734.929 6   9073671.171 1
 90 10 10 16 28 59.9990000  0  4 12 20 13 09
  20441145.620       62678.243 8     37316.769 3
  23301082.394    -6159502.538 5  -4597284.872 1
  22332397.948    11241105.085 6   8755971.238 1
  22454831.972    10697320.255 6   9113088.169 1
 90 10 10 16 29 14.9990000  0  4 12 20 13 09
  20442764.237       71180.132 8     43941.583 3
  23291031.104    -6212311.162 5  -4638434.466 1
  22337840.370    11269691.951 6   8778246.631 1
  22464469.362    10747976.881 6   9152560.728 1
 90 10 10 16 29 29.9990000  0  4 12 20 13 09
  20444410.323       79832.431 7     50683.594 3
  23280979.612    -6265111.761 5  -4679577.815 1
  22343278.995    11298275.902 6   8800519.760 1
  22474123.479    10798698.608 6   9192084.004 1
 90 10 10 16 29 44.9990000  0  4 12 20 13 09
  20446085.644       88629.263 7     57538.237 3
  23270935.878    -6317909.859 6  -4720719.198 1
  22348716.550    11326851.118 6   8822786.084 1
  22483788.315    10849479.340 6   9231653.268 1
 90 10 10 16 29 59.9990000  0  4 12 20 13 09
  20447787.183       97568.087 7     64503.515 3
  23260890.886    -6370707.612 6  -4761860.310 1
  22354151.886    11355415.325 6   8845043.820 1
  22493462.245    10900316.151 6   9271266.234 1
 90 10 10 16 30 14.9990000  0  4 12 20 13 09
  20449513.729      106644.041 7     71575.644 3
  23250845.409    -6423509.559 6  -4803004.697 1
  22359584.378    11383963.398 6   8867288.990 1
  22503147.019    10951203.920 6   9310918.905 1
 90 10 10 16 30 29.9990000  0  4 12 20 13 09
  20451265.979      115858.182 7     78755.453 3
  23240795.604    -6476314.344 6  -4844151.292 1
  22365012.909    11412496.439 6   8889522.434 1
  22512839.487    11002143.517 6   9350611.953 1
 90 10 10 16 30 44.9990000  0  4 12 20 13 09
  20453047.886      125219.837 8     86050.208 3
  23230747.925    -6529112.466 6  -4885292.690 1
  22370442.729    11441023.789 6   8911751.442 1
  22522544.089    11053143.687 6   9390352.192 1
 90 10 10 16 30 59.9990000  0  4 12 20 13 09
  20454858.534      134730.573 8     93461.126 3
  23220701.761    -6581901.756 6  -4926427.222 1
  22375871.136    11469546.887 6   8933977.145 1
  22532261.854    11104206.034 6   9430140.884 1
 90 10 10 16 31 14.9990000  0  3 20 13 09
  23210655.644    -6634686.313 6  -4967558.062 1
  22381297.300    11498061.612 6   8956196.322 1
  22541990.050    11155325.748 6   9469974.286 1
 90 10 10 16 31 29.9990000  0  3 20 13 09
  23200611.206    -6687471.425 6  -5008689.333 1
  22386720.042    11526562.590 6   8978404.790 1
  22551724.276    11206497.047 6   9509847.881 1
 90 10 10 16 31 44.9990000  0  3 20 13 09
  23190567.534    -6740264.342 6  -5049826.675 1
  22392142.636    11555041.984 6   9000596.422 1
  22561470.745    11257711.935 6   9549755.448 1
 90 10 10 16 31 59.9990000  0  3 20 13 09
  23180520.104    -6793053.790 6  -5090961.325 1
  22397558.589    11583510.354 6   9022779.478 1
  22571228.183    11308980.893 6   9589705.154 1
 90 10 10 16 32 14.9990000  0  3 20 13 09
  23170474.815    -6845843.702 6  -5132096.328 1
  22402971.519    11611963.620 6   9044950.762 1
  22580995.714    11360299.342 6   9629693.405 1
 90 10 10 16 32 29.9990000  0  3 20 13 09
  23160438.917    -6898627.397 6  -5173226.492 1
  22408385.722    11640408.414 6   9067115.450 1
  22590770.542    11411673.550 6   9669725.125 1
 90 10 10 16 32 44.9990000  0  3 20 13 09
  23150390.261    -6951405.964 6  -5214352.666 1
  22413795.534    11668843.059 6   9089272.223 1
  22600556.128    11463101.506 6   9709798.727 1
 90 10 10 16 32 59.9990000  0  3 20 13 09
  23140345.519    -7004181.451 6  -5255476.442 1
  22419204.331    11697265.298 6   9111419.332 1
  22610353.917    11514580.800 6   9749912.317 1
 90 10 10 16 33 14.9990000  0  4 12 20 13 09
  20472348.097          -0.15317
  23130304.011    -7056949.605 6  -5296594.488 1
  22424613.417    11725678.980 6   9133559.784 1
  22620159.503    11566114.871 6   9790068.604 1
 90 10 10 16 33 29.9990000  0  4 12 20 13 09
  20474428.151       10926.569 7
  23120264.323    -7109706.747 6  -5337703.967 1
  22430016.737    11754087.425 6   9155696.153 1
  22629977.097    11617706.778 6   9830269.944 1
 90 10 10 16 33 44.9990000  0  4 12 20 13 09
  20476535.761       22000.805 7        -0.08813
  23110231.034    -7162452.693 6  -5378804.721 1
  22435421.370    11782490.573 6   9177828.382 1
  22639806.894    11669356.104 6   9870516.042 1
 90 10 10 16 33 59.9990000  0  4 12 20 13 09
  20478672.667       33228.861 7      8749.000 3
  23100195.854    -7215180.859 6  -5419891.614 1
  22440827.901    11810894.795 6   9199961.460 1
  22649647.737    11721068.757 6   9910811.472 1
 90 10 10 16 34 14.9990000  0  4 12 20 13 09
  20480834.714       44594.327 7     17605.167 3
  23090159.261    -7267907.313 6  -5460977.177 1
  22446230.472    11839283.566 6   9222082.497 1
  22659495.792    11772828.009 6   9951143.216 1
 90 10 10 16 34 29.9990000  0  4 12 20 13 09
  20483024.011       56097.726 7     26568.810 3
  23080128.198    -7320631.059 6  -5502060.625 1
  22451629.183    11867657.564 6   9244192.017 1
  22669357.065    11824634.273 6   9991511.601 1
 90 10 10 16 34 44.9990000  0  4 12 20 13 09
  20485238.901       67731.768 7     35634.253 3
  23070095.714    -7373358.877 6  -5543147.250 1
  22457024.940    11896009.365 6   9266284.239 1
  22679221.151    11876479.929 6  10031910.667 1
 90 10 10 16 34 59.9990000  0  4 12 20 13 09
  20487479.136       79505.063 7     44808.207 3
  23060058.128    -7426081.801 6  -5584230.052 1
  22462415.862    11924347.944 6   9288366.155 1
  22689096.394    11928373.493 6  10072347.068 1
 90 10 10 16 35 14.9990000  0  4 12 20 13 09
  20489746.464       91426.247 7     54097.391 3
  23050029.425    -7478790.653 6  -5625301.907 1
  22467809.214    11952681.912 6   9310444.474 1
  22698981.534    11980323.234 6  10112827.252 1
 90 10 10 16 35 29.9990000  0  4 12 20 13 09
  20492042.276      103486.073 7     63494.607 3
  23040004.800    -7531494.551 6  -5666369.901 1
  22473197.308    11981001.983 6   9332511.965 1
  22708875.683    12032319.552 6  10153343.719 1
 90 10 10 16 35 44.9990000  0  4 12 20 13 09
  20494361.456      115680.212 7     72996.486 3
  23029975.253    -7584197.245 6  -5707436.941 1
  22478586.214    12009304.140 6   9354565.499 1
  22718780.401    12084357.755 6  10193892.830 1
 90 10 10 16 35 59.9990000  0  4 12 20 13 09
  20496709.534      128015.558 8     82608.397 3
  23019945.269    -7636891.557 6  -5748497.463 1
  22483967.409    12037595.208 6   9376610.402 1
  22728690.089    12136444.752 6  10234479.963 1
 90 10 10 16 36 14.9990000  0  4 12 20 13 09
  20499085.354      140493.713 8     92331.587 3
  23009920.456    -7689575.655 6  -5789550.014 1
  22489348.292    12065876.731 6   9398647.853 1
  22738610.823    12188581.729 6  10275106.020 1
 90 10 10 16 36 29.9990000  0  4 12 20 13 09
  20501488.042      153117.430 8    102168.196 3
  22999898.151    -7742246.140 6  -5830591.989 1
  22494729.597    12094151.689 6   9420680.181 1
  22748544.378    12240771.090 6  10315772.918 1
 90 10 10 16 36 44.9990000  0  4 12 20 13 09
  20503913.448      165872.644 7    112107.273 3
  22989877.050    -7794916.740 6  -5871634.015 1
  22500107.347    12122405.837 6   9442696.295 1
  22758483.542    12292998.598 6  10356469.535 1
 90 10 10 16 36 59.9990000  0  4 12 20 13 09
  20506368.245      178771.046 7    122157.932 3
  22979850.315    -7847575.372 6  -5912666.728 1
  22505483.784    12150651.019 6   9464705.419 1
  22768430.394    12345275.753 6  10397204.836 1
 90 10 10 16 37 14.9990000  0  4 12 20 13 09
  20508850.300      191817.180 7    132323.699 3
  22969832.573    -7900216.939 6  -5953686.147 1
  22510857.175    12178892.022 6   9486711.301 1
  22778389.386    12397606.710 6  10437982.056 1
 90 10 10 16 37 29.9990000  0  4 12 20 13 09
  20511360.729      204998.521 8    142594.830 3
  22959817.347    -7952853.459 6  -5994701.642 1
  22516226.698    12207116.428 6   9508704.245 1
  22788356.519    12449978.997 6  10478791.496 1
 90 10 10 16 37 44.9990000  0  4 12 20 13 09
  20513895.550      218325.949 7    152979.787 3
  22949802.120    -8005473.786 6  -6035704.514 1
  22521597.675    12235335.214 6   9530692.819 1
  22798331.292    12502403.031 6  10519641.250 1
 90 10 10 16 37 59.9990000  0  4 12 20 13 09
  20516457.550      231789.580 8    163470.878 3
  22939791.659    -8058087.691 6  -6076702.371 1
  22526963.354    12263538.278 6   9552669.137 1
  22808316.644    12554868.522 6  10560523.307 1
 90 10 10 16 38 14.9990000  0  4 12 20 13 09
  20519045.847      245387.192 8    174066.376 3
  22929778.175    -8110696.682 6  -6117696.419 1
  22532329.073    12291723.555 6   9574631.595 1
  22818306.933    12607373.171 6  10601435.891 1
 90 10 10 16 38 29.9990000  0  4 12 20 13 09
  20521657.526      259114.423 8    184762.861 3
  22919774.019    -8163304.940 6  -6158689.879 1
  22537685.815    12319886.637 6   9596576.758 1
  22828306.034    12659912.238 6  10642375.272 1
 90 10 10 16 38 44.9990000  0  4 12 20 13 09
  20524296.073      272979.942 8    195567.108 3
  22909762.933    -8215903.300 6  -6199675.624 1
  22543042.487    12348036.331 6   9618511.476 1
  22838311.417    12712494.256 6  10683348.130 1
 90 10 10 16 38 59.9990000  0  3 20 13 09
  22899758.683    -8268486.568 6  -6240649.612 1
  22548399.237    12376177.716 6   9640439.726 1
  22848327.050    12765123.569 6  10724357.837 1
 90 10 10 16 39 14.9990000  0  3 20 13 09
  22889753.558    -8321058.590 6  -6281614.846 1
  22553752.526    12404306.327 6   9662358.022 1
  22858349.472    12817795.744 6  10765400.946 1
 90 10 10 16 39 29.9990000  0  3 20 13 09
  22879746.628    -8373621.040 6  -6322572.608 1
  22559102.503    12432420.394 6   9684264.980 1
  22868381.089    12870508.514 6  10806475.681 1
